<?xml version="1.0" encoding="UTF-8" standalone="no" ?>
<gpx xmlns="http://www.topografix.com/GPX/1/1" xmlns:xsi="http://www.w3.org/2001/XMLSchema-instance" xsi:schemaLocation="http://www.topografix.com/GPX/1/1 http://www.topografix.com/GPX/1/1/gpx.xsd" version="1.1" creator="VisuGPX - https://www.visugpx.com">
  <metadata>
    <name>Nivoliers - Nîmes le Vieux</name>
    <desc><![CDATA[A tester rapidement]]></desc>
  </metadata>
  <trk>
    <name><![CDATA[track]]></name>
    <trkseg>
      <trkpt lat="44.26287" lon="3.46046">
        <ele>947</ele>
        <time>2013-06-21T07:56:52Z</time>
      </trkpt>
      <trkpt lat="44.26285" lon="3.46054">
        <ele>959</ele>
        <time>2013-06-21T07:57:41Z</time>
      </trkpt>
      <trkpt lat="44.26298" lon="3.46065">
        <ele>957</ele>
        <time>2013-06-21T07:57:57Z</time>
      </trkpt>
      <trkpt lat="44.26303" lon="3.4607">
        <ele>956</ele>
        <time>2013-06-21T07:58:03Z</time>
      </trkpt>
      <trkpt lat="44.26307" lon="3.46077">
        <ele>955</ele>
        <time>2013-06-21T07:58:16Z</time>
      </trkpt>
      <trkpt lat="44.26299" lon="3.46071">
        <ele>955</ele>
        <time>2013-06-21T07:58:30Z</time>
      </trkpt>
      <trkpt lat="44.263" lon="3.4607">
        <ele>954</ele>
        <time>2013-06-21T07:58:34Z</time>
      </trkpt>
      <trkpt lat="44.26317" lon="3.46081">
        <ele>951</ele>
        <time>2013-06-21T07:58:50Z</time>
      </trkpt>
      <trkpt lat="44.26327" lon="3.46088">
        <ele>950</ele>
        <time>2013-06-21T07:59:04Z</time>
      </trkpt>
      <trkpt lat="44.26329" lon="3.46096">
        <ele>948</ele>
        <time>2013-06-21T07:59:12Z</time>
      </trkpt>
      <trkpt lat="44.26335" lon="3.46105">
        <ele>947</ele>
        <time>2013-06-21T07:59:26Z</time>
      </trkpt>
      <trkpt lat="44.26332" lon="3.46119">
        <ele>952</ele>
        <time>2013-06-21T07:59:55Z</time>
      </trkpt>
      <trkpt lat="44.26321" lon="3.46129">
        <ele>954</ele>
        <time>2013-06-21T08:00:06Z</time>
      </trkpt>
      <trkpt lat="44.2631" lon="3.46125">
        <ele>952</ele>
        <time>2013-06-21T08:00:20Z</time>
      </trkpt>
      <trkpt lat="44.26298" lon="3.46118">
        <ele>951</ele>
        <time>2013-06-21T08:00:30Z</time>
      </trkpt>
      <trkpt lat="44.26275" lon="3.46109">
        <ele>948</ele>
        <time>2013-06-21T08:00:48Z</time>
      </trkpt>
      <trkpt lat="44.2626" lon="3.46111">
        <ele>948</ele>
        <time>2013-06-21T08:01:01Z</time>
      </trkpt>
      <trkpt lat="44.26253" lon="3.46112">
        <ele>952</ele>
        <time>2013-06-21T08:01:07Z</time>
      </trkpt>
      <trkpt lat="44.2624" lon="3.46108">
        <ele>957</ele>
        <time>2013-06-21T08:01:23Z</time>
      </trkpt>
      <trkpt lat="44.26211" lon="3.46111">
        <ele>960</ele>
        <time>2013-06-21T08:01:46Z</time>
      </trkpt>
      <trkpt lat="44.26196" lon="3.46112">
        <ele>962</ele>
        <time>2013-06-21T08:01:59Z</time>
      </trkpt>
      <trkpt lat="44.2619" lon="3.46112">
        <ele>964</ele>
        <time>2013-06-21T08:02:43Z</time>
      </trkpt>
      <trkpt lat="44.26171" lon="3.46113">
        <ele>967</ele>
        <time>2013-06-21T08:02:58Z</time>
      </trkpt>
      <trkpt lat="44.26151" lon="3.4611">
        <ele>971</ele>
        <time>2013-06-21T08:03:12Z</time>
      </trkpt>
      <trkpt lat="44.26148" lon="3.46111">
        <ele>971</ele>
        <time>2013-06-21T08:03:15Z</time>
      </trkpt>
      <trkpt lat="44.26141" lon="3.46112">
        <ele>972</ele>
        <time>2013-06-21T08:03:21Z</time>
      </trkpt>
      <trkpt lat="44.26134" lon="3.46117">
        <ele>972</ele>
        <time>2013-06-21T08:03:34Z</time>
      </trkpt>
      <trkpt lat="44.26133" lon="3.46114">
        <ele>971</ele>
        <time>2013-06-21T08:03:54Z</time>
      </trkpt>
      <trkpt lat="44.26133" lon="3.46114">
        <ele>971</ele>
        <time>2013-06-21T08:04:14Z</time>
      </trkpt>
      <trkpt lat="44.26129" lon="3.46111">
        <ele>970</ele>
        <time>2013-06-21T08:04:18Z</time>
      </trkpt>
      <trkpt lat="44.26109" lon="3.46107">
        <ele>967</ele>
        <time>2013-06-21T08:04:37Z</time>
      </trkpt>
      <trkpt lat="44.26095" lon="3.46107">
        <ele>963</ele>
        <time>2013-06-21T08:05:04Z</time>
      </trkpt>
      <trkpt lat="44.26093" lon="3.46107">
        <ele>962</ele>
        <time>2013-06-21T08:05:06Z</time>
      </trkpt>
      <trkpt lat="44.26086" lon="3.46109">
        <ele>961</ele>
        <time>2013-06-21T08:05:13Z</time>
      </trkpt>
      <trkpt lat="44.26068" lon="3.46108">
        <ele>962</ele>
        <time>2013-06-21T08:05:28Z</time>
      </trkpt>
      <trkpt lat="44.26057" lon="3.46111">
        <ele>963</ele>
        <time>2013-06-21T08:05:41Z</time>
      </trkpt>
      <trkpt lat="44.26037" lon="3.46111">
        <ele>963</ele>
        <time>2013-06-21T08:05:59Z</time>
      </trkpt>
      <trkpt lat="44.26021" lon="3.46108">
        <ele>965</ele>
        <time>2013-06-21T08:06:13Z</time>
      </trkpt>
      <trkpt lat="44.26015" lon="3.46105">
        <ele>966</ele>
        <time>2013-06-21T08:06:20Z</time>
      </trkpt>
      <trkpt lat="44.26013" lon="3.46105">
        <ele>966</ele>
        <time>2013-06-21T08:06:22Z</time>
      </trkpt>
      <trkpt lat="44.26005" lon="3.46098">
        <ele>966</ele>
        <time>2013-06-21T08:06:36Z</time>
      </trkpt>
      <trkpt lat="44.26017" lon="3.46102">
        <ele>966</ele>
        <time>2013-06-21T08:06:47Z</time>
      </trkpt>
      <trkpt lat="44.26036" lon="3.46103">
        <ele>966</ele>
        <time>2013-06-21T08:07:02Z</time>
      </trkpt>
      <trkpt lat="44.26051" lon="3.46104">
        <ele>963</ele>
        <time>2013-06-21T08:07:16Z</time>
      </trkpt>
      <trkpt lat="44.26057" lon="3.46103">
        <ele>962</ele>
        <time>2013-06-21T08:07:21Z</time>
      </trkpt>
      <trkpt lat="44.26064" lon="3.46102">
        <ele>965</ele>
        <time>2013-06-21T08:07:38Z</time>
      </trkpt>
      <trkpt lat="44.26078" lon="3.46103">
        <ele>964</ele>
        <time>2013-06-21T08:07:52Z</time>
      </trkpt>
      <trkpt lat="44.26094" lon="3.46102">
        <ele>962</ele>
        <time>2013-06-21T08:08:04Z</time>
      </trkpt>
      <trkpt lat="44.26106" lon="3.46105">
        <ele>960</ele>
        <time>2013-06-21T08:08:17Z</time>
      </trkpt>
      <trkpt lat="44.26114" lon="3.46104">
        <ele>963</ele>
        <time>2013-06-21T08:08:23Z</time>
      </trkpt>
      <trkpt lat="44.26128" lon="3.46111">
        <ele>965</ele>
        <time>2013-06-21T08:08:34Z</time>
      </trkpt>
      <trkpt lat="44.26131" lon="3.46118">
        <ele>965</ele>
        <time>2013-06-21T08:08:39Z</time>
      </trkpt>
      <trkpt lat="44.26124" lon="3.46128">
        <ele>971</ele>
        <time>2013-06-21T08:08:52Z</time>
      </trkpt>
      <trkpt lat="44.26113" lon="3.46135">
        <ele>974</ele>
        <time>2013-06-21T08:09:05Z</time>
      </trkpt>
      <trkpt lat="44.26104" lon="3.46142">
        <ele>976</ele>
        <time>2013-06-21T08:09:16Z</time>
      </trkpt>
      <trkpt lat="44.26095" lon="3.46145">
        <ele>978</ele>
        <time>2013-06-21T08:09:25Z</time>
      </trkpt>
      <trkpt lat="44.2609" lon="3.46147">
        <ele>978</ele>
        <time>2013-06-21T08:09:30Z</time>
      </trkpt>
      <trkpt lat="44.26078" lon="3.46152">
        <ele>981</ele>
        <time>2013-06-21T08:09:42Z</time>
      </trkpt>
      <trkpt lat="44.26067" lon="3.46159">
        <ele>981</ele>
        <time>2013-06-21T08:09:54Z</time>
      </trkpt>
      <trkpt lat="44.26054" lon="3.46166">
        <ele>983</ele>
        <time>2013-06-21T08:10:09Z</time>
      </trkpt>
      <trkpt lat="44.26052" lon="3.46166">
        <ele>983</ele>
        <time>2013-06-21T08:10:11Z</time>
      </trkpt>
      <trkpt lat="44.26047" lon="3.46168">
        <ele>986</ele>
        <time>2013-06-21T08:10:16Z</time>
      </trkpt>
      <trkpt lat="44.26034" lon="3.46174">
        <ele>988</ele>
        <time>2013-06-21T08:10:29Z</time>
      </trkpt>
      <trkpt lat="44.26023" lon="3.46182">
        <ele>990</ele>
        <time>2013-06-21T08:10:41Z</time>
      </trkpt>
      <trkpt lat="44.26021" lon="3.46184">
        <ele>990</ele>
        <time>2013-06-21T08:10:43Z</time>
      </trkpt>
      <trkpt lat="44.2602" lon="3.46184">
        <ele>990</ele>
        <time>2013-06-21T08:10:46Z</time>
      </trkpt>
      <trkpt lat="44.26013" lon="3.46186">
        <ele>992</ele>
        <time>2013-06-21T08:10:54Z</time>
      </trkpt>
      <trkpt lat="44.26009" lon="3.46188">
        <ele>993</ele>
        <time>2013-06-21T08:10:58Z</time>
      </trkpt>
      <trkpt lat="44.25996" lon="3.46199">
        <ele>996</ele>
        <time>2013-06-21T08:11:13Z</time>
      </trkpt>
      <trkpt lat="44.25987" lon="3.46205">
        <ele>998</ele>
        <time>2013-06-21T08:11:26Z</time>
      </trkpt>
      <trkpt lat="44.25976" lon="3.46216">
        <ele>997</ele>
        <time>2013-06-21T08:11:42Z</time>
      </trkpt>
      <trkpt lat="44.25966" lon="3.46229">
        <ele>995</ele>
        <time>2013-06-21T08:11:57Z</time>
      </trkpt>
      <trkpt lat="44.25957" lon="3.4623">
        <ele>993</ele>
        <time>2013-06-21T08:12:09Z</time>
      </trkpt>
      <trkpt lat="44.25957" lon="3.46228">
        <ele>992</ele>
        <time>2013-06-21T08:12:34Z</time>
      </trkpt>
      <trkpt lat="44.25942" lon="3.46227">
        <ele>991</ele>
        <time>2013-06-21T08:13:56Z</time>
      </trkpt>
      <trkpt lat="44.25922" lon="3.4622">
        <ele>988</ele>
        <time>2013-06-21T08:14:15Z</time>
      </trkpt>
      <trkpt lat="44.25918" lon="3.46218">
        <ele>987</ele>
        <time>2013-06-21T08:14:21Z</time>
      </trkpt>
      <trkpt lat="44.25909" lon="3.46215">
        <ele>989</ele>
        <time>2013-06-21T08:14:36Z</time>
      </trkpt>
      <trkpt lat="44.25897" lon="3.46214">
        <ele>990</ele>
        <time>2013-06-21T08:14:52Z</time>
      </trkpt>
      <trkpt lat="44.2588" lon="3.46214">
        <ele>990</ele>
        <time>2013-06-21T08:15:07Z</time>
      </trkpt>
      <trkpt lat="44.25863" lon="3.46212">
        <ele>989</ele>
        <time>2013-06-21T08:15:22Z</time>
      </trkpt>
      <trkpt lat="44.2585" lon="3.46206">
        <ele>990</ele>
        <time>2013-06-21T08:15:33Z</time>
      </trkpt>
      <trkpt lat="44.25836" lon="3.46204">
        <ele>991</ele>
        <time>2013-06-21T08:15:44Z</time>
      </trkpt>
      <trkpt lat="44.25819" lon="3.46201">
        <ele>989</ele>
        <time>2013-06-21T08:15:59Z</time>
      </trkpt>
      <trkpt lat="44.25803" lon="3.46198">
        <ele>986</ele>
        <time>2013-06-21T08:16:12Z</time>
      </trkpt>
      <trkpt lat="44.25781" lon="3.46194">
        <ele>990</ele>
        <time>2013-06-21T08:16:29Z</time>
      </trkpt>
      <trkpt lat="44.25778" lon="3.46196">
        <ele>989</ele>
        <time>2013-06-21T08:16:31Z</time>
      </trkpt>
      <trkpt lat="44.25774" lon="3.46193">
        <ele>989</ele>
        <time>2013-06-21T08:16:35Z</time>
      </trkpt>
      <trkpt lat="44.25757" lon="3.46194">
        <ele>989</ele>
        <time>2013-06-21T08:16:50Z</time>
      </trkpt>
      <trkpt lat="44.25749" lon="3.46198">
        <ele>986</ele>
        <time>2013-06-21T08:16:57Z</time>
      </trkpt>
      <trkpt lat="44.25733" lon="3.46194">
        <ele>984</ele>
        <time>2013-06-21T08:17:10Z</time>
      </trkpt>
      <trkpt lat="44.25731" lon="3.46194">
        <ele>984</ele>
        <time>2013-06-21T08:17:12Z</time>
      </trkpt>
      <trkpt lat="44.25712" lon="3.46196">
        <ele>985</ele>
        <time>2013-06-21T08:17:26Z</time>
      </trkpt>
      <trkpt lat="44.25699" lon="3.46199">
        <ele>985</ele>
        <time>2013-06-21T08:17:37Z</time>
      </trkpt>
      <trkpt lat="44.25685" lon="3.46203">
        <ele>985</ele>
        <time>2013-06-21T08:17:50Z</time>
      </trkpt>
      <trkpt lat="44.25678" lon="3.46204">
        <ele>985</ele>
        <time>2013-06-21T08:17:57Z</time>
      </trkpt>
      <trkpt lat="44.25676" lon="3.46206">
        <ele>985</ele>
        <time>2013-06-21T08:18:00Z</time>
      </trkpt>
      <trkpt lat="44.25664" lon="3.46208">
        <ele>983</ele>
        <time>2013-06-21T08:18:13Z</time>
      </trkpt>
      <trkpt lat="44.25659" lon="3.46209">
        <ele>983</ele>
        <time>2013-06-21T08:18:19Z</time>
      </trkpt>
      <trkpt lat="44.25637" lon="3.46204">
        <ele>982</ele>
        <time>2013-06-21T08:18:35Z</time>
      </trkpt>
      <trkpt lat="44.25632" lon="3.46204">
        <ele>982</ele>
        <time>2013-06-21T08:18:38Z</time>
      </trkpt>
      <trkpt lat="44.25628" lon="3.46203">
        <ele>982</ele>
        <time>2013-06-21T08:18:43Z</time>
      </trkpt>
      <trkpt lat="44.25609" lon="3.46202">
        <ele>983</ele>
        <time>2013-06-21T08:18:58Z</time>
      </trkpt>
      <trkpt lat="44.25589" lon="3.46199">
        <ele>985</ele>
        <time>2013-06-21T08:19:19Z</time>
      </trkpt>
      <trkpt lat="44.2558" lon="3.46188">
        <ele>988</ele>
        <time>2013-06-21T08:19:31Z</time>
      </trkpt>
      <trkpt lat="44.25572" lon="3.46185">
        <ele>989</ele>
        <time>2013-06-21T08:19:36Z</time>
      </trkpt>
      <trkpt lat="44.25554" lon="3.46175">
        <ele>996</ele>
        <time>2013-06-21T08:19:50Z</time>
      </trkpt>
      <trkpt lat="44.25538" lon="3.46165">
        <ele>1003</ele>
        <time>2013-06-21T08:20:04Z</time>
      </trkpt>
      <trkpt lat="44.25538" lon="3.46164">
        <ele>1003</ele>
        <time>2013-06-21T08:20:05Z</time>
      </trkpt>
      <trkpt lat="44.25522" lon="3.46152">
        <ele>1010</ele>
        <time>2013-06-21T08:20:20Z</time>
      </trkpt>
      <trkpt lat="44.25522" lon="3.46153">
        <ele>1003</ele>
        <time>2013-06-21T08:20:43Z</time>
      </trkpt>
      <trkpt lat="44.25515" lon="3.46156">
        <ele>998</ele>
        <time>2013-06-21T08:22:22Z</time>
      </trkpt>
      <trkpt lat="44.25514" lon="3.46156">
        <ele>998</ele>
        <time>2013-06-21T08:22:28Z</time>
      </trkpt>
      <trkpt lat="44.25507" lon="3.46155">
        <ele>997</ele>
        <time>2013-06-21T08:22:35Z</time>
      </trkpt>
      <trkpt lat="44.25492" lon="3.46155">
        <ele>997</ele>
        <time>2013-06-21T08:22:48Z</time>
      </trkpt>
      <trkpt lat="44.25474" lon="3.46155">
        <ele>996</ele>
        <time>2013-06-21T08:23:04Z</time>
      </trkpt>
      <trkpt lat="44.25458" lon="3.46156">
        <ele>995</ele>
        <time>2013-06-21T08:23:17Z</time>
      </trkpt>
      <trkpt lat="44.25442" lon="3.46153">
        <ele>997</ele>
        <time>2013-06-21T08:23:31Z</time>
      </trkpt>
      <trkpt lat="44.25423" lon="3.46153">
        <ele>998</ele>
        <time>2013-06-21T08:23:45Z</time>
      </trkpt>
      <trkpt lat="44.25417" lon="3.46155">
        <ele>998</ele>
        <time>2013-06-21T08:23:50Z</time>
      </trkpt>
      <trkpt lat="44.25402" lon="3.46159">
        <ele>999</ele>
        <time>2013-06-21T08:24:04Z</time>
      </trkpt>
      <trkpt lat="44.25389" lon="3.46161">
        <ele>1000</ele>
        <time>2013-06-21T08:24:15Z</time>
      </trkpt>
      <trkpt lat="44.25388" lon="3.46163">
        <ele>1002</ele>
        <time>2013-06-21T08:24:34Z</time>
      </trkpt>
      <trkpt lat="44.25388" lon="3.46163">
        <ele>1002</ele>
        <time>2013-06-21T08:24:35Z</time>
      </trkpt>
      <trkpt lat="44.25372" lon="3.46169">
        <ele>1003</ele>
        <time>2013-06-21T08:24:49Z</time>
      </trkpt>
      <trkpt lat="44.25359" lon="3.46175">
        <ele>1005</ele>
        <time>2013-06-21T08:25:02Z</time>
      </trkpt>
      <trkpt lat="44.25348" lon="3.46184">
        <ele>1007</ele>
        <time>2013-06-21T08:25:14Z</time>
      </trkpt>
      <trkpt lat="44.25341" lon="3.46191">
        <ele>1003</ele>
        <time>2013-06-21T08:25:28Z</time>
      </trkpt>
      <trkpt lat="44.25333" lon="3.46196">
        <ele>1004</ele>
        <time>2013-06-21T08:25:39Z</time>
      </trkpt>
      <trkpt lat="44.25319" lon="3.46205">
        <ele>1008</ele>
        <time>2013-06-21T08:25:53Z</time>
      </trkpt>
      <trkpt lat="44.25307" lon="3.46213">
        <ele>1012</ele>
        <time>2013-06-21T08:26:05Z</time>
      </trkpt>
      <trkpt lat="44.25296" lon="3.4622">
        <ele>1016</ele>
        <time>2013-06-21T08:26:17Z</time>
      </trkpt>
      <trkpt lat="44.25285" lon="3.4623">
        <ele>1019</ele>
        <time>2013-06-21T08:26:30Z</time>
      </trkpt>
      <trkpt lat="44.25278" lon="3.46237">
        <ele>1020</ele>
        <time>2013-06-21T08:26:38Z</time>
      </trkpt>
      <trkpt lat="44.25275" lon="3.46238">
        <ele>1021</ele>
        <time>2013-06-21T08:26:40Z</time>
      </trkpt>
      <trkpt lat="44.25275" lon="3.46242">
        <ele>1021</ele>
        <time>2013-06-21T08:26:42Z</time>
      </trkpt>
      <trkpt lat="44.25261" lon="3.46249">
        <ele>1023</ele>
        <time>2013-06-21T08:26:57Z</time>
      </trkpt>
      <trkpt lat="44.25256" lon="3.46256">
        <ele>1024</ele>
        <time>2013-06-21T08:27:04Z</time>
      </trkpt>
      <trkpt lat="44.25243" lon="3.46272">
        <ele>1018</ele>
        <time>2013-06-21T08:27:18Z</time>
      </trkpt>
      <trkpt lat="44.25242" lon="3.46275">
        <ele>1015</ele>
        <time>2013-06-21T08:27:26Z</time>
      </trkpt>
      <trkpt lat="44.25235" lon="3.46288">
        <ele>1013</ele>
        <time>2013-06-21T08:27:43Z</time>
      </trkpt>
      <trkpt lat="44.25225" lon="3.46295">
        <ele>1013</ele>
        <time>2013-06-21T08:27:56Z</time>
      </trkpt>
      <trkpt lat="44.25221" lon="3.46295">
        <ele>1013</ele>
        <time>2013-06-21T08:28:01Z</time>
      </trkpt>
      <trkpt lat="44.25203" lon="3.46293">
        <ele>1010</ele>
        <time>2013-06-21T08:28:16Z</time>
      </trkpt>
      <trkpt lat="44.25191" lon="3.46298">
        <ele>1010</ele>
        <time>2013-06-21T08:28:28Z</time>
      </trkpt>
      <trkpt lat="44.25185" lon="3.46303">
        <ele>1008</ele>
        <time>2013-06-21T08:28:44Z</time>
      </trkpt>
      <trkpt lat="44.2518" lon="3.46304">
        <ele>1008</ele>
        <time>2013-06-21T08:29:00Z</time>
      </trkpt>
      <trkpt lat="44.25165" lon="3.46314">
        <ele>1007</ele>
        <time>2013-06-21T08:29:18Z</time>
      </trkpt>
      <trkpt lat="44.25157" lon="3.46319">
        <ele>1006</ele>
        <time>2013-06-21T08:29:39Z</time>
      </trkpt>
      <trkpt lat="44.25145" lon="3.46326">
        <ele>1008</ele>
        <time>2013-06-21T08:29:53Z</time>
      </trkpt>
      <trkpt lat="44.25131" lon="3.46329">
        <ele>1012</ele>
        <time>2013-06-21T08:30:06Z</time>
      </trkpt>
      <trkpt lat="44.25127" lon="3.46328">
        <ele>1015</ele>
        <time>2013-06-21T08:30:11Z</time>
      </trkpt>
      <trkpt lat="44.25115" lon="3.46331">
        <ele>1022</ele>
        <time>2013-06-21T08:30:24Z</time>
      </trkpt>
      <trkpt lat="44.25102" lon="3.46335">
        <ele>1026</ele>
        <time>2013-06-21T08:30:38Z</time>
      </trkpt>
      <trkpt lat="44.2509" lon="3.4634">
        <ele>1030</ele>
        <time>2013-06-21T08:30:51Z</time>
      </trkpt>
      <trkpt lat="44.25078" lon="3.46343">
        <ele>1035</ele>
        <time>2013-06-21T08:31:03Z</time>
      </trkpt>
      <trkpt lat="44.25065" lon="3.4635">
        <ele>1036</ele>
        <time>2013-06-21T08:31:18Z</time>
      </trkpt>
      <trkpt lat="44.25052" lon="3.46353">
        <ele>1042</ele>
        <time>2013-06-21T08:31:34Z</time>
      </trkpt>
      <trkpt lat="44.2504" lon="3.46356">
        <ele>1044</ele>
        <time>2013-06-21T08:31:47Z</time>
      </trkpt>
      <trkpt lat="44.25032" lon="3.46362">
        <ele>1043</ele>
        <time>2013-06-21T08:31:58Z</time>
      </trkpt>
      <trkpt lat="44.25027" lon="3.46369">
        <ele>1030</ele>
        <time>2013-06-21T08:32:14Z</time>
      </trkpt>
      <trkpt lat="44.25022" lon="3.46374">
        <ele>1029</ele>
        <time>2013-06-21T08:32:49Z</time>
      </trkpt>
      <trkpt lat="44.25014" lon="3.46375">
        <ele>1029</ele>
        <time>2013-06-21T08:33:04Z</time>
      </trkpt>
      <trkpt lat="44.25004" lon="3.46384">
        <ele>1027</ele>
        <time>2013-06-21T08:33:38Z</time>
      </trkpt>
      <trkpt lat="44.24992" lon="3.4639">
        <ele>1022</ele>
        <time>2013-06-21T08:33:51Z</time>
      </trkpt>
      <trkpt lat="44.24988" lon="3.46395">
        <ele>1019</ele>
        <time>2013-06-21T08:34:41Z</time>
      </trkpt>
      <trkpt lat="44.24983" lon="3.46406">
        <ele>1018</ele>
        <time>2013-06-21T08:34:55Z</time>
      </trkpt>
      <trkpt lat="44.2497" lon="3.46414">
        <ele>1018</ele>
        <time>2013-06-21T08:35:13Z</time>
      </trkpt>
      <trkpt lat="44.24955" lon="3.46425">
        <ele>1018</ele>
        <time>2013-06-21T08:35:29Z</time>
      </trkpt>
      <trkpt lat="44.24948" lon="3.46432">
        <ele>1019</ele>
        <time>2013-06-21T08:35:39Z</time>
      </trkpt>
      <trkpt lat="44.24936" lon="3.46438">
        <ele>1023</ele>
        <time>2013-06-21T08:35:53Z</time>
      </trkpt>
      <trkpt lat="44.24927" lon="3.4644">
        <ele>1030</ele>
        <time>2013-06-21T08:36:05Z</time>
      </trkpt>
      <trkpt lat="44.24917" lon="3.46444">
        <ele>1038</ele>
        <time>2013-06-21T08:36:18Z</time>
      </trkpt>
      <trkpt lat="44.24908" lon="3.46453">
        <ele>1044</ele>
        <time>2013-06-21T08:36:32Z</time>
      </trkpt>
      <trkpt lat="44.24899" lon="3.46463">
        <ele>1048</ele>
        <time>2013-06-21T08:36:47Z</time>
      </trkpt>
      <trkpt lat="44.24889" lon="3.46474">
        <ele>1050</ele>
        <time>2013-06-21T08:37:01Z</time>
      </trkpt>
      <trkpt lat="44.24881" lon="3.46476">
        <ele>1051</ele>
        <time>2013-06-21T08:37:15Z</time>
      </trkpt>
      <trkpt lat="44.24875" lon="3.46484">
        <ele>1050</ele>
        <time>2013-06-21T08:37:46Z</time>
      </trkpt>
      <trkpt lat="44.24866" lon="3.4649">
        <ele>1049</ele>
        <time>2013-06-21T08:38:01Z</time>
      </trkpt>
      <trkpt lat="44.24858" lon="3.46501">
        <ele>1047</ele>
        <time>2013-06-21T08:38:14Z</time>
      </trkpt>
      <trkpt lat="44.24849" lon="3.46512">
        <ele>1045</ele>
        <time>2013-06-21T08:38:27Z</time>
      </trkpt>
      <trkpt lat="44.24841" lon="3.46524">
        <ele>1044</ele>
        <time>2013-06-21T08:38:40Z</time>
      </trkpt>
      <trkpt lat="44.24836" lon="3.46528">
        <ele>1042</ele>
        <time>2013-06-21T08:38:47Z</time>
      </trkpt>
      <trkpt lat="44.24827" lon="3.46538">
        <ele>1040</ele>
        <time>2013-06-21T08:39:00Z</time>
      </trkpt>
      <trkpt lat="44.24816" lon="3.46544">
        <ele>1039</ele>
        <time>2013-06-21T08:39:12Z</time>
      </trkpt>
      <trkpt lat="44.24811" lon="3.46545">
        <ele>1040</ele>
        <time>2013-06-21T08:39:20Z</time>
      </trkpt>
      <trkpt lat="44.24801" lon="3.46548">
        <ele>1044</ele>
        <time>2013-06-21T08:39:36Z</time>
      </trkpt>
      <trkpt lat="44.24793" lon="3.46551">
        <ele>1050</ele>
        <time>2013-06-21T08:39:50Z</time>
      </trkpt>
      <trkpt lat="44.24787" lon="3.46556">
        <ele>1057</ele>
        <time>2013-06-21T08:40:07Z</time>
      </trkpt>
      <trkpt lat="44.24786" lon="3.46558">
        <ele>1060</ele>
        <time>2013-06-21T08:40:32Z</time>
      </trkpt>
      <trkpt lat="44.24777" lon="3.46566">
        <ele>1059</ele>
        <time>2013-06-21T08:41:03Z</time>
      </trkpt>
      <trkpt lat="44.24771" lon="3.4657">
        <ele>1059</ele>
        <time>2013-06-21T08:41:24Z</time>
      </trkpt>
      <trkpt lat="44.24771" lon="3.46574">
        <ele>1059</ele>
        <time>2013-06-21T08:41:45Z</time>
      </trkpt>
      <trkpt lat="44.2476" lon="3.46581">
        <ele>1064</ele>
        <time>2013-06-21T08:42:51Z</time>
      </trkpt>
      <trkpt lat="44.24755" lon="3.46593">
        <ele>1067</ele>
        <time>2013-06-21T08:43:05Z</time>
      </trkpt>
      <trkpt lat="44.24747" lon="3.46601">
        <ele>1068</ele>
        <time>2013-06-21T08:43:26Z</time>
      </trkpt>
      <trkpt lat="44.24731" lon="3.46614">
        <ele>1068</ele>
        <time>2013-06-21T08:43:43Z</time>
      </trkpt>
      <trkpt lat="44.24727" lon="3.46622">
        <ele>1067</ele>
        <time>2013-06-21T08:43:57Z</time>
      </trkpt>
      <trkpt lat="44.24727" lon="3.46626">
        <ele>1068</ele>
        <time>2013-06-21T08:45:23Z</time>
      </trkpt>
      <trkpt lat="44.2472" lon="3.46642">
        <ele>1068</ele>
        <time>2013-06-21T08:45:37Z</time>
      </trkpt>
      <trkpt lat="44.24716" lon="3.4665">
        <ele>1068</ele>
        <time>2013-06-21T08:45:42Z</time>
      </trkpt>
      <trkpt lat="44.24711" lon="3.4666">
        <ele>1066</ele>
        <time>2013-06-21T08:45:56Z</time>
      </trkpt>
      <trkpt lat="44.24702" lon="3.46684">
        <ele>1065</ele>
        <time>2013-06-21T08:46:15Z</time>
      </trkpt>
      <trkpt lat="44.24693" lon="3.46695">
        <ele>1066</ele>
        <time>2013-06-21T08:46:30Z</time>
      </trkpt>
      <trkpt lat="44.24683" lon="3.46708">
        <ele>1067</ele>
        <time>2013-06-21T08:46:47Z</time>
      </trkpt>
      <trkpt lat="44.24679" lon="3.46723">
        <ele>1067</ele>
        <time>2013-06-21T08:47:03Z</time>
      </trkpt>
      <trkpt lat="44.24681" lon="3.46732">
        <ele>1068</ele>
        <time>2013-06-21T08:47:32Z</time>
      </trkpt>
      <trkpt lat="44.2468" lon="3.46759">
        <ele>1071</ele>
        <time>2013-06-21T08:48:23Z</time>
      </trkpt>
      <trkpt lat="44.24673" lon="3.46777">
        <ele>1067</ele>
        <time>2013-06-21T08:48:39Z</time>
      </trkpt>
      <trkpt lat="44.24664" lon="3.4679">
        <ele>1062</ele>
        <time>2013-06-21T08:48:57Z</time>
      </trkpt>
      <trkpt lat="44.24655" lon="3.46809">
        <ele>1059</ele>
        <time>2013-06-21T08:49:14Z</time>
      </trkpt>
      <trkpt lat="44.24651" lon="3.4682">
        <ele>1058</ele>
        <time>2013-06-21T08:49:29Z</time>
      </trkpt>
      <trkpt lat="44.24657" lon="3.46838">
        <ele>1059</ele>
        <time>2013-06-21T08:49:53Z</time>
      </trkpt>
      <trkpt lat="44.24658" lon="3.46842">
        <ele>1059</ele>
        <time>2013-06-21T08:49:56Z</time>
      </trkpt>
      <trkpt lat="44.24658" lon="3.46849">
        <ele>1059</ele>
        <time>2013-06-21T08:50:00Z</time>
      </trkpt>
      <trkpt lat="44.24652" lon="3.46864">
        <ele>1060</ele>
        <time>2013-06-21T08:50:15Z</time>
      </trkpt>
      <trkpt lat="44.24646" lon="3.46873">
        <ele>1060</ele>
        <time>2013-06-21T08:50:33Z</time>
      </trkpt>
      <trkpt lat="44.24637" lon="3.46889">
        <ele>1061</ele>
        <time>2013-06-21T08:50:49Z</time>
      </trkpt>
      <trkpt lat="44.24629" lon="3.46907">
        <ele>1058</ele>
        <time>2013-06-21T08:51:05Z</time>
      </trkpt>
      <trkpt lat="44.24615" lon="3.46924">
        <ele>1054</ele>
        <time>2013-06-21T08:51:22Z</time>
      </trkpt>
      <trkpt lat="44.24603" lon="3.46934">
        <ele>1053</ele>
        <time>2013-06-21T08:51:37Z</time>
      </trkpt>
      <trkpt lat="44.24594" lon="3.46938">
        <ele>1054</ele>
        <time>2013-06-21T08:51:46Z</time>
      </trkpt>
      <trkpt lat="44.2459" lon="3.46946">
        <ele>1055</ele>
        <time>2013-06-21T08:52:05Z</time>
      </trkpt>
      <trkpt lat="44.2459" lon="3.46947">
        <ele>1055</ele>
        <time>2013-06-21T08:52:09Z</time>
      </trkpt>
      <trkpt lat="44.24577" lon="3.46959">
        <ele>1056</ele>
        <time>2013-06-21T08:52:25Z</time>
      </trkpt>
      <trkpt lat="44.24574" lon="3.46961">
        <ele>1056</ele>
        <time>2013-06-21T08:52:27Z</time>
      </trkpt>
      <trkpt lat="44.24564" lon="3.46976">
        <ele>1056</ele>
        <time>2013-06-21T08:52:43Z</time>
      </trkpt>
      <trkpt lat="44.24551" lon="3.46987">
        <ele>1056</ele>
        <time>2013-06-21T08:52:57Z</time>
      </trkpt>
      <trkpt lat="44.24551" lon="3.46987">
        <ele>1056</ele>
        <time>2013-06-21T08:52:58Z</time>
      </trkpt>
      <trkpt lat="44.24537" lon="3.47001">
        <ele>1056</ele>
        <time>2013-06-21T08:53:16Z</time>
      </trkpt>
      <trkpt lat="44.24529" lon="3.47015">
        <ele>1055</ele>
        <time>2013-06-21T08:53:37Z</time>
      </trkpt>
      <trkpt lat="44.24509" lon="3.47028">
        <ele>1054</ele>
        <time>2013-06-21T08:53:58Z</time>
      </trkpt>
      <trkpt lat="44.24495" lon="3.47048">
        <ele>1054</ele>
        <time>2013-06-21T08:54:15Z</time>
      </trkpt>
      <trkpt lat="44.24481" lon="3.47056">
        <ele>1053</ele>
        <time>2013-06-21T08:54:34Z</time>
      </trkpt>
      <trkpt lat="44.24472" lon="3.47061">
        <ele>1051</ele>
        <time>2013-06-21T08:54:53Z</time>
      </trkpt>
      <trkpt lat="44.24474" lon="3.47064">
        <ele>1051</ele>
        <time>2013-06-21T08:54:58Z</time>
      </trkpt>
      <trkpt lat="44.24456" lon="3.47064">
        <ele>1051</ele>
        <time>2013-06-21T08:55:13Z</time>
      </trkpt>
      <trkpt lat="44.24446" lon="3.47074">
        <ele>1049</ele>
        <time>2013-06-21T08:55:36Z</time>
      </trkpt>
      <trkpt lat="44.24433" lon="3.47091">
        <ele>1050</ele>
        <time>2013-06-21T08:55:58Z</time>
      </trkpt>
      <trkpt lat="44.24423" lon="3.471">
        <ele>1050</ele>
        <time>2013-06-21T08:56:09Z</time>
      </trkpt>
      <trkpt lat="44.24423" lon="3.47108">
        <ele>1051</ele>
        <time>2013-06-21T08:56:19Z</time>
      </trkpt>
      <trkpt lat="44.24412" lon="3.47107">
        <ele>1055</ele>
        <time>2013-06-21T08:56:30Z</time>
      </trkpt>
      <trkpt lat="44.244" lon="3.4711">
        <ele>1060</ele>
        <time>2013-06-21T08:56:45Z</time>
      </trkpt>
      <trkpt lat="44.24389" lon="3.47115">
        <ele>1070</ele>
        <time>2013-06-21T08:57:04Z</time>
      </trkpt>
      <trkpt lat="44.24387" lon="3.47113">
        <ele>1075</ele>
        <time>2013-06-21T08:57:20Z</time>
      </trkpt>
      <trkpt lat="44.24388" lon="3.47122">
        <ele>1078</ele>
        <time>2013-06-21T08:57:40Z</time>
      </trkpt>
      <trkpt lat="44.24386" lon="3.47129">
        <ele>1079</ele>
        <time>2013-06-21T08:58:14Z</time>
      </trkpt>
      <trkpt lat="44.24384" lon="3.47135">
        <ele>1082</ele>
        <time>2013-06-21T08:58:42Z</time>
      </trkpt>
      <trkpt lat="44.24388" lon="3.47153">
        <ele>1082</ele>
        <time>2013-06-21T08:58:58Z</time>
      </trkpt>
      <trkpt lat="44.24386" lon="3.4718">
        <ele>1082</ele>
        <time>2013-06-21T08:59:17Z</time>
      </trkpt>
      <trkpt lat="44.24379" lon="3.47205">
        <ele>1082</ele>
        <time>2013-06-21T08:59:39Z</time>
      </trkpt>
      <trkpt lat="44.2437" lon="3.47219">
        <ele>1084</ele>
        <time>2013-06-21T08:59:57Z</time>
      </trkpt>
      <trkpt lat="44.2437" lon="3.4723">
        <ele>1086</ele>
        <time>2013-06-21T09:00:12Z</time>
      </trkpt>
      <trkpt lat="44.24364" lon="3.47253">
        <ele>1091</ele>
        <time>2013-06-21T09:00:31Z</time>
      </trkpt>
      <trkpt lat="44.24355" lon="3.47269">
        <ele>1092</ele>
        <time>2013-06-21T09:00:44Z</time>
      </trkpt>
      <trkpt lat="44.2435" lon="3.47296">
        <ele>1093</ele>
        <time>2013-06-21T09:01:04Z</time>
      </trkpt>
      <trkpt lat="44.24346" lon="3.47307">
        <ele>1094</ele>
        <time>2013-06-21T09:01:19Z</time>
      </trkpt>
      <trkpt lat="44.24338" lon="3.47322">
        <ele>1098</ele>
        <time>2013-06-21T09:01:38Z</time>
      </trkpt>
      <trkpt lat="44.24335" lon="3.4734">
        <ele>1100</ele>
        <time>2013-06-21T09:01:50Z</time>
      </trkpt>
      <trkpt lat="44.24325" lon="3.47351">
        <ele>1105</ele>
        <time>2013-06-21T09:02:07Z</time>
      </trkpt>
      <trkpt lat="44.24324" lon="3.47353">
        <ele>1106</ele>
        <time>2013-06-21T09:02:09Z</time>
      </trkpt>
      <trkpt lat="44.24322" lon="3.47362">
        <ele>1108</ele>
        <time>2013-06-21T09:02:31Z</time>
      </trkpt>
      <trkpt lat="44.24318" lon="3.47368">
        <ele>1108</ele>
        <time>2013-06-21T09:03:11Z</time>
      </trkpt>
      <trkpt lat="44.24314" lon="3.47399">
        <ele>1109</ele>
        <time>2013-06-21T09:03:23Z</time>
      </trkpt>
      <trkpt lat="44.24314" lon="3.47405">
        <ele>1110</ele>
        <time>2013-06-21T09:03:28Z</time>
      </trkpt>
      <trkpt lat="44.24313" lon="3.47425">
        <ele>1117</ele>
        <time>2013-06-21T09:03:44Z</time>
      </trkpt>
      <trkpt lat="44.24311" lon="3.47438">
        <ele>1119</ele>
        <time>2013-06-21T09:03:51Z</time>
      </trkpt>
      <trkpt lat="44.2431" lon="3.47445">
        <ele>1121</ele>
        <time>2013-06-21T09:03:56Z</time>
      </trkpt>
      <trkpt lat="44.2431" lon="3.47457">
        <ele>1122</ele>
        <time>2013-06-21T09:04:12Z</time>
      </trkpt>
      <trkpt lat="44.2431" lon="3.47464">
        <ele>1122</ele>
        <time>2013-06-21T09:04:30Z</time>
      </trkpt>
      <trkpt lat="44.24316" lon="3.47477">
        <ele>1122</ele>
        <time>2013-06-21T09:04:45Z</time>
      </trkpt>
      <trkpt lat="44.24318" lon="3.47479">
        <ele>1122</ele>
        <time>2013-06-21T09:04:48Z</time>
      </trkpt>
      <trkpt lat="44.24318" lon="3.47479">
        <ele>1126</ele>
        <time>2013-06-21T09:05:01Z</time>
      </trkpt>
      <trkpt lat="44.24325" lon="3.47478">
        <ele>1127</ele>
        <time>2013-06-21T09:05:54Z</time>
      </trkpt>
      <trkpt lat="44.24326" lon="3.47487">
        <ele>1128</ele>
        <time>2013-06-21T09:06:25Z</time>
      </trkpt>
      <trkpt lat="44.24338" lon="3.47503">
        <ele>1121</ele>
        <time>2013-06-21T09:06:41Z</time>
      </trkpt>
      <trkpt lat="44.24349" lon="3.47513">
        <ele>1119</ele>
        <time>2013-06-21T09:06:54Z</time>
      </trkpt>
      <trkpt lat="44.24355" lon="3.47526">
        <ele>1117</ele>
        <time>2013-06-21T09:07:06Z</time>
      </trkpt>
      <trkpt lat="44.24353" lon="3.47538">
        <ele>1115</ele>
        <time>2013-06-21T09:07:22Z</time>
      </trkpt>
      <trkpt lat="44.24353" lon="3.47542">
        <ele>1114</ele>
        <time>2013-06-21T09:07:25Z</time>
      </trkpt>
      <trkpt lat="44.24349" lon="3.47549">
        <ele>1113</ele>
        <time>2013-06-21T09:07:39Z</time>
      </trkpt>
      <trkpt lat="44.24352" lon="3.4755">
        <ele>1113</ele>
        <time>2013-06-21T09:08:17Z</time>
      </trkpt>
      <trkpt lat="44.2436" lon="3.47556">
        <ele>1117</ele>
        <time>2013-06-21T09:08:25Z</time>
      </trkpt>
      <trkpt lat="44.24368" lon="3.47562">
        <ele>1117</ele>
        <time>2013-06-21T09:08:35Z</time>
      </trkpt>
      <trkpt lat="44.2437" lon="3.47573">
        <ele>1117</ele>
        <time>2013-06-21T09:08:42Z</time>
      </trkpt>
      <trkpt lat="44.24374" lon="3.47601">
        <ele>1118</ele>
        <time>2013-06-21T09:08:58Z</time>
      </trkpt>
      <trkpt lat="44.24382" lon="3.47629">
        <ele>1121</ele>
        <time>2013-06-21T09:09:14Z</time>
      </trkpt>
      <trkpt lat="44.24395" lon="3.47649">
        <ele>1124</ele>
        <time>2013-06-21T09:09:30Z</time>
      </trkpt>
      <trkpt lat="44.24414" lon="3.47659">
        <ele>1126</ele>
        <time>2013-06-21T09:09:46Z</time>
      </trkpt>
      <trkpt lat="44.24437" lon="3.47667">
        <ele>1128</ele>
        <time>2013-06-21T09:10:05Z</time>
      </trkpt>
      <trkpt lat="44.24452" lon="3.47674">
        <ele>1131</ele>
        <time>2013-06-21T09:10:19Z</time>
      </trkpt>
      <trkpt lat="44.24456" lon="3.47677">
        <ele>1131</ele>
        <time>2013-06-21T09:10:23Z</time>
      </trkpt>
      <trkpt lat="44.24463" lon="3.47699">
        <ele>1134</ele>
        <time>2013-06-21T09:10:38Z</time>
      </trkpt>
      <trkpt lat="44.24463" lon="3.47716">
        <ele>1134</ele>
        <time>2013-06-21T09:10:53Z</time>
      </trkpt>
      <trkpt lat="44.24465" lon="3.47728">
        <ele>1132</ele>
        <time>2013-06-21T09:11:02Z</time>
      </trkpt>
      <trkpt lat="44.24465" lon="3.47731">
        <ele>1132</ele>
        <time>2013-06-21T09:11:04Z</time>
      </trkpt>
      <trkpt lat="44.24466" lon="3.47734">
        <ele>1133</ele>
        <time>2013-06-21T09:11:06Z</time>
      </trkpt>
      <trkpt lat="44.24469" lon="3.47751">
        <ele>1134</ele>
        <time>2013-06-21T09:11:18Z</time>
      </trkpt>
      <trkpt lat="44.24475" lon="3.47771">
        <ele>1136</ele>
        <time>2013-06-21T09:11:31Z</time>
      </trkpt>
      <trkpt lat="44.24478" lon="3.47788">
        <ele>1137</ele>
        <time>2013-06-21T09:11:44Z</time>
      </trkpt>
      <trkpt lat="44.24483" lon="3.47792">
        <ele>1138</ele>
        <time>2013-06-21T09:12:05Z</time>
      </trkpt>
      <trkpt lat="44.24494" lon="3.478">
        <ele>1137</ele>
        <time>2013-06-21T09:12:21Z</time>
      </trkpt>
      <trkpt lat="44.24509" lon="3.47812">
        <ele>1137</ele>
        <time>2013-06-21T09:12:36Z</time>
      </trkpt>
      <trkpt lat="44.24515" lon="3.47831">
        <ele>1139</ele>
        <time>2013-06-21T09:12:51Z</time>
      </trkpt>
      <trkpt lat="44.24515" lon="3.47833">
        <ele>1139</ele>
        <time>2013-06-21T09:12:52Z</time>
      </trkpt>
      <trkpt lat="44.24519" lon="3.4785">
        <ele>1141</ele>
        <time>2013-06-21T09:13:03Z</time>
      </trkpt>
      <trkpt lat="44.24525" lon="3.47865">
        <ele>1142</ele>
        <time>2013-06-21T09:13:16Z</time>
      </trkpt>
      <trkpt lat="44.24531" lon="3.47874">
        <ele>1141</ele>
        <time>2013-06-21T09:13:24Z</time>
      </trkpt>
      <trkpt lat="44.24541" lon="3.47889">
        <ele>1140</ele>
        <time>2013-06-21T09:13:38Z</time>
      </trkpt>
      <trkpt lat="44.24553" lon="3.47902">
        <ele>1141</ele>
        <time>2013-06-21T09:13:53Z</time>
      </trkpt>
      <trkpt lat="44.24569" lon="3.47912">
        <ele>1138</ele>
        <time>2013-06-21T09:14:09Z</time>
      </trkpt>
      <trkpt lat="44.24579" lon="3.47928">
        <ele>1137</ele>
        <time>2013-06-21T09:14:24Z</time>
      </trkpt>
      <trkpt lat="44.24583" lon="3.47935">
        <ele>1137</ele>
        <time>2013-06-21T09:14:29Z</time>
      </trkpt>
      <trkpt lat="44.24597" lon="3.47949">
        <ele>1136</ele>
        <time>2013-06-21T09:14:46Z</time>
      </trkpt>
      <trkpt lat="44.24613" lon="3.47957">
        <ele>1135</ele>
        <time>2013-06-21T09:15:00Z</time>
      </trkpt>
      <trkpt lat="44.24617" lon="3.4796">
        <ele>1135</ele>
        <time>2013-06-21T09:15:03Z</time>
      </trkpt>
      <trkpt lat="44.24632" lon="3.47968">
        <ele>1133</ele>
        <time>2013-06-21T09:15:17Z</time>
      </trkpt>
      <trkpt lat="44.24632" lon="3.47971">
        <ele>1134</ele>
        <time>2013-06-21T09:15:19Z</time>
      </trkpt>
      <trkpt lat="44.24634" lon="3.47973">
        <ele>1133</ele>
        <time>2013-06-21T09:15:21Z</time>
      </trkpt>
      <trkpt lat="44.24643" lon="3.47982">
        <ele>1133</ele>
        <time>2013-06-21T09:15:32Z</time>
      </trkpt>
      <trkpt lat="44.24651" lon="3.47994">
        <ele>1134</ele>
        <time>2013-06-21T09:15:41Z</time>
      </trkpt>
      <trkpt lat="44.24662" lon="3.48003">
        <ele>1135</ele>
        <time>2013-06-21T09:15:53Z</time>
      </trkpt>
      <trkpt lat="44.24666" lon="3.48011">
        <ele>1135</ele>
        <time>2013-06-21T09:15:58Z</time>
      </trkpt>
      <trkpt lat="44.2467" lon="3.48014">
        <ele>1136</ele>
        <time>2013-06-21T09:16:01Z</time>
      </trkpt>
      <trkpt lat="44.2468" lon="3.48023">
        <ele>1139</ele>
        <time>2013-06-21T09:16:11Z</time>
      </trkpt>
      <trkpt lat="44.24686" lon="3.4803">
        <ele>1141</ele>
        <time>2013-06-21T09:16:18Z</time>
      </trkpt>
      <trkpt lat="44.2469" lon="3.48035">
        <ele>1142</ele>
        <time>2013-06-21T09:16:22Z</time>
      </trkpt>
      <trkpt lat="44.24694" lon="3.48039">
        <ele>1143</ele>
        <time>2013-06-21T09:16:26Z</time>
      </trkpt>
      <trkpt lat="44.24706" lon="3.48056">
        <ele>1147</ele>
        <time>2013-06-21T09:16:38Z</time>
      </trkpt>
      <trkpt lat="44.24714" lon="3.48077">
        <ele>1151</ele>
        <time>2013-06-21T09:16:52Z</time>
      </trkpt>
      <trkpt lat="44.24716" lon="3.48081">
        <ele>1151</ele>
        <time>2013-06-21T09:16:55Z</time>
      </trkpt>
      <trkpt lat="44.24718" lon="3.48098">
        <ele>1154</ele>
        <time>2013-06-21T09:17:10Z</time>
      </trkpt>
      <trkpt lat="44.24718" lon="3.48101">
        <ele>1154</ele>
        <time>2013-06-21T09:17:12Z</time>
      </trkpt>
      <trkpt lat="44.2473" lon="3.4808">
        <ele>1152</ele>
        <time>2013-06-21T09:17:26Z</time>
      </trkpt>
      <trkpt lat="44.24728" lon="3.48083">
        <ele>1153</ele>
        <time>2013-06-21T09:17:49Z</time>
      </trkpt>
      <trkpt lat="44.24726" lon="3.48102">
        <ele>1155</ele>
        <time>2013-06-21T09:17:57Z</time>
      </trkpt>
      <trkpt lat="44.24727" lon="3.48123">
        <ele>1157</ele>
        <time>2013-06-21T09:18:08Z</time>
      </trkpt>
      <trkpt lat="44.24738" lon="3.48135">
        <ele>1157</ele>
        <time>2013-06-21T09:18:18Z</time>
      </trkpt>
      <trkpt lat="44.24752" lon="3.4815">
        <ele>1155</ele>
        <time>2013-06-21T09:18:32Z</time>
      </trkpt>
      <trkpt lat="44.24762" lon="3.48164">
        <ele>1155</ele>
        <time>2013-06-21T09:18:45Z</time>
      </trkpt>
      <trkpt lat="44.24768" lon="3.48176">
        <ele>1153</ele>
        <time>2013-06-21T09:18:57Z</time>
      </trkpt>
      <trkpt lat="44.24769" lon="3.48177">
        <ele>1147</ele>
        <time>2013-06-21T09:19:04Z</time>
      </trkpt>
      <trkpt lat="44.2477" lon="3.4818">
        <ele>1147</ele>
        <time>2013-06-21T09:19:07Z</time>
      </trkpt>
      <trkpt lat="44.24771" lon="3.48185">
        <ele>1146</ele>
        <time>2013-06-21T09:19:10Z</time>
      </trkpt>
      <trkpt lat="44.24773" lon="3.48187">
        <ele>1146</ele>
        <time>2013-06-21T09:19:12Z</time>
      </trkpt>
      <trkpt lat="44.24776" lon="3.48197">
        <ele>1147</ele>
        <time>2013-06-21T09:19:28Z</time>
      </trkpt>
      <trkpt lat="44.24781" lon="3.48203">
        <ele>1142</ele>
        <time>2013-06-21T09:20:14Z</time>
      </trkpt>
      <trkpt lat="44.24784" lon="3.48199">
        <ele>1136</ele>
        <time>2013-06-21T09:20:38Z</time>
      </trkpt>
      <trkpt lat="44.248" lon="3.482">
        <ele>1134</ele>
        <time>2013-06-21T09:21:44Z</time>
      </trkpt>
      <trkpt lat="44.24803" lon="3.48201">
        <ele>1134</ele>
        <time>2013-06-21T09:21:48Z</time>
      </trkpt>
      <trkpt lat="44.24809" lon="3.48208">
        <ele>1136</ele>
        <time>2013-06-21T09:21:54Z</time>
      </trkpt>
      <trkpt lat="44.24813" lon="3.48212">
        <ele>1137</ele>
        <time>2013-06-21T09:21:58Z</time>
      </trkpt>
      <trkpt lat="44.24816" lon="3.48213">
        <ele>1138</ele>
        <time>2013-06-21T09:22:01Z</time>
      </trkpt>
      <trkpt lat="44.24826" lon="3.48231">
        <ele>1145</ele>
        <time>2013-06-21T09:22:16Z</time>
      </trkpt>
      <trkpt lat="44.24832" lon="3.48242">
        <ele>1145</ele>
        <time>2013-06-21T09:22:25Z</time>
      </trkpt>
      <trkpt lat="44.24837" lon="3.48257">
        <ele>1146</ele>
        <time>2013-06-21T09:22:42Z</time>
      </trkpt>
      <trkpt lat="44.24835" lon="3.48258">
        <ele>1146</ele>
        <time>2013-06-21T09:23:05Z</time>
      </trkpt>
      <trkpt lat="44.24838" lon="3.48258">
        <ele>1144</ele>
        <time>2013-06-21T09:23:29Z</time>
      </trkpt>
      <trkpt lat="44.24835" lon="3.48256">
        <ele>1144</ele>
        <time>2013-06-21T09:23:51Z</time>
      </trkpt>
      <trkpt lat="44.2483" lon="3.4825">
        <ele>1147</ele>
        <time>2013-06-21T09:24:08Z</time>
      </trkpt>
      <trkpt lat="44.24841" lon="3.48253">
        <ele>1149</ele>
        <time>2013-06-21T09:26:09Z</time>
      </trkpt>
      <trkpt lat="44.24856" lon="3.48261">
        <ele>1148</ele>
        <time>2013-06-21T09:26:24Z</time>
      </trkpt>
      <trkpt lat="44.24867" lon="3.48263">
        <ele>1146</ele>
        <time>2013-06-21T09:26:38Z</time>
      </trkpt>
      <trkpt lat="44.24869" lon="3.48266">
        <ele>1144</ele>
        <time>2013-06-21T09:26:41Z</time>
      </trkpt>
      <trkpt lat="44.24871" lon="3.48276">
        <ele>1142</ele>
        <time>2013-06-21T09:26:49Z</time>
      </trkpt>
      <trkpt lat="44.2488" lon="3.4829">
        <ele>1142</ele>
        <time>2013-06-21T09:27:04Z</time>
      </trkpt>
      <trkpt lat="44.24882" lon="3.48295">
        <ele>1142</ele>
        <time>2013-06-21T09:27:27Z</time>
      </trkpt>
      <trkpt lat="44.24891" lon="3.48313">
        <ele>1140</ele>
        <time>2013-06-21T09:29:22Z</time>
      </trkpt>
      <trkpt lat="44.24894" lon="3.48318">
        <ele>1137</ele>
        <time>2013-06-21T09:30:00Z</time>
      </trkpt>
      <trkpt lat="44.24897" lon="3.48331">
        <ele>1136</ele>
        <time>2013-06-21T09:30:32Z</time>
      </trkpt>
      <trkpt lat="44.24907" lon="3.48335">
        <ele>1144</ele>
        <time>2013-06-21T09:31:00Z</time>
      </trkpt>
      <trkpt lat="44.24908" lon="3.48337">
        <ele>1143</ele>
        <time>2013-06-21T09:31:13Z</time>
      </trkpt>
      <trkpt lat="44.24913" lon="3.48338">
        <ele>1142</ele>
        <time>2013-06-21T09:31:56Z</time>
      </trkpt>
      <trkpt lat="44.24913" lon="3.48346">
        <ele>1143</ele>
        <time>2013-06-21T09:32:12Z</time>
      </trkpt>
      <trkpt lat="44.24917" lon="3.48352">
        <ele>1144</ele>
        <time>2013-06-21T09:32:18Z</time>
      </trkpt>
      <trkpt lat="44.24923" lon="3.48363">
        <ele>1145</ele>
        <time>2013-06-21T09:32:28Z</time>
      </trkpt>
      <trkpt lat="44.24932" lon="3.48373">
        <ele>1147</ele>
        <time>2013-06-21T09:32:39Z</time>
      </trkpt>
      <trkpt lat="44.24938" lon="3.48379">
        <ele>1149</ele>
        <time>2013-06-21T09:32:48Z</time>
      </trkpt>
      <trkpt lat="44.24941" lon="3.48385">
        <ele>1151</ele>
        <time>2013-06-21T09:33:01Z</time>
      </trkpt>
      <trkpt lat="44.24945" lon="3.4839">
        <ele>1149</ele>
        <time>2013-06-21T09:33:21Z</time>
      </trkpt>
      <trkpt lat="44.24948" lon="3.48398">
        <ele>1147</ele>
        <time>2013-06-21T09:33:29Z</time>
      </trkpt>
      <trkpt lat="44.24949" lon="3.48418">
        <ele>1145</ele>
        <time>2013-06-21T09:33:44Z</time>
      </trkpt>
      <trkpt lat="44.24949" lon="3.48423">
        <ele>1145</ele>
        <time>2013-06-21T09:33:48Z</time>
      </trkpt>
      <trkpt lat="44.24948" lon="3.48439">
        <ele>1145</ele>
        <time>2013-06-21T09:34:02Z</time>
      </trkpt>
      <trkpt lat="44.24944" lon="3.48456">
        <ele>1144</ele>
        <time>2013-06-21T09:34:16Z</time>
      </trkpt>
      <trkpt lat="44.24942" lon="3.48462">
        <ele>1143</ele>
        <time>2013-06-21T09:34:34Z</time>
      </trkpt>
      <trkpt lat="44.2494" lon="3.48476">
        <ele>1145</ele>
        <time>2013-06-21T09:35:33Z</time>
      </trkpt>
      <trkpt lat="44.24937" lon="3.48489">
        <ele>1149</ele>
        <time>2013-06-21T09:35:43Z</time>
      </trkpt>
      <trkpt lat="44.24933" lon="3.48506">
        <ele>1154</ele>
        <time>2013-06-21T09:35:54Z</time>
      </trkpt>
      <trkpt lat="44.24924" lon="3.48519">
        <ele>1158</ele>
        <time>2013-06-21T09:36:07Z</time>
      </trkpt>
      <trkpt lat="44.24919" lon="3.48529">
        <ele>1160</ele>
        <time>2013-06-21T09:36:25Z</time>
      </trkpt>
      <trkpt lat="44.24916" lon="3.48536">
        <ele>1162</ele>
        <time>2013-06-21T09:36:45Z</time>
      </trkpt>
      <trkpt lat="44.24915" lon="3.48535">
        <ele>1162</ele>
        <time>2013-06-21T09:37:01Z</time>
      </trkpt>
      <trkpt lat="44.24903" lon="3.48548">
        <ele>1162</ele>
        <time>2013-06-21T09:37:15Z</time>
      </trkpt>
      <trkpt lat="44.24899" lon="3.48555">
        <ele>1163</ele>
        <time>2013-06-21T09:37:31Z</time>
      </trkpt>
      <trkpt lat="44.24898" lon="3.48555">
        <ele>1164</ele>
        <time>2013-06-21T09:37:32Z</time>
      </trkpt>
      <trkpt lat="44.24885" lon="3.48563">
        <ele>1165</ele>
        <time>2013-06-21T09:37:47Z</time>
      </trkpt>
      <trkpt lat="44.24873" lon="3.4857">
        <ele>1169</ele>
        <time>2013-06-21T09:38:00Z</time>
      </trkpt>
      <trkpt lat="44.24862" lon="3.48579">
        <ele>1167</ele>
        <time>2013-06-21T09:38:13Z</time>
      </trkpt>
      <trkpt lat="44.2486" lon="3.48581">
        <ele>1167</ele>
        <time>2013-06-21T09:38:16Z</time>
      </trkpt>
      <trkpt lat="44.24858" lon="3.48582">
        <ele>1167</ele>
        <time>2013-06-21T09:38:19Z</time>
      </trkpt>
      <trkpt lat="44.2485" lon="3.48586">
        <ele>1167</ele>
        <time>2013-06-21T09:38:27Z</time>
      </trkpt>
      <trkpt lat="44.24845" lon="3.48591">
        <ele>1166</ele>
        <time>2013-06-21T09:38:31Z</time>
      </trkpt>
      <trkpt lat="44.24838" lon="3.48593">
        <ele>1168</ele>
        <time>2013-06-21T09:38:38Z</time>
      </trkpt>
      <trkpt lat="44.24827" lon="3.48599">
        <ele>1169</ele>
        <time>2013-06-21T09:38:52Z</time>
      </trkpt>
      <trkpt lat="44.24815" lon="3.48605">
        <ele>1167</ele>
        <time>2013-06-21T09:39:05Z</time>
      </trkpt>
      <trkpt lat="44.24813" lon="3.48611">
        <ele>1165</ele>
        <time>2013-06-21T09:39:25Z</time>
      </trkpt>
      <trkpt lat="44.24804" lon="3.48629">
        <ele>1159</ele>
        <time>2013-06-21T09:39:40Z</time>
      </trkpt>
      <trkpt lat="44.24799" lon="3.48644">
        <ele>1156</ele>
        <time>2013-06-21T09:39:55Z</time>
      </trkpt>
      <trkpt lat="44.24794" lon="3.48659">
        <ele>1155</ele>
        <time>2013-06-21T09:40:31Z</time>
      </trkpt>
      <trkpt lat="44.24792" lon="3.48663">
        <ele>1154</ele>
        <time>2013-06-21T09:40:39Z</time>
      </trkpt>
      <trkpt lat="44.24792" lon="3.48666">
        <ele>1153</ele>
        <time>2013-06-21T09:40:41Z</time>
      </trkpt>
      <trkpt lat="44.2479" lon="3.48668">
        <ele>1153</ele>
        <time>2013-06-21T09:40:43Z</time>
      </trkpt>
      <trkpt lat="44.24782" lon="3.48687">
        <ele>1153</ele>
        <time>2013-06-21T09:40:58Z</time>
      </trkpt>
      <trkpt lat="44.2478" lon="3.48692">
        <ele>1153</ele>
        <time>2013-06-21T09:41:03Z</time>
      </trkpt>
      <trkpt lat="44.2477" lon="3.48711">
        <ele>1154</ele>
        <time>2013-06-21T09:41:18Z</time>
      </trkpt>
      <trkpt lat="44.24759" lon="3.48724">
        <ele>1154</ele>
        <time>2013-06-21T09:41:32Z</time>
      </trkpt>
      <trkpt lat="44.24752" lon="3.48729">
        <ele>1154</ele>
        <time>2013-06-21T09:41:39Z</time>
      </trkpt>
      <trkpt lat="44.24743" lon="3.4874">
        <ele>1153</ele>
        <time>2013-06-21T09:41:49Z</time>
      </trkpt>
      <trkpt lat="44.24728" lon="3.48758">
        <ele>1147</ele>
        <time>2013-06-21T09:42:08Z</time>
      </trkpt>
      <trkpt lat="44.24713" lon="3.48773">
        <ele>1147</ele>
        <time>2013-06-21T09:42:25Z</time>
      </trkpt>
      <trkpt lat="44.24695" lon="3.48778">
        <ele>1143</ele>
        <time>2013-06-21T09:42:41Z</time>
      </trkpt>
      <trkpt lat="44.24676" lon="3.48782">
        <ele>1143</ele>
        <time>2013-06-21T09:42:59Z</time>
      </trkpt>
      <trkpt lat="44.24659" lon="3.48788">
        <ele>1141</ele>
        <time>2013-06-21T09:43:14Z</time>
      </trkpt>
      <trkpt lat="44.24646" lon="3.48788">
        <ele>1140</ele>
        <time>2013-06-21T09:43:29Z</time>
      </trkpt>
      <trkpt lat="44.24645" lon="3.48788">
        <ele>1140</ele>
        <time>2013-06-21T09:43:30Z</time>
      </trkpt>
      <trkpt lat="44.24632" lon="3.48787">
        <ele>1138</ele>
        <time>2013-06-21T09:43:46Z</time>
      </trkpt>
      <trkpt lat="44.24631" lon="3.48789">
        <ele>1138</ele>
        <time>2013-06-21T09:43:48Z</time>
      </trkpt>
      <trkpt lat="44.24631" lon="3.48807">
        <ele>1136</ele>
        <time>2013-06-21T09:44:05Z</time>
      </trkpt>
      <trkpt lat="44.24635" lon="3.48818">
        <ele>1136</ele>
        <time>2013-06-21T09:44:26Z</time>
      </trkpt>
      <trkpt lat="44.2464" lon="3.48835">
        <ele>1134</ele>
        <time>2013-06-21T09:45:10Z</time>
      </trkpt>
      <trkpt lat="44.24641" lon="3.4884">
        <ele>1134</ele>
        <time>2013-06-21T09:45:13Z</time>
      </trkpt>
      <trkpt lat="44.24644" lon="3.48869">
        <ele>1128</ele>
        <time>2013-06-21T09:45:30Z</time>
      </trkpt>
      <trkpt lat="44.2464" lon="3.48887">
        <ele>1125</ele>
        <time>2013-06-21T09:45:40Z</time>
      </trkpt>
      <trkpt lat="44.24633" lon="3.48904">
        <ele>1123</ele>
        <time>2013-06-21T09:45:52Z</time>
      </trkpt>
      <trkpt lat="44.24627" lon="3.48928">
        <ele>1119</ele>
        <time>2013-06-21T09:46:06Z</time>
      </trkpt>
      <trkpt lat="44.24619" lon="3.48951">
        <ele>1114</ele>
        <time>2013-06-21T09:46:24Z</time>
      </trkpt>
      <trkpt lat="44.24612" lon="3.48974">
        <ele>1117</ele>
        <time>2013-06-21T09:46:38Z</time>
      </trkpt>
      <trkpt lat="44.24608" lon="3.48994">
        <ele>1115</ele>
        <time>2013-06-21T09:46:48Z</time>
      </trkpt>
      <trkpt lat="44.24607" lon="3.49">
        <ele>1114</ele>
        <time>2013-06-21T09:46:52Z</time>
      </trkpt>
      <trkpt lat="44.24598" lon="3.49024">
        <ele>1126</ele>
        <time>2013-06-21T09:47:09Z</time>
      </trkpt>
      <trkpt lat="44.2459" lon="3.49048">
        <ele>1129</ele>
        <time>2013-06-21T09:47:23Z</time>
      </trkpt>
      <trkpt lat="44.24578" lon="3.49069">
        <ele>1131</ele>
        <time>2013-06-21T09:47:38Z</time>
      </trkpt>
      <trkpt lat="44.24568" lon="3.49087">
        <ele>1133</ele>
        <time>2013-06-21T09:47:54Z</time>
      </trkpt>
      <trkpt lat="44.24562" lon="3.49101">
        <ele>1131</ele>
        <time>2013-06-21T09:48:06Z</time>
      </trkpt>
      <trkpt lat="44.24558" lon="3.49109">
        <ele>1129</ele>
        <time>2013-06-21T09:48:21Z</time>
      </trkpt>
      <trkpt lat="44.24559" lon="3.49115">
        <ele>1130</ele>
        <time>2013-06-21T09:48:52Z</time>
      </trkpt>
      <trkpt lat="44.24564" lon="3.49129">
        <ele>1130</ele>
        <time>2013-06-21T09:49:07Z</time>
      </trkpt>
      <trkpt lat="44.24579" lon="3.49141">
        <ele>1131</ele>
        <time>2013-06-21T09:49:32Z</time>
      </trkpt>
      <trkpt lat="44.24595" lon="3.49139">
        <ele>1127</ele>
        <time>2013-06-21T09:49:47Z</time>
      </trkpt>
      <trkpt lat="44.24603" lon="3.49139">
        <ele>1125</ele>
        <time>2013-06-21T09:49:55Z</time>
      </trkpt>
      <trkpt lat="44.2462" lon="3.4914">
        <ele>1124</ele>
        <time>2013-06-21T09:50:08Z</time>
      </trkpt>
      <trkpt lat="44.24635" lon="3.49142">
        <ele>1126</ele>
        <time>2013-06-21T09:50:21Z</time>
      </trkpt>
      <trkpt lat="44.2464" lon="3.49144">
        <ele>1128</ele>
        <time>2013-06-21T09:50:26Z</time>
      </trkpt>
      <trkpt lat="44.24658" lon="3.49148">
        <ele>1133</ele>
        <time>2013-06-21T09:50:45Z</time>
      </trkpt>
      <trkpt lat="44.24674" lon="3.49151">
        <ele>1133</ele>
        <time>2013-06-21T09:51:01Z</time>
      </trkpt>
      <trkpt lat="44.24692" lon="3.49153">
        <ele>1134</ele>
        <time>2013-06-21T09:51:18Z</time>
      </trkpt>
      <trkpt lat="44.24715" lon="3.49158">
        <ele>1132</ele>
        <time>2013-06-21T09:51:38Z</time>
      </trkpt>
      <trkpt lat="44.24738" lon="3.49163">
        <ele>1128</ele>
        <time>2013-06-21T09:51:57Z</time>
      </trkpt>
      <trkpt lat="44.24755" lon="3.49169">
        <ele>1127</ele>
        <time>2013-06-21T09:52:12Z</time>
      </trkpt>
      <trkpt lat="44.24755" lon="3.4917">
        <ele>1127</ele>
        <time>2013-06-21T09:52:13Z</time>
      </trkpt>
      <trkpt lat="44.24762" lon="3.49175">
        <ele>1127</ele>
        <time>2013-06-21T09:52:19Z</time>
      </trkpt>
      <trkpt lat="44.24766" lon="3.49187">
        <ele>1127</ele>
        <time>2013-06-21T09:52:27Z</time>
      </trkpt>
      <trkpt lat="44.24777" lon="3.49213">
        <ele>1127</ele>
        <time>2013-06-21T09:52:44Z</time>
      </trkpt>
      <trkpt lat="44.2478" lon="3.49219">
        <ele>1127</ele>
        <time>2013-06-21T09:52:48Z</time>
      </trkpt>
      <trkpt lat="44.24782" lon="3.49231">
        <ele>1128</ele>
        <time>2013-06-21T09:52:56Z</time>
      </trkpt>
      <trkpt lat="44.24786" lon="3.49244">
        <ele>1129</ele>
        <time>2013-06-21T09:53:03Z</time>
      </trkpt>
      <trkpt lat="44.24792" lon="3.49251">
        <ele>1128</ele>
        <time>2013-06-21T09:53:10Z</time>
      </trkpt>
      <trkpt lat="44.24791" lon="3.49252">
        <ele>1126</ele>
        <time>2013-06-21T09:53:26Z</time>
      </trkpt>
      <trkpt lat="44.24793" lon="3.49257">
        <ele>1126</ele>
        <time>2013-06-21T09:53:30Z</time>
      </trkpt>
      <trkpt lat="44.24797" lon="3.49266">
        <ele>1129</ele>
        <time>2013-06-21T09:53:44Z</time>
      </trkpt>
      <trkpt lat="44.24799" lon="3.49275">
        <ele>1130</ele>
        <time>2013-06-21T09:54:58Z</time>
      </trkpt>
      <trkpt lat="44.24809" lon="3.49285">
        <ele>1128</ele>
        <time>2013-06-21T09:55:14Z</time>
      </trkpt>
      <trkpt lat="44.24822" lon="3.49308">
        <ele>1132</ele>
        <time>2013-06-21T09:56:11Z</time>
      </trkpt>
      <trkpt lat="44.24832" lon="3.49321">
        <ele>1134</ele>
        <time>2013-06-21T09:56:23Z</time>
      </trkpt>
      <trkpt lat="44.24846" lon="3.4934">
        <ele>1138</ele>
        <time>2013-06-21T09:56:38Z</time>
      </trkpt>
      <trkpt lat="44.24848" lon="3.49343">
        <ele>1138</ele>
        <time>2013-06-21T09:56:41Z</time>
      </trkpt>
      <trkpt lat="44.24862" lon="3.49364">
        <ele>1136</ele>
        <time>2013-06-21T09:56:57Z</time>
      </trkpt>
      <trkpt lat="44.24875" lon="3.49384">
        <ele>1127</ele>
        <time>2013-06-21T09:57:13Z</time>
      </trkpt>
      <trkpt lat="44.24884" lon="3.49402">
        <ele>1122</ele>
        <time>2013-06-21T09:57:27Z</time>
      </trkpt>
      <trkpt lat="44.24888" lon="3.49414">
        <ele>1117</ele>
        <time>2013-06-21T09:57:38Z</time>
      </trkpt>
      <trkpt lat="44.24903" lon="3.49429">
        <ele>1110</ele>
        <time>2013-06-21T09:57:55Z</time>
      </trkpt>
      <trkpt lat="44.24913" lon="3.49449">
        <ele>1107</ele>
        <time>2013-06-21T09:58:09Z</time>
      </trkpt>
      <trkpt lat="44.24926" lon="3.49467">
        <ele>1103</ele>
        <time>2013-06-21T09:58:24Z</time>
      </trkpt>
      <trkpt lat="44.24941" lon="3.49475">
        <ele>1100</ele>
        <time>2013-06-21T09:58:38Z</time>
      </trkpt>
      <trkpt lat="44.24961" lon="3.49484">
        <ele>1097</ele>
        <time>2013-06-21T09:59:01Z</time>
      </trkpt>
      <trkpt lat="44.24985" lon="3.49487">
        <ele>1094</ele>
        <time>2013-06-21T09:59:19Z</time>
      </trkpt>
      <trkpt lat="44.25005" lon="3.49491">
        <ele>1096</ele>
        <time>2013-06-21T09:59:37Z</time>
      </trkpt>
      <trkpt lat="44.2502" lon="3.49492">
        <ele>1098</ele>
        <time>2013-06-21T09:59:54Z</time>
      </trkpt>
      <trkpt lat="44.25036" lon="3.49497">
        <ele>1104</ele>
        <time>2013-06-21T10:00:12Z</time>
      </trkpt>
      <trkpt lat="44.25037" lon="3.49497">
        <ele>1104</ele>
        <time>2013-06-21T10:00:13Z</time>
      </trkpt>
      <trkpt lat="44.25055" lon="3.49504">
        <ele>1110</ele>
        <time>2013-06-21T10:00:27Z</time>
      </trkpt>
      <trkpt lat="44.25059" lon="3.49503">
        <ele>1113</ele>
        <time>2013-06-21T10:00:31Z</time>
      </trkpt>
      <trkpt lat="44.25073" lon="3.49509">
        <ele>1115</ele>
        <time>2013-06-21T10:00:46Z</time>
      </trkpt>
      <trkpt lat="44.25076" lon="3.49511">
        <ele>1116</ele>
        <time>2013-06-21T10:00:50Z</time>
      </trkpt>
      <trkpt lat="44.2508" lon="3.49509">
        <ele>1116</ele>
        <time>2013-06-21T10:00:53Z</time>
      </trkpt>
      <trkpt lat="44.25091" lon="3.49509">
        <ele>1119</ele>
        <time>2013-06-21T10:01:05Z</time>
      </trkpt>
      <trkpt lat="44.251" lon="3.4951">
        <ele>1120</ele>
        <time>2013-06-21T10:01:11Z</time>
      </trkpt>
      <trkpt lat="44.2511" lon="3.49515">
        <ele>1121</ele>
        <time>2013-06-21T10:01:17Z</time>
      </trkpt>
      <trkpt lat="44.25111" lon="3.49512">
        <ele>1123</ele>
        <time>2013-06-21T10:01:23Z</time>
      </trkpt>
      <trkpt lat="44.25137" lon="3.4952">
        <ele>1125</ele>
        <time>2013-06-21T10:01:38Z</time>
      </trkpt>
      <trkpt lat="44.25157" lon="3.49519">
        <ele>1129</ele>
        <time>2013-06-21T10:01:54Z</time>
      </trkpt>
      <trkpt lat="44.25168" lon="3.49509">
        <ele>1122</ele>
        <time>2013-06-21T10:02:09Z</time>
      </trkpt>
      <trkpt lat="44.25174" lon="3.49503">
        <ele>1120</ele>
        <time>2013-06-21T10:02:22Z</time>
      </trkpt>
      <trkpt lat="44.2518" lon="3.49493">
        <ele>1119</ele>
        <time>2013-06-21T10:02:29Z</time>
      </trkpt>
      <trkpt lat="44.25176" lon="3.49477">
        <ele>1117</ele>
        <time>2013-06-21T10:02:42Z</time>
      </trkpt>
      <trkpt lat="44.25184" lon="3.49452">
        <ele>1115</ele>
        <time>2013-06-21T10:03:05Z</time>
      </trkpt>
      <trkpt lat="44.25188" lon="3.49443">
        <ele>1115</ele>
        <time>2013-06-21T10:03:09Z</time>
      </trkpt>
      <trkpt lat="44.25193" lon="3.49431">
        <ele>1115</ele>
        <time>2013-06-21T10:03:23Z</time>
      </trkpt>
      <trkpt lat="44.25199" lon="3.49425">
        <ele>1115</ele>
        <time>2013-06-21T10:03:37Z</time>
      </trkpt>
      <trkpt lat="44.25207" lon="3.49422">
        <ele>1115</ele>
        <time>2013-06-21T10:03:41Z</time>
      </trkpt>
      <trkpt lat="44.25228" lon="3.49394">
        <ele>1116</ele>
        <time>2013-06-21T10:04:03Z</time>
      </trkpt>
      <trkpt lat="44.25245" lon="3.4937">
        <ele>1116</ele>
        <time>2013-06-21T10:04:25Z</time>
      </trkpt>
      <trkpt lat="44.25244" lon="3.49372">
        <ele>1116</ele>
        <time>2013-06-21T10:04:51Z</time>
      </trkpt>
      <trkpt lat="44.25265" lon="3.49364">
        <ele>1116</ele>
        <time>2013-06-21T10:05:19Z</time>
      </trkpt>
      <trkpt lat="44.253" lon="3.49328">
        <ele>1116</ele>
        <time>2013-06-21T10:05:46Z</time>
      </trkpt>
      <trkpt lat="44.25313" lon="3.4932">
        <ele>1117</ele>
        <time>2013-06-21T10:06:08Z</time>
      </trkpt>
      <trkpt lat="44.2532" lon="3.49326">
        <ele>1117</ele>
        <time>2013-06-21T10:06:26Z</time>
      </trkpt>
      <trkpt lat="44.25323" lon="3.49323">
        <ele>1116</ele>
        <time>2013-06-21T10:07:24Z</time>
      </trkpt>
      <trkpt lat="44.25335" lon="3.49324">
        <ele>1118</ele>
        <time>2013-06-21T10:08:19Z</time>
      </trkpt>
      <trkpt lat="44.2532" lon="3.49315">
        <ele>1114</ele>
        <time>2013-06-21T10:25:46Z</time>
      </trkpt>
      <trkpt lat="44.25314" lon="3.49312">
        <ele>1108</ele>
        <time>2013-06-21T10:26:22Z</time>
      </trkpt>
      <trkpt lat="44.25324" lon="3.49316">
        <ele>1099</ele>
        <time>2013-06-21T10:27:59Z</time>
      </trkpt>
      <trkpt lat="44.25309" lon="3.49313">
        <ele>1106</ele>
        <time>2013-06-21T10:29:08Z</time>
      </trkpt>
      <trkpt lat="44.25312" lon="3.49305">
        <ele>1104</ele>
        <time>2013-06-21T10:29:48Z</time>
      </trkpt>
      <trkpt lat="44.2532" lon="3.49314">
        <ele>1096</ele>
        <time>2013-06-21T10:30:32Z</time>
      </trkpt>
      <trkpt lat="44.25316" lon="3.49315">
        <ele>1096</ele>
        <time>2013-06-21T10:31:20Z</time>
      </trkpt>
      <trkpt lat="44.25312" lon="3.49322">
        <ele>1101</ele>
        <time>2013-06-21T10:32:03Z</time>
      </trkpt>
      <trkpt lat="44.25318" lon="3.49326">
        <ele>1104</ele>
        <time>2013-06-21T10:33:53Z</time>
      </trkpt>
      <trkpt lat="44.25317" lon="3.49311">
        <ele>1113</ele>
        <time>2013-06-21T10:39:16Z</time>
      </trkpt>
      <trkpt lat="44.2534" lon="3.49316">
        <ele>1109</ele>
        <time>2013-06-21T10:39:35Z</time>
      </trkpt>
      <trkpt lat="44.25349" lon="3.4932">
        <ele>1108</ele>
        <time>2013-06-21T10:39:44Z</time>
      </trkpt>
      <trkpt lat="44.25362" lon="3.49326">
        <ele>1104</ele>
        <time>2013-06-21T10:39:56Z</time>
      </trkpt>
      <trkpt lat="44.25374" lon="3.49335">
        <ele>1102</ele>
        <time>2013-06-21T10:40:10Z</time>
      </trkpt>
      <trkpt lat="44.25378" lon="3.49336">
        <ele>1101</ele>
        <time>2013-06-21T10:40:13Z</time>
      </trkpt>
      <trkpt lat="44.25386" lon="3.49343">
        <ele>1103</ele>
        <time>2013-06-21T10:40:25Z</time>
      </trkpt>
      <trkpt lat="44.25395" lon="3.49346">
        <ele>1103</ele>
        <time>2013-06-21T10:40:36Z</time>
      </trkpt>
      <trkpt lat="44.254" lon="3.49354">
        <ele>1102</ele>
        <time>2013-06-21T10:40:40Z</time>
      </trkpt>
      <trkpt lat="44.25405" lon="3.49356">
        <ele>1102</ele>
        <time>2013-06-21T10:40:43Z</time>
      </trkpt>
      <trkpt lat="44.2541" lon="3.49358">
        <ele>1101</ele>
        <time>2013-06-21T10:40:47Z</time>
      </trkpt>
      <trkpt lat="44.25424" lon="3.49368">
        <ele>1102</ele>
        <time>2013-06-21T10:40:59Z</time>
      </trkpt>
      <trkpt lat="44.25433" lon="3.4937">
        <ele>1103</ele>
        <time>2013-06-21T10:41:06Z</time>
      </trkpt>
      <trkpt lat="44.25436" lon="3.49374">
        <ele>1104</ele>
        <time>2013-06-21T10:41:09Z</time>
      </trkpt>
      <trkpt lat="44.25446" lon="3.49382">
        <ele>1106</ele>
        <time>2013-06-21T10:41:24Z</time>
      </trkpt>
      <trkpt lat="44.25452" lon="3.49388">
        <ele>1107</ele>
        <time>2013-06-21T10:41:29Z</time>
      </trkpt>
      <trkpt lat="44.25459" lon="3.49394">
        <ele>1107</ele>
        <time>2013-06-21T10:41:34Z</time>
      </trkpt>
      <trkpt lat="44.25476" lon="3.49402">
        <ele>1102</ele>
        <time>2013-06-21T10:41:49Z</time>
      </trkpt>
      <trkpt lat="44.2548" lon="3.49412">
        <ele>1103</ele>
        <time>2013-06-21T10:41:56Z</time>
      </trkpt>
      <trkpt lat="44.25494" lon="3.49421">
        <ele>1105</ele>
        <time>2013-06-21T10:42:08Z</time>
      </trkpt>
      <trkpt lat="44.25499" lon="3.49424">
        <ele>1107</ele>
        <time>2013-06-21T10:42:12Z</time>
      </trkpt>
      <trkpt lat="44.25504" lon="3.49431">
        <ele>1108</ele>
        <time>2013-06-21T10:42:17Z</time>
      </trkpt>
      <trkpt lat="44.25515" lon="3.49445">
        <ele>1113</ele>
        <time>2013-06-21T10:42:29Z</time>
      </trkpt>
      <trkpt lat="44.25517" lon="3.49447">
        <ele>1115</ele>
        <time>2013-06-21T10:42:33Z</time>
      </trkpt>
      <trkpt lat="44.25517" lon="3.49471">
        <ele>1116</ele>
        <time>2013-06-21T10:42:38Z</time>
      </trkpt>
      <trkpt lat="44.25535" lon="3.49478">
        <ele>1122</ele>
        <time>2013-06-21T10:42:52Z</time>
      </trkpt>
      <trkpt lat="44.25552" lon="3.49482">
        <ele>1126</ele>
        <time>2013-06-21T10:43:03Z</time>
      </trkpt>
      <trkpt lat="44.25552" lon="3.49483">
        <ele>1127</ele>
        <time>2013-06-21T10:43:06Z</time>
      </trkpt>
      <trkpt lat="44.25554" lon="3.49487">
        <ele>1129</ele>
        <time>2013-06-21T10:43:10Z</time>
      </trkpt>
      <trkpt lat="44.25549" lon="3.49501">
        <ele>1133</ele>
        <time>2013-06-21T10:43:18Z</time>
      </trkpt>
      <trkpt lat="44.2553" lon="3.49516">
        <ele>1134</ele>
        <time>2013-06-21T10:43:29Z</time>
      </trkpt>
      <trkpt lat="44.25541" lon="3.49541">
        <ele>1134</ele>
        <time>2013-06-21T10:43:43Z</time>
      </trkpt>
      <trkpt lat="44.25545" lon="3.49557">
        <ele>1134</ele>
        <time>2013-06-21T10:43:55Z</time>
      </trkpt>
      <trkpt lat="44.25541" lon="3.49564">
        <ele>1129</ele>
        <time>2013-06-21T10:44:05Z</time>
      </trkpt>
      <trkpt lat="44.25543" lon="3.49567">
        <ele>1129</ele>
        <time>2013-06-21T10:44:08Z</time>
      </trkpt>
      <trkpt lat="44.25547" lon="3.49571">
        <ele>1129</ele>
        <time>2013-06-21T10:44:11Z</time>
      </trkpt>
      <trkpt lat="44.25548" lon="3.49583">
        <ele>1131</ele>
        <time>2013-06-21T10:44:20Z</time>
      </trkpt>
      <trkpt lat="44.25553" lon="3.49596">
        <ele>1132</ele>
        <time>2013-06-21T10:44:27Z</time>
      </trkpt>
      <trkpt lat="44.2557" lon="3.49616">
        <ele>1136</ele>
        <time>2013-06-21T10:44:40Z</time>
      </trkpt>
      <trkpt lat="44.25576" lon="3.49621">
        <ele>1137</ele>
        <time>2013-06-21T10:44:43Z</time>
      </trkpt>
      <trkpt lat="44.25585" lon="3.49631">
        <ele>1141</ele>
        <time>2013-06-21T10:44:51Z</time>
      </trkpt>
      <trkpt lat="44.25582" lon="3.49636">
        <ele>1142</ele>
        <time>2013-06-21T10:44:54Z</time>
      </trkpt>
      <trkpt lat="44.25587" lon="3.49649">
        <ele>1144</ele>
        <time>2013-06-21T10:45:02Z</time>
      </trkpt>
      <trkpt lat="44.25599" lon="3.49656">
        <ele>1148</ele>
        <time>2013-06-21T10:45:13Z</time>
      </trkpt>
      <trkpt lat="44.25606" lon="3.49678">
        <ele>1151</ele>
        <time>2013-06-21T10:45:27Z</time>
      </trkpt>
      <trkpt lat="44.25631" lon="3.49685">
        <ele>1153</ele>
        <time>2013-06-21T10:45:39Z</time>
      </trkpt>
      <trkpt lat="44.2564" lon="3.49695">
        <ele>1154</ele>
        <time>2013-06-21T10:45:50Z</time>
      </trkpt>
      <trkpt lat="44.25632" lon="3.49701">
        <ele>1154</ele>
        <time>2013-06-21T10:45:59Z</time>
      </trkpt>
      <trkpt lat="44.25623" lon="3.49706">
        <ele>1156</ele>
        <time>2013-06-21T10:46:15Z</time>
      </trkpt>
      <trkpt lat="44.25626" lon="3.49707">
        <ele>1157</ele>
        <time>2013-06-21T10:46:19Z</time>
      </trkpt>
      <trkpt lat="44.25642" lon="3.49711">
        <ele>1159</ele>
        <time>2013-06-21T10:46:34Z</time>
      </trkpt>
      <trkpt lat="44.25663" lon="3.49724">
        <ele>1162</ele>
        <time>2013-06-21T10:46:46Z</time>
      </trkpt>
      <trkpt lat="44.25665" lon="3.49726">
        <ele>1162</ele>
        <time>2013-06-21T10:46:47Z</time>
      </trkpt>
      <trkpt lat="44.25722" lon="3.49749">
        <ele>1165</ele>
        <time>2013-06-21T10:47:02Z</time>
      </trkpt>
      <trkpt lat="44.25738" lon="3.49756">
        <ele>1166</ele>
        <time>2013-06-21T10:47:13Z</time>
      </trkpt>
      <trkpt lat="44.25745" lon="3.49768">
        <ele>1169</ele>
        <time>2013-06-21T10:47:22Z</time>
      </trkpt>
      <trkpt lat="44.25747" lon="3.49785">
        <ele>1171</ele>
        <time>2013-06-21T10:47:35Z</time>
      </trkpt>
      <trkpt lat="44.25764" lon="3.4979">
        <ele>1165</ele>
        <time>2013-06-21T10:47:41Z</time>
      </trkpt>
      <trkpt lat="44.25768" lon="3.49802">
        <ele>1158</ele>
        <time>2013-06-21T10:47:52Z</time>
      </trkpt>
      <trkpt lat="44.25768" lon="3.49807">
        <ele>1156</ele>
        <time>2013-06-21T10:47:56Z</time>
      </trkpt>
      <trkpt lat="44.25769" lon="3.49814">
        <ele>1148</ele>
        <time>2013-06-21T10:48:03Z</time>
      </trkpt>
      <trkpt lat="44.25763" lon="3.49825">
        <ele>1139</ele>
        <time>2013-06-21T10:48:08Z</time>
      </trkpt>
      <trkpt lat="44.25755" lon="3.49842">
        <ele>1119</ele>
        <time>2013-06-21T10:48:22Z</time>
      </trkpt>
      <trkpt lat="44.25751" lon="3.49851">
        <ele>1105</ele>
        <time>2013-06-21T10:48:38Z</time>
      </trkpt>
      <trkpt lat="44.25737" lon="3.49856">
        <ele>1093</ele>
        <time>2013-06-21T10:53:55Z</time>
      </trkpt>
      <trkpt lat="44.25766" lon="3.49848">
        <ele>1071</ele>
        <time>2013-06-21T10:54:32Z</time>
      </trkpt>
      <trkpt lat="44.25778" lon="3.4984">
        <ele>1062</ele>
        <time>2013-06-21T10:54:43Z</time>
      </trkpt>
      <trkpt lat="44.25787" lon="3.49829">
        <ele>1050</ele>
        <time>2013-06-21T10:54:55Z</time>
      </trkpt>
      <trkpt lat="44.25788" lon="3.49825">
        <ele>1047</ele>
        <time>2013-06-21T10:55:00Z</time>
      </trkpt>
      <trkpt lat="44.25791" lon="3.49822">
        <ele>1046</ele>
        <time>2013-06-21T10:55:04Z</time>
      </trkpt>
      <trkpt lat="44.25804" lon="3.49819">
        <ele>1041</ele>
        <time>2013-06-21T10:55:16Z</time>
      </trkpt>
      <trkpt lat="44.25809" lon="3.49826">
        <ele>1040</ele>
        <time>2013-06-21T10:55:22Z</time>
      </trkpt>
      <trkpt lat="44.25814" lon="3.49843">
        <ele>1043</ele>
        <time>2013-06-21T10:55:36Z</time>
      </trkpt>
      <trkpt lat="44.25815" lon="3.49862">
        <ele>1044</ele>
        <time>2013-06-21T10:55:53Z</time>
      </trkpt>
      <trkpt lat="44.25813" lon="3.49881">
        <ele>1045</ele>
        <time>2013-06-21T10:56:06Z</time>
      </trkpt>
      <trkpt lat="44.25805" lon="3.49896">
        <ele>1044</ele>
        <time>2013-06-21T10:56:14Z</time>
      </trkpt>
      <trkpt lat="44.258" lon="3.499">
        <ele>1044</ele>
        <time>2013-06-21T10:56:20Z</time>
      </trkpt>
      <trkpt lat="44.25792" lon="3.49909">
        <ele>1044</ele>
        <time>2013-06-21T10:56:31Z</time>
      </trkpt>
      <trkpt lat="44.25774" lon="3.49914">
        <ele>1044</ele>
        <time>2013-06-21T10:56:45Z</time>
      </trkpt>
      <trkpt lat="44.25767" lon="3.49919">
        <ele>1046</ele>
        <time>2013-06-21T10:57:01Z</time>
      </trkpt>
      <trkpt lat="44.25758" lon="3.49927">
        <ele>1047</ele>
        <time>2013-06-21T10:57:18Z</time>
      </trkpt>
      <trkpt lat="44.25744" lon="3.49937">
        <ele>1048</ele>
        <time>2013-06-21T10:57:32Z</time>
      </trkpt>
      <trkpt lat="44.25738" lon="3.4994">
        <ele>1048</ele>
        <time>2013-06-21T10:57:38Z</time>
      </trkpt>
      <trkpt lat="44.25721" lon="3.49946">
        <ele>1051</ele>
        <time>2013-06-21T10:57:56Z</time>
      </trkpt>
      <trkpt lat="44.25702" lon="3.49968">
        <ele>1054</ele>
        <time>2013-06-21T10:58:20Z</time>
      </trkpt>
      <trkpt lat="44.25692" lon="3.4998">
        <ele>1056</ele>
        <time>2013-06-21T10:58:46Z</time>
      </trkpt>
      <trkpt lat="44.25678" lon="3.49992">
        <ele>1055</ele>
        <time>2013-06-21T10:59:06Z</time>
      </trkpt>
      <trkpt lat="44.25651" lon="3.50014">
        <ele>1054</ele>
        <time>2013-06-21T10:59:34Z</time>
      </trkpt>
      <trkpt lat="44.25626" lon="3.50025">
        <ele>1054</ele>
        <time>2013-06-21T10:59:58Z</time>
      </trkpt>
      <trkpt lat="44.25615" lon="3.5003">
        <ele>1055</ele>
        <time>2013-06-21T11:00:19Z</time>
      </trkpt>
      <trkpt lat="44.25599" lon="3.50038">
        <ele>1059</ele>
        <time>2013-06-21T11:00:40Z</time>
      </trkpt>
      <trkpt lat="44.2559" lon="3.50047">
        <ele>1062</ele>
        <time>2013-06-21T11:00:56Z</time>
      </trkpt>
      <trkpt lat="44.25575" lon="3.50059">
        <ele>1064</ele>
        <time>2013-06-21T11:01:13Z</time>
      </trkpt>
      <trkpt lat="44.25564" lon="3.50069">
        <ele>1068</ele>
        <time>2013-06-21T11:01:32Z</time>
      </trkpt>
      <trkpt lat="44.25547" lon="3.50079">
        <ele>1071</ele>
        <time>2013-06-21T11:01:53Z</time>
      </trkpt>
      <trkpt lat="44.25534" lon="3.50089">
        <ele>1073</ele>
        <time>2013-06-21T11:02:08Z</time>
      </trkpt>
      <trkpt lat="44.2552" lon="3.50096">
        <ele>1075</ele>
        <time>2013-06-21T11:02:23Z</time>
      </trkpt>
      <trkpt lat="44.25507" lon="3.50111">
        <ele>1078</ele>
        <time>2013-06-21T11:02:41Z</time>
      </trkpt>
      <trkpt lat="44.25497" lon="3.50131">
        <ele>1080</ele>
        <time>2013-06-21T11:03:07Z</time>
      </trkpt>
      <trkpt lat="44.25496" lon="3.50171">
        <ele>1080</ele>
        <time>2013-06-21T11:03:31Z</time>
      </trkpt>
      <trkpt lat="44.25492" lon="3.50177">
        <ele>1081</ele>
        <time>2013-06-21T11:03:57Z</time>
      </trkpt>
      <trkpt lat="44.25459" lon="3.50178">
        <ele>1084</ele>
        <time>2013-06-21T11:06:57Z</time>
      </trkpt>
      <trkpt lat="44.25447" lon="3.50178">
        <ele>1088</ele>
        <time>2013-06-21T11:07:12Z</time>
      </trkpt>
      <trkpt lat="44.25438" lon="3.50177">
        <ele>1096</ele>
        <time>2013-06-21T11:07:29Z</time>
      </trkpt>
      <trkpt lat="44.25429" lon="3.50183">
        <ele>1103</ele>
        <time>2013-06-21T11:07:47Z</time>
      </trkpt>
      <trkpt lat="44.25421" lon="3.50194">
        <ele>1105</ele>
        <time>2013-06-21T11:08:03Z</time>
      </trkpt>
      <trkpt lat="44.25412" lon="3.50204">
        <ele>1108</ele>
        <time>2013-06-21T11:08:22Z</time>
      </trkpt>
      <trkpt lat="44.25401" lon="3.50214">
        <ele>1110</ele>
        <time>2013-06-21T11:08:40Z</time>
      </trkpt>
      <trkpt lat="44.25393" lon="3.50228">
        <ele>1114</ele>
        <time>2013-06-21T11:08:59Z</time>
      </trkpt>
      <trkpt lat="44.25383" lon="3.50242">
        <ele>1116</ele>
        <time>2013-06-21T11:09:17Z</time>
      </trkpt>
      <trkpt lat="44.25374" lon="3.50254">
        <ele>1117</ele>
        <time>2013-06-21T11:09:35Z</time>
      </trkpt>
      <trkpt lat="44.25365" lon="3.50262">
        <ele>1117</ele>
        <time>2013-06-21T11:09:46Z</time>
      </trkpt>
      <trkpt lat="44.25354" lon="3.50276">
        <ele>1120</ele>
        <time>2013-06-21T11:10:03Z</time>
      </trkpt>
      <trkpt lat="44.25345" lon="3.50288">
        <ele>1122</ele>
        <time>2013-06-21T11:10:21Z</time>
      </trkpt>
      <trkpt lat="44.25336" lon="3.50292">
        <ele>1120</ele>
        <time>2013-06-21T11:11:45Z</time>
      </trkpt>
      <trkpt lat="44.25333" lon="3.50301">
        <ele>1120</ele>
        <time>2013-06-21T11:12:44Z</time>
      </trkpt>
      <trkpt lat="44.25319" lon="3.50318">
        <ele>1120</ele>
        <time>2013-06-21T11:13:08Z</time>
      </trkpt>
      <trkpt lat="44.25304" lon="3.50329">
        <ele>1122</ele>
        <time>2013-06-21T11:13:29Z</time>
      </trkpt>
      <trkpt lat="44.25296" lon="3.50336">
        <ele>1122</ele>
        <time>2013-06-21T11:13:39Z</time>
      </trkpt>
      <trkpt lat="44.25294" lon="3.50338">
        <ele>1123</ele>
        <time>2013-06-21T11:13:42Z</time>
      </trkpt>
      <trkpt lat="44.2528" lon="3.50344">
        <ele>1128</ele>
        <time>2013-06-21T11:14:03Z</time>
      </trkpt>
      <trkpt lat="44.25267" lon="3.50344">
        <ele>1132</ele>
        <time>2013-06-21T11:14:22Z</time>
      </trkpt>
      <trkpt lat="44.25257" lon="3.50341">
        <ele>1135</ele>
        <time>2013-06-21T11:14:40Z</time>
      </trkpt>
      <trkpt lat="44.25251" lon="3.50342">
        <ele>1136</ele>
        <time>2013-06-21T11:14:45Z</time>
      </trkpt>
      <trkpt lat="44.25243" lon="3.50346">
        <ele>1139</ele>
        <time>2013-06-21T11:14:52Z</time>
      </trkpt>
      <trkpt lat="44.25239" lon="3.50346">
        <ele>1140</ele>
        <time>2013-06-21T11:14:55Z</time>
      </trkpt>
      <trkpt lat="44.25233" lon="3.50357">
        <ele>1146</ele>
        <time>2013-06-21T11:15:08Z</time>
      </trkpt>
      <trkpt lat="44.25222" lon="3.5037">
        <ele>1150</ele>
        <time>2013-06-21T11:15:21Z</time>
      </trkpt>
      <trkpt lat="44.25211" lon="3.50365">
        <ele>1154</ele>
        <time>2013-06-21T11:15:31Z</time>
      </trkpt>
      <trkpt lat="44.25198" lon="3.50375">
        <ele>1157</ele>
        <time>2013-06-21T11:15:45Z</time>
      </trkpt>
      <trkpt lat="44.2519" lon="3.50376">
        <ele>1157</ele>
        <time>2013-06-21T11:16:01Z</time>
      </trkpt>
      <trkpt lat="44.25189" lon="3.50378">
        <ele>1158</ele>
        <time>2013-06-21T11:16:38Z</time>
      </trkpt>
      <trkpt lat="44.25173" lon="3.50387">
        <ele>1156</ele>
        <time>2013-06-21T11:18:03Z</time>
      </trkpt>
      <trkpt lat="44.25168" lon="3.50388">
        <ele>1156</ele>
        <time>2013-06-21T11:18:07Z</time>
      </trkpt>
      <trkpt lat="44.25159" lon="3.504">
        <ele>1155</ele>
        <time>2013-06-21T11:18:20Z</time>
      </trkpt>
      <trkpt lat="44.2516" lon="3.50411">
        <ele>1154</ele>
        <time>2013-06-21T11:18:27Z</time>
      </trkpt>
      <trkpt lat="44.25161" lon="3.50418">
        <ele>1153</ele>
        <time>2013-06-21T11:18:41Z</time>
      </trkpt>
      <trkpt lat="44.25158" lon="3.50427">
        <ele>1154</ele>
        <time>2013-06-21T11:19:34Z</time>
      </trkpt>
      <trkpt lat="44.25156" lon="3.50435">
        <ele>1153</ele>
        <time>2013-06-21T11:19:39Z</time>
      </trkpt>
      <trkpt lat="44.25152" lon="3.5045">
        <ele>1152</ele>
        <time>2013-06-21T11:19:51Z</time>
      </trkpt>
      <trkpt lat="44.25149" lon="3.5047">
        <ele>1152</ele>
        <time>2013-06-21T11:20:03Z</time>
      </trkpt>
      <trkpt lat="44.25144" lon="3.50491">
        <ele>1153</ele>
        <time>2013-06-21T11:20:18Z</time>
      </trkpt>
      <trkpt lat="44.25139" lon="3.50515">
        <ele>1152</ele>
        <time>2013-06-21T11:20:34Z</time>
      </trkpt>
      <trkpt lat="44.25138" lon="3.50522">
        <ele>1152</ele>
        <time>2013-06-21T11:20:48Z</time>
      </trkpt>
      <trkpt lat="44.25128" lon="3.50537">
        <ele>1152</ele>
        <time>2013-06-21T11:21:19Z</time>
      </trkpt>
      <trkpt lat="44.25126" lon="3.50548">
        <ele>1150</ele>
        <time>2013-06-21T11:21:33Z</time>
      </trkpt>
      <trkpt lat="44.25122" lon="3.50547">
        <ele>1149</ele>
        <time>2013-06-21T11:21:47Z</time>
      </trkpt>
      <trkpt lat="44.25122" lon="3.50549">
        <ele>1149</ele>
        <time>2013-06-21T11:21:49Z</time>
      </trkpt>
      <trkpt lat="44.25124" lon="3.50558">
        <ele>1149</ele>
        <time>2013-06-21T11:22:02Z</time>
      </trkpt>
      <trkpt lat="44.25124" lon="3.50571">
        <ele>1145</ele>
        <time>2013-06-21T11:22:13Z</time>
      </trkpt>
      <trkpt lat="44.25124" lon="3.50572">
        <ele>1145</ele>
        <time>2013-06-21T11:22:15Z</time>
      </trkpt>
      <trkpt lat="44.25125" lon="3.5058">
        <ele>1145</ele>
        <time>2013-06-21T11:22:21Z</time>
      </trkpt>
      <trkpt lat="44.25123" lon="3.50598">
        <ele>1145</ele>
        <time>2013-06-21T11:22:36Z</time>
      </trkpt>
      <trkpt lat="44.25121" lon="3.50613">
        <ele>1144</ele>
        <time>2013-06-21T11:22:46Z</time>
      </trkpt>
      <trkpt lat="44.25117" lon="3.50626">
        <ele>1145</ele>
        <time>2013-06-21T11:23:01Z</time>
      </trkpt>
      <trkpt lat="44.25111" lon="3.50639">
        <ele>1143</ele>
        <time>2013-06-21T11:23:21Z</time>
      </trkpt>
      <trkpt lat="44.25111" lon="3.5064">
        <ele>1143</ele>
        <time>2013-06-21T11:24:10Z</time>
      </trkpt>
      <trkpt lat="44.25104" lon="3.50647">
        <ele>1142</ele>
        <time>2013-06-21T11:24:23Z</time>
      </trkpt>
      <trkpt lat="44.25105" lon="3.50659">
        <ele>1143</ele>
        <time>2013-06-21T11:25:18Z</time>
      </trkpt>
      <trkpt lat="44.25108" lon="3.50678">
        <ele>1142</ele>
        <time>2013-06-21T11:25:35Z</time>
      </trkpt>
      <trkpt lat="44.25113" lon="3.50695">
        <ele>1141</ele>
        <time>2013-06-21T11:25:52Z</time>
      </trkpt>
      <trkpt lat="44.25118" lon="3.50702">
        <ele>1137</ele>
        <time>2013-06-21T11:26:00Z</time>
      </trkpt>
      <trkpt lat="44.25125" lon="3.50711">
        <ele>1133</ele>
        <time>2013-06-21T11:26:14Z</time>
      </trkpt>
      <trkpt lat="44.25129" lon="3.50716">
        <ele>1131</ele>
        <time>2013-06-21T11:26:29Z</time>
      </trkpt>
      <trkpt lat="44.25137" lon="3.50723">
        <ele>1130</ele>
        <time>2013-06-21T11:26:48Z</time>
      </trkpt>
      <trkpt lat="44.2514" lon="3.50728">
        <ele>1130</ele>
        <time>2013-06-21T11:26:54Z</time>
      </trkpt>
      <trkpt lat="44.25145" lon="3.50743">
        <ele>1129</ele>
        <time>2013-06-21T11:27:07Z</time>
      </trkpt>
      <trkpt lat="44.25151" lon="3.50764">
        <ele>1129</ele>
        <time>2013-06-21T11:27:21Z</time>
      </trkpt>
      <trkpt lat="44.25152" lon="3.50774">
        <ele>1128</ele>
        <time>2013-06-21T11:27:28Z</time>
      </trkpt>
      <trkpt lat="44.25158" lon="3.50776">
        <ele>1128</ele>
        <time>2013-06-21T11:27:42Z</time>
      </trkpt>
      <trkpt lat="44.25163" lon="3.50785">
        <ele>1127</ele>
        <time>2013-06-21T11:27:50Z</time>
      </trkpt>
      <trkpt lat="44.25173" lon="3.50795">
        <ele>1127</ele>
        <time>2013-06-21T11:28:07Z</time>
      </trkpt>
      <trkpt lat="44.2518" lon="3.50812">
        <ele>1124</ele>
        <time>2013-06-21T11:28:26Z</time>
      </trkpt>
      <trkpt lat="44.25189" lon="3.50823">
        <ele>1122</ele>
        <time>2013-06-21T11:28:40Z</time>
      </trkpt>
      <trkpt lat="44.25197" lon="3.50839">
        <ele>1120</ele>
        <time>2013-06-21T11:28:55Z</time>
      </trkpt>
      <trkpt lat="44.25202" lon="3.50853">
        <ele>1119</ele>
        <time>2013-06-21T11:29:11Z</time>
      </trkpt>
      <trkpt lat="44.25206" lon="3.50865">
        <ele>1120</ele>
        <time>2013-06-21T11:29:25Z</time>
      </trkpt>
      <trkpt lat="44.25205" lon="3.50864">
        <ele>1119</ele>
        <time>2013-06-21T11:29:44Z</time>
      </trkpt>
      <trkpt lat="44.25207" lon="3.50881">
        <ele>1116</ele>
        <time>2013-06-21T11:30:26Z</time>
      </trkpt>
      <trkpt lat="44.25206" lon="3.50892">
        <ele>1116</ele>
        <time>2013-06-21T11:30:47Z</time>
      </trkpt>
      <trkpt lat="44.25203" lon="3.50904">
        <ele>1115</ele>
        <time>2013-06-21T11:31:04Z</time>
      </trkpt>
      <trkpt lat="44.25203" lon="3.50908">
        <ele>1115</ele>
        <time>2013-06-21T11:31:07Z</time>
      </trkpt>
      <trkpt lat="44.25199" lon="3.5092">
        <ele>1114</ele>
        <time>2013-06-21T11:31:21Z</time>
      </trkpt>
      <trkpt lat="44.25195" lon="3.50928">
        <ele>1114</ele>
        <time>2013-06-21T11:31:35Z</time>
      </trkpt>
      <trkpt lat="44.25193" lon="3.50933">
        <ele>1113</ele>
        <time>2013-06-21T11:31:39Z</time>
      </trkpt>
      <trkpt lat="44.25189" lon="3.50941">
        <ele>1112</ele>
        <time>2013-06-21T11:31:52Z</time>
      </trkpt>
      <trkpt lat="44.25187" lon="3.50953">
        <ele>1110</ele>
        <time>2013-06-21T11:32:04Z</time>
      </trkpt>
      <trkpt lat="44.25182" lon="3.50965">
        <ele>1109</ele>
        <time>2013-06-21T11:32:14Z</time>
      </trkpt>
      <trkpt lat="44.2518" lon="3.5097">
        <ele>1108</ele>
        <time>2013-06-21T11:32:21Z</time>
      </trkpt>
      <trkpt lat="44.2518" lon="3.50975">
        <ele>1107</ele>
        <time>2013-06-21T11:32:25Z</time>
      </trkpt>
      <trkpt lat="44.25179" lon="3.50991">
        <ele>1106</ele>
        <time>2013-06-21T11:32:39Z</time>
      </trkpt>
      <trkpt lat="44.25183" lon="3.51003">
        <ele>1107</ele>
        <time>2013-06-21T11:32:54Z</time>
      </trkpt>
      <trkpt lat="44.25183" lon="3.51003">
        <ele>1107</ele>
        <time>2013-06-21T11:33:13Z</time>
      </trkpt>
      <trkpt lat="44.25179" lon="3.51019">
        <ele>1107</ele>
        <time>2013-06-21T11:33:26Z</time>
      </trkpt>
      <trkpt lat="44.25177" lon="3.51038">
        <ele>1106</ele>
        <time>2013-06-21T11:33:39Z</time>
      </trkpt>
      <trkpt lat="44.2518" lon="3.51054">
        <ele>1104</ele>
        <time>2013-06-21T11:33:52Z</time>
      </trkpt>
      <trkpt lat="44.25188" lon="3.5107">
        <ele>1104</ele>
        <time>2013-06-21T11:34:05Z</time>
      </trkpt>
      <trkpt lat="44.25196" lon="3.51082">
        <ele>1103</ele>
        <time>2013-06-21T11:34:18Z</time>
      </trkpt>
      <trkpt lat="44.25198" lon="3.51086">
        <ele>1104</ele>
        <time>2013-06-21T11:34:24Z</time>
      </trkpt>
      <trkpt lat="44.25197" lon="3.51109">
        <ele>1105</ele>
        <time>2013-06-21T11:34:40Z</time>
      </trkpt>
      <trkpt lat="44.25195" lon="3.51131">
        <ele>1109</ele>
        <time>2013-06-21T11:34:56Z</time>
      </trkpt>
      <trkpt lat="44.25194" lon="3.51149">
        <ele>1109</ele>
        <time>2013-06-21T11:35:09Z</time>
      </trkpt>
      <trkpt lat="44.25198" lon="3.51162">
        <ele>1106</ele>
        <time>2013-06-21T11:35:23Z</time>
      </trkpt>
      <trkpt lat="44.252" lon="3.51165">
        <ele>1107</ele>
        <time>2013-06-21T11:35:26Z</time>
      </trkpt>
      <trkpt lat="44.25203" lon="3.5117">
        <ele>1107</ele>
        <time>2013-06-21T11:35:30Z</time>
      </trkpt>
      <trkpt lat="44.25203" lon="3.51178">
        <ele>1106</ele>
        <time>2013-06-21T11:35:36Z</time>
      </trkpt>
      <trkpt lat="44.25206" lon="3.51184">
        <ele>1106</ele>
        <time>2013-06-21T11:35:41Z</time>
      </trkpt>
      <trkpt lat="44.25213" lon="3.51201">
        <ele>1105</ele>
        <time>2013-06-21T11:35:56Z</time>
      </trkpt>
      <trkpt lat="44.25215" lon="3.51206">
        <ele>1106</ele>
        <time>2013-06-21T11:35:59Z</time>
      </trkpt>
      <trkpt lat="44.25213" lon="3.51216">
        <ele>1106</ele>
        <time>2013-06-21T11:36:08Z</time>
      </trkpt>
      <trkpt lat="44.2522" lon="3.51231">
        <ele>1103</ele>
        <time>2013-06-21T11:36:20Z</time>
      </trkpt>
      <trkpt lat="44.2522" lon="3.51243">
        <ele>1107</ele>
        <time>2013-06-21T11:36:33Z</time>
      </trkpt>
      <trkpt lat="44.25217" lon="3.51256">
        <ele>1109</ele>
        <time>2013-06-21T11:36:46Z</time>
      </trkpt>
      <trkpt lat="44.2522" lon="3.5127">
        <ele>1105</ele>
        <time>2013-06-21T11:37:01Z</time>
      </trkpt>
      <trkpt lat="44.25221" lon="3.51283">
        <ele>1103</ele>
        <time>2013-06-21T11:37:15Z</time>
      </trkpt>
      <trkpt lat="44.25223" lon="3.51287">
        <ele>1103</ele>
        <time>2013-06-21T11:37:18Z</time>
      </trkpt>
      <trkpt lat="44.25228" lon="3.51302">
        <ele>1103</ele>
        <time>2013-06-21T11:37:33Z</time>
      </trkpt>
      <trkpt lat="44.25228" lon="3.51316">
        <ele>1103</ele>
        <time>2013-06-21T11:37:44Z</time>
      </trkpt>
      <trkpt lat="44.25226" lon="3.51315">
        <ele>1105</ele>
        <time>2013-06-21T11:37:53Z</time>
      </trkpt>
      <trkpt lat="44.25226" lon="3.51315">
        <ele>1106</ele>
        <time>2013-06-21T11:38:54Z</time>
      </trkpt>
      <trkpt lat="44.2523" lon="3.51326">
        <ele>1105</ele>
        <time>2013-06-21T11:39:06Z</time>
      </trkpt>
      <trkpt lat="44.25233" lon="3.51335">
        <ele>1104</ele>
        <time>2013-06-21T11:39:23Z</time>
      </trkpt>
      <trkpt lat="44.25227" lon="3.51346">
        <ele>1107</ele>
        <time>2013-06-21T11:39:38Z</time>
      </trkpt>
      <trkpt lat="44.25226" lon="3.51354">
        <ele>1109</ele>
        <time>2013-06-21T11:39:46Z</time>
      </trkpt>
      <trkpt lat="44.25226" lon="3.51367">
        <ele>1114</ele>
        <time>2013-06-21T11:40:00Z</time>
      </trkpt>
      <trkpt lat="44.25226" lon="3.51389">
        <ele>1119</ele>
        <time>2013-06-21T11:40:22Z</time>
      </trkpt>
      <trkpt lat="44.25223" lon="3.51395">
        <ele>1120</ele>
        <time>2013-06-21T11:40:34Z</time>
      </trkpt>
      <trkpt lat="44.25215" lon="3.51411">
        <ele>1122</ele>
        <time>2013-06-21T11:40:53Z</time>
      </trkpt>
      <trkpt lat="44.25217" lon="3.5143">
        <ele>1122</ele>
        <time>2013-06-21T11:41:10Z</time>
      </trkpt>
      <trkpt lat="44.25213" lon="3.51448">
        <ele>1124</ele>
        <time>2013-06-21T11:41:28Z</time>
      </trkpt>
      <trkpt lat="44.25211" lon="3.51464">
        <ele>1125</ele>
        <time>2013-06-21T11:41:45Z</time>
      </trkpt>
      <trkpt lat="44.25207" lon="3.51477">
        <ele>1126</ele>
        <time>2013-06-21T11:41:58Z</time>
      </trkpt>
      <trkpt lat="44.25198" lon="3.51499">
        <ele>1127</ele>
        <time>2013-06-21T11:42:18Z</time>
      </trkpt>
      <trkpt lat="44.2519" lon="3.51518">
        <ele>1128</ele>
        <time>2013-06-21T11:42:37Z</time>
      </trkpt>
      <trkpt lat="44.25188" lon="3.5152">
        <ele>1128</ele>
        <time>2013-06-21T11:42:40Z</time>
      </trkpt>
      <trkpt lat="44.25183" lon="3.51533">
        <ele>1130</ele>
        <time>2013-06-21T11:42:54Z</time>
      </trkpt>
      <trkpt lat="44.2518" lon="3.51536">
        <ele>1131</ele>
        <time>2013-06-21T11:42:59Z</time>
      </trkpt>
      <trkpt lat="44.25178" lon="3.51539">
        <ele>1132</ele>
        <time>2013-06-21T11:43:01Z</time>
      </trkpt>
      <trkpt lat="44.25177" lon="3.51543">
        <ele>1133</ele>
        <time>2013-06-21T11:43:04Z</time>
      </trkpt>
      <trkpt lat="44.25175" lon="3.51547">
        <ele>1134</ele>
        <time>2013-06-21T11:43:07Z</time>
      </trkpt>
      <trkpt lat="44.25173" lon="3.51549">
        <ele>1133</ele>
        <time>2013-06-21T11:43:10Z</time>
      </trkpt>
      <trkpt lat="44.25171" lon="3.51554">
        <ele>1134</ele>
        <time>2013-06-21T11:43:15Z</time>
      </trkpt>
      <trkpt lat="44.25167" lon="3.51568">
        <ele>1134</ele>
        <time>2013-06-21T11:43:28Z</time>
      </trkpt>
      <trkpt lat="44.25163" lon="3.51578">
        <ele>1134</ele>
        <time>2013-06-21T11:43:37Z</time>
      </trkpt>
      <trkpt lat="44.25157" lon="3.51583">
        <ele>1136</ele>
        <time>2013-06-21T11:43:53Z</time>
      </trkpt>
      <trkpt lat="44.25154" lon="3.51588">
        <ele>1137</ele>
        <time>2013-06-21T11:43:57Z</time>
      </trkpt>
      <trkpt lat="44.25149" lon="3.51601">
        <ele>1140</ele>
        <time>2013-06-21T11:44:08Z</time>
      </trkpt>
      <trkpt lat="44.25148" lon="3.51605">
        <ele>1140</ele>
        <time>2013-06-21T11:44:11Z</time>
      </trkpt>
      <trkpt lat="44.25142" lon="3.51618">
        <ele>1142</ele>
        <time>2013-06-21T11:44:24Z</time>
      </trkpt>
      <trkpt lat="44.25142" lon="3.5162">
        <ele>1142</ele>
        <time>2013-06-21T11:44:25Z</time>
      </trkpt>
      <trkpt lat="44.25139" lon="3.51629">
        <ele>1143</ele>
        <time>2013-06-21T11:44:31Z</time>
      </trkpt>
      <trkpt lat="44.25139" lon="3.51635">
        <ele>1143</ele>
        <time>2013-06-21T11:44:34Z</time>
      </trkpt>
      <trkpt lat="44.2514" lon="3.51654">
        <ele>1142</ele>
        <time>2013-06-21T11:44:49Z</time>
      </trkpt>
      <trkpt lat="44.25137" lon="3.51655">
        <ele>1141</ele>
        <time>2013-06-21T11:45:29Z</time>
      </trkpt>
      <trkpt lat="44.25133" lon="3.51674">
        <ele>1140</ele>
        <time>2013-06-21T11:47:26Z</time>
      </trkpt>
      <trkpt lat="44.25132" lon="3.51677">
        <ele>1140</ele>
        <time>2013-06-21T11:47:29Z</time>
      </trkpt>
      <trkpt lat="44.25127" lon="3.51686">
        <ele>1140</ele>
        <time>2013-06-21T11:47:36Z</time>
      </trkpt>
      <trkpt lat="44.25118" lon="3.51698">
        <ele>1140</ele>
        <time>2013-06-21T11:47:47Z</time>
      </trkpt>
      <trkpt lat="44.25109" lon="3.51715">
        <ele>1142</ele>
        <time>2013-06-21T11:48:01Z</time>
      </trkpt>
      <trkpt lat="44.25108" lon="3.51717">
        <ele>1142</ele>
        <time>2013-06-21T11:48:02Z</time>
      </trkpt>
      <trkpt lat="44.25099" lon="3.51738">
        <ele>1143</ele>
        <time>2013-06-21T11:48:16Z</time>
      </trkpt>
      <trkpt lat="44.25096" lon="3.51742">
        <ele>1143</ele>
        <time>2013-06-21T11:48:19Z</time>
      </trkpt>
      <trkpt lat="44.25086" lon="3.51765">
        <ele>1143</ele>
        <time>2013-06-21T11:48:34Z</time>
      </trkpt>
      <trkpt lat="44.25072" lon="3.51784">
        <ele>1142</ele>
        <time>2013-06-21T11:48:50Z</time>
      </trkpt>
      <trkpt lat="44.25067" lon="3.51807">
        <ele>1137</ele>
        <time>2013-06-21T11:49:03Z</time>
      </trkpt>
      <trkpt lat="44.25057" lon="3.51824">
        <ele>1137</ele>
        <time>2013-06-21T11:49:19Z</time>
      </trkpt>
      <trkpt lat="44.25046" lon="3.51841">
        <ele>1136</ele>
        <time>2013-06-21T11:49:34Z</time>
      </trkpt>
      <trkpt lat="44.25047" lon="3.5186">
        <ele>1133</ele>
        <time>2013-06-21T11:49:45Z</time>
      </trkpt>
      <trkpt lat="44.25039" lon="3.51873">
        <ele>1131</ele>
        <time>2013-06-21T11:50:03Z</time>
      </trkpt>
      <trkpt lat="44.25028" lon="3.51887">
        <ele>1132</ele>
        <time>2013-06-21T11:50:15Z</time>
      </trkpt>
      <trkpt lat="44.25018" lon="3.51908">
        <ele>1134</ele>
        <time>2013-06-21T11:50:29Z</time>
      </trkpt>
      <trkpt lat="44.25007" lon="3.51922">
        <ele>1136</ele>
        <time>2013-06-21T11:50:44Z</time>
      </trkpt>
      <trkpt lat="44.24995" lon="3.51937">
        <ele>1138</ele>
        <time>2013-06-21T11:50:57Z</time>
      </trkpt>
      <trkpt lat="44.24994" lon="3.5194">
        <ele>1138</ele>
        <time>2013-06-21T11:50:59Z</time>
      </trkpt>
      <trkpt lat="44.24981" lon="3.51951">
        <ele>1136</ele>
        <time>2013-06-21T11:51:14Z</time>
      </trkpt>
      <trkpt lat="44.24966" lon="3.51956">
        <ele>1133</ele>
        <time>2013-06-21T11:51:27Z</time>
      </trkpt>
      <trkpt lat="44.24958" lon="3.51959">
        <ele>1132</ele>
        <time>2013-06-21T11:51:33Z</time>
      </trkpt>
      <trkpt lat="44.2495" lon="3.51958">
        <ele>1130</ele>
        <time>2013-06-21T11:51:42Z</time>
      </trkpt>
      <trkpt lat="44.24943" lon="3.51957">
        <ele>1129</ele>
        <time>2013-06-21T11:52:01Z</time>
      </trkpt>
      <trkpt lat="44.24926" lon="3.51961">
        <ele>1127</ele>
        <time>2013-06-21T11:52:18Z</time>
      </trkpt>
      <trkpt lat="44.24921" lon="3.51957">
        <ele>1124</ele>
        <time>2013-06-21T11:54:58Z</time>
      </trkpt>
      <trkpt lat="44.24907" lon="3.51956">
        <ele>1122</ele>
        <time>2013-06-21T11:55:12Z</time>
      </trkpt>
      <trkpt lat="44.24905" lon="3.51957">
        <ele>1122</ele>
        <time>2013-06-21T11:55:14Z</time>
      </trkpt>
      <trkpt lat="44.24892" lon="3.51956">
        <ele>1118</ele>
        <time>2013-06-21T11:55:28Z</time>
      </trkpt>
      <trkpt lat="44.24878" lon="3.51955">
        <ele>1117</ele>
        <time>2013-06-21T11:55:43Z</time>
      </trkpt>
      <trkpt lat="44.24872" lon="3.51954">
        <ele>1118</ele>
        <time>2013-06-21T11:55:50Z</time>
      </trkpt>
      <trkpt lat="44.24869" lon="3.51965">
        <ele>1115</ele>
        <time>2013-06-21T11:56:05Z</time>
      </trkpt>
      <trkpt lat="44.24869" lon="3.51966">
        <ele>1115</ele>
        <time>2013-06-21T11:56:06Z</time>
      </trkpt>
      <trkpt lat="44.2486" lon="3.51981">
        <ele>1112</ele>
        <time>2013-06-21T11:56:26Z</time>
      </trkpt>
      <trkpt lat="44.24848" lon="3.51991">
        <ele>1110</ele>
        <time>2013-06-21T11:56:41Z</time>
      </trkpt>
      <trkpt lat="44.24845" lon="3.51993">
        <ele>1109</ele>
        <time>2013-06-21T11:56:48Z</time>
      </trkpt>
      <trkpt lat="44.24842" lon="3.51996">
        <ele>1106</ele>
        <time>2013-06-21T11:57:06Z</time>
      </trkpt>
      <trkpt lat="44.24833" lon="3.51998">
        <ele>1106</ele>
        <time>2013-06-21T11:57:33Z</time>
      </trkpt>
      <trkpt lat="44.2483" lon="3.51997">
        <ele>1106</ele>
        <time>2013-06-21T11:57:37Z</time>
      </trkpt>
      <trkpt lat="44.24814" lon="3.52007">
        <ele>1104</ele>
        <time>2013-06-21T11:57:56Z</time>
      </trkpt>
      <trkpt lat="44.24808" lon="3.52013">
        <ele>1106</ele>
        <time>2013-06-21T11:58:13Z</time>
      </trkpt>
      <trkpt lat="44.2481" lon="3.52012">
        <ele>1106</ele>
        <time>2013-06-21T11:58:57Z</time>
      </trkpt>
      <trkpt lat="44.24807" lon="3.52019">
        <ele>1103</ele>
        <time>2013-06-21T11:59:22Z</time>
      </trkpt>
      <trkpt lat="44.24802" lon="3.52028">
        <ele>1098</ele>
        <time>2013-06-21T11:59:49Z</time>
      </trkpt>
      <trkpt lat="44.24794" lon="3.52034">
        <ele>1095</ele>
        <time>2013-06-21T12:00:06Z</time>
      </trkpt>
      <trkpt lat="44.24782" lon="3.5204">
        <ele>1090</ele>
        <time>2013-06-21T12:00:23Z</time>
      </trkpt>
      <trkpt lat="44.2478" lon="3.52043">
        <ele>1090</ele>
        <time>2013-06-21T12:00:35Z</time>
      </trkpt>
      <trkpt lat="44.24777" lon="3.52047">
        <ele>1090</ele>
        <time>2013-06-21T12:00:38Z</time>
      </trkpt>
      <trkpt lat="44.24763" lon="3.52047">
        <ele>1088</ele>
        <time>2013-06-21T12:00:49Z</time>
      </trkpt>
      <trkpt lat="44.24761" lon="3.52047">
        <ele>1087</ele>
        <time>2013-06-21T12:00:51Z</time>
      </trkpt>
      <trkpt lat="44.24754" lon="3.52048">
        <ele>1084</ele>
        <time>2013-06-21T12:01:03Z</time>
      </trkpt>
      <trkpt lat="44.24741" lon="3.52033">
        <ele>1083</ele>
        <time>2013-06-21T12:01:18Z</time>
      </trkpt>
      <trkpt lat="44.24734" lon="3.52034">
        <ele>1083</ele>
        <time>2013-06-21T12:01:23Z</time>
      </trkpt>
      <trkpt lat="44.24722" lon="3.5203">
        <ele>1082</ele>
        <time>2013-06-21T12:01:37Z</time>
      </trkpt>
      <trkpt lat="44.2471" lon="3.52014">
        <ele>1085</ele>
        <time>2013-06-21T12:01:51Z</time>
      </trkpt>
      <trkpt lat="44.24707" lon="3.52013">
        <ele>1085</ele>
        <time>2013-06-21T12:01:54Z</time>
      </trkpt>
      <trkpt lat="44.24701" lon="3.52011">
        <ele>1087</ele>
        <time>2013-06-21T12:02:00Z</time>
      </trkpt>
      <trkpt lat="44.24685" lon="3.52001">
        <ele>1091</ele>
        <time>2013-06-21T12:02:18Z</time>
      </trkpt>
      <trkpt lat="44.24673" lon="3.51999">
        <ele>1093</ele>
        <time>2013-06-21T12:02:32Z</time>
      </trkpt>
      <trkpt lat="44.24664" lon="3.5199">
        <ele>1089</ele>
        <time>2013-06-21T12:02:46Z</time>
      </trkpt>
      <trkpt lat="44.24653" lon="3.51986">
        <ele>1089</ele>
        <time>2013-06-21T12:03:01Z</time>
      </trkpt>
      <trkpt lat="44.2465" lon="3.51983">
        <ele>1088</ele>
        <time>2013-06-21T12:03:14Z</time>
      </trkpt>
      <trkpt lat="44.24636" lon="3.51973">
        <ele>1088</ele>
        <time>2013-06-21T12:03:28Z</time>
      </trkpt>
      <trkpt lat="44.24625" lon="3.51956">
        <ele>1089</ele>
        <time>2013-06-21T12:03:49Z</time>
      </trkpt>
      <trkpt lat="44.24615" lon="3.51948">
        <ele>1089</ele>
        <time>2013-06-21T12:04:04Z</time>
      </trkpt>
      <trkpt lat="44.24611" lon="3.51946">
        <ele>1089</ele>
        <time>2013-06-21T12:04:08Z</time>
      </trkpt>
      <trkpt lat="44.24603" lon="3.51936">
        <ele>1090</ele>
        <time>2013-06-21T12:04:19Z</time>
      </trkpt>
      <trkpt lat="44.24596" lon="3.51928">
        <ele>1089</ele>
        <time>2013-06-21T12:04:27Z</time>
      </trkpt>
      <trkpt lat="44.24591" lon="3.51925">
        <ele>1089</ele>
        <time>2013-06-21T12:04:31Z</time>
      </trkpt>
      <trkpt lat="44.24579" lon="3.5191">
        <ele>1091</ele>
        <time>2013-06-21T12:04:47Z</time>
      </trkpt>
      <trkpt lat="44.2458" lon="3.51904">
        <ele>1086</ele>
        <time>2013-06-21T12:04:57Z</time>
      </trkpt>
      <trkpt lat="44.24579" lon="3.51904">
        <ele>1086</ele>
        <time>2013-06-21T12:05:02Z</time>
      </trkpt>
      <trkpt lat="44.24582" lon="3.51875">
        <ele>1086</ele>
        <time>2013-06-21T12:05:18Z</time>
      </trkpt>
      <trkpt lat="44.24585" lon="3.51851">
        <ele>1090</ele>
        <time>2013-06-21T12:05:33Z</time>
      </trkpt>
      <trkpt lat="44.24585" lon="3.51839">
        <ele>1089</ele>
        <time>2013-06-21T12:05:45Z</time>
      </trkpt>
      <trkpt lat="44.24585" lon="3.51827">
        <ele>1091</ele>
        <time>2013-06-21T12:05:53Z</time>
      </trkpt>
      <trkpt lat="44.2458" lon="3.51817">
        <ele>1093</ele>
        <time>2013-06-21T12:06:08Z</time>
      </trkpt>
      <trkpt lat="44.24579" lon="3.51814">
        <ele>1093</ele>
        <time>2013-06-21T12:06:34Z</time>
      </trkpt>
      <trkpt lat="44.24579" lon="3.51815">
        <ele>1093</ele>
        <time>2013-06-21T12:06:41Z</time>
      </trkpt>
      <trkpt lat="44.24573" lon="3.51819">
        <ele>1093</ele>
        <time>2013-06-21T12:06:45Z</time>
      </trkpt>
      <trkpt lat="44.24566" lon="3.51829">
        <ele>1094</ele>
        <time>2013-06-21T12:06:53Z</time>
      </trkpt>
      <trkpt lat="44.24556" lon="3.51839">
        <ele>1096</ele>
        <time>2013-06-21T12:07:06Z</time>
      </trkpt>
      <trkpt lat="44.24555" lon="3.5184">
        <ele>1095</ele>
        <time>2013-06-21T12:07:07Z</time>
      </trkpt>
      <trkpt lat="44.24539" lon="3.51847">
        <ele>1097</ele>
        <time>2013-06-21T12:07:22Z</time>
      </trkpt>
      <trkpt lat="44.24526" lon="3.51858">
        <ele>1100</ele>
        <time>2013-06-21T12:07:43Z</time>
      </trkpt>
      <trkpt lat="44.24517" lon="3.51871">
        <ele>1102</ele>
        <time>2013-06-21T12:08:22Z</time>
      </trkpt>
      <trkpt lat="44.24507" lon="3.51878">
        <ele>1101</ele>
        <time>2013-06-21T12:08:52Z</time>
      </trkpt>
      <trkpt lat="44.24502" lon="3.51887">
        <ele>1104</ele>
        <time>2013-06-21T12:09:03Z</time>
      </trkpt>
      <trkpt lat="44.24495" lon="3.51893">
        <ele>1106</ele>
        <time>2013-06-21T12:09:12Z</time>
      </trkpt>
      <trkpt lat="44.24486" lon="3.51908">
        <ele>1109</ele>
        <time>2013-06-21T12:09:26Z</time>
      </trkpt>
      <trkpt lat="44.24477" lon="3.51919">
        <ele>1113</ele>
        <time>2013-06-21T12:09:39Z</time>
      </trkpt>
      <trkpt lat="44.24467" lon="3.51932">
        <ele>1112</ele>
        <time>2013-06-21T12:09:54Z</time>
      </trkpt>
      <trkpt lat="44.24461" lon="3.51941">
        <ele>1117</ele>
        <time>2013-06-21T12:10:14Z</time>
      </trkpt>
      <trkpt lat="44.24447" lon="3.5195">
        <ele>1118</ele>
        <time>2013-06-21T12:10:30Z</time>
      </trkpt>
      <trkpt lat="44.24446" lon="3.5195">
        <ele>1118</ele>
        <time>2013-06-21T12:10:32Z</time>
      </trkpt>
      <trkpt lat="44.24431" lon="3.51957">
        <ele>1119</ele>
        <time>2013-06-21T12:10:48Z</time>
      </trkpt>
      <trkpt lat="44.24425" lon="3.51959">
        <ele>1116</ele>
        <time>2013-06-21T12:10:55Z</time>
      </trkpt>
      <trkpt lat="44.2441" lon="3.51968">
        <ele>1118</ele>
        <time>2013-06-21T12:11:12Z</time>
      </trkpt>
      <trkpt lat="44.24396" lon="3.51979">
        <ele>1118</ele>
        <time>2013-06-21T12:11:25Z</time>
      </trkpt>
      <trkpt lat="44.24384" lon="3.51989">
        <ele>1120</ele>
        <time>2013-06-21T12:11:39Z</time>
      </trkpt>
      <trkpt lat="44.24377" lon="3.51989">
        <ele>1120</ele>
        <time>2013-06-21T12:11:44Z</time>
      </trkpt>
      <trkpt lat="44.24366" lon="3.51994">
        <ele>1120</ele>
        <time>2013-06-21T12:11:59Z</time>
      </trkpt>
      <trkpt lat="44.24355" lon="3.51992">
        <ele>1118</ele>
        <time>2013-06-21T12:12:12Z</time>
      </trkpt>
      <trkpt lat="44.24351" lon="3.51992">
        <ele>1117</ele>
        <time>2013-06-21T12:12:17Z</time>
      </trkpt>
      <trkpt lat="44.24338" lon="3.51999">
        <ele>1119</ele>
        <time>2013-06-21T12:12:33Z</time>
      </trkpt>
      <trkpt lat="44.24336" lon="3.52002">
        <ele>1119</ele>
        <time>2013-06-21T12:12:45Z</time>
      </trkpt>
      <trkpt lat="44.24333" lon="3.52008">
        <ele>1118</ele>
        <time>2013-06-21T12:12:49Z</time>
      </trkpt>
      <trkpt lat="44.24334" lon="3.52013">
        <ele>1119</ele>
        <time>2013-06-21T12:12:54Z</time>
      </trkpt>
      <trkpt lat="44.2434" lon="3.52033">
        <ele>1116</ele>
        <time>2013-06-21T12:13:10Z</time>
      </trkpt>
      <trkpt lat="44.24346" lon="3.52051">
        <ele>1115</ele>
        <time>2013-06-21T12:13:27Z</time>
      </trkpt>
      <trkpt lat="44.24351" lon="3.52066">
        <ele>1119</ele>
        <time>2013-06-21T12:13:38Z</time>
      </trkpt>
      <trkpt lat="44.2436" lon="3.52082">
        <ele>1127</ele>
        <time>2013-06-21T12:13:54Z</time>
      </trkpt>
      <trkpt lat="44.24361" lon="3.5209">
        <ele>1130</ele>
        <time>2013-06-21T12:14:17Z</time>
      </trkpt>
      <trkpt lat="44.24367" lon="3.52092">
        <ele>1128</ele>
        <time>2013-06-21T12:14:32Z</time>
      </trkpt>
      <trkpt lat="44.24379" lon="3.52107">
        <ele>1128</ele>
        <time>2013-06-21T12:14:46Z</time>
      </trkpt>
      <trkpt lat="44.2438" lon="3.52113">
        <ele>1129</ele>
        <time>2013-06-21T12:15:00Z</time>
      </trkpt>
      <trkpt lat="44.24378" lon="3.52109">
        <ele>1130</ele>
        <time>2013-06-21T12:15:16Z</time>
      </trkpt>
      <trkpt lat="44.24382" lon="3.52124">
        <ele>1128</ele>
        <time>2013-06-21T12:19:04Z</time>
      </trkpt>
      <trkpt lat="44.24383" lon="3.52129">
        <ele>1128</ele>
        <time>2013-06-21T12:19:47Z</time>
      </trkpt>
      <trkpt lat="44.24386" lon="3.52148">
        <ele>1127</ele>
        <time>2013-06-21T12:20:02Z</time>
      </trkpt>
      <trkpt lat="44.2439" lon="3.52177">
        <ele>1130</ele>
        <time>2013-06-21T12:20:18Z</time>
      </trkpt>
      <trkpt lat="44.24394" lon="3.52198">
        <ele>1134</ele>
        <time>2013-06-21T12:20:33Z</time>
      </trkpt>
      <trkpt lat="44.24395" lon="3.52208">
        <ele>1135</ele>
        <time>2013-06-21T12:20:39Z</time>
      </trkpt>
      <trkpt lat="44.24391" lon="3.52213">
        <ele>1136</ele>
        <time>2013-06-21T12:20:45Z</time>
      </trkpt>
      <trkpt lat="44.24375" lon="3.52217">
        <ele>1137</ele>
        <time>2013-06-21T12:21:01Z</time>
      </trkpt>
      <trkpt lat="44.24362" lon="3.52212">
        <ele>1137</ele>
        <time>2013-06-21T12:21:16Z</time>
      </trkpt>
      <trkpt lat="44.2435" lon="3.52205">
        <ele>1137</ele>
        <time>2013-06-21T12:21:25Z</time>
      </trkpt>
      <trkpt lat="44.24335" lon="3.522">
        <ele>1139</ele>
        <time>2013-06-21T12:21:39Z</time>
      </trkpt>
      <trkpt lat="44.24319" lon="3.52193">
        <ele>1142</ele>
        <time>2013-06-21T12:21:54Z</time>
      </trkpt>
      <trkpt lat="44.24299" lon="3.52187">
        <ele>1144</ele>
        <time>2013-06-21T12:22:11Z</time>
      </trkpt>
      <trkpt lat="44.2428" lon="3.52182">
        <ele>1146</ele>
        <time>2013-06-21T12:22:26Z</time>
      </trkpt>
      <trkpt lat="44.24262" lon="3.52178">
        <ele>1146</ele>
        <time>2013-06-21T12:22:41Z</time>
      </trkpt>
      <trkpt lat="44.24245" lon="3.52175">
        <ele>1147</ele>
        <time>2013-06-21T12:22:55Z</time>
      </trkpt>
      <trkpt lat="44.24229" lon="3.52169">
        <ele>1148</ele>
        <time>2013-06-21T12:23:11Z</time>
      </trkpt>
      <trkpt lat="44.2421" lon="3.52165">
        <ele>1147</ele>
        <time>2013-06-21T12:23:28Z</time>
      </trkpt>
      <trkpt lat="44.24192" lon="3.52162">
        <ele>1148</ele>
        <time>2013-06-21T12:23:43Z</time>
      </trkpt>
      <trkpt lat="44.24175" lon="3.5216">
        <ele>1148</ele>
        <time>2013-06-21T12:23:58Z</time>
      </trkpt>
      <trkpt lat="44.24159" lon="3.52158">
        <ele>1147</ele>
        <time>2013-06-21T12:24:11Z</time>
      </trkpt>
      <trkpt lat="44.24139" lon="3.52152">
        <ele>1152</ele>
        <time>2013-06-21T12:24:26Z</time>
      </trkpt>
      <trkpt lat="44.24122" lon="3.52149">
        <ele>1150</ele>
        <time>2013-06-21T12:24:42Z</time>
      </trkpt>
      <trkpt lat="44.24111" lon="3.52146">
        <ele>1151</ele>
        <time>2013-06-21T12:24:55Z</time>
      </trkpt>
      <trkpt lat="44.24096" lon="3.52144">
        <ele>1151</ele>
        <time>2013-06-21T12:25:09Z</time>
      </trkpt>
      <trkpt lat="44.24075" lon="3.52142">
        <ele>1153</ele>
        <time>2013-06-21T12:25:26Z</time>
      </trkpt>
      <trkpt lat="44.24056" lon="3.52139">
        <ele>1153</ele>
        <time>2013-06-21T12:25:41Z</time>
      </trkpt>
      <trkpt lat="44.24046" lon="3.52139">
        <ele>1152</ele>
        <time>2013-06-21T12:25:49Z</time>
      </trkpt>
      <trkpt lat="44.24042" lon="3.52141">
        <ele>1153</ele>
        <time>2013-06-21T12:25:53Z</time>
      </trkpt>
      <trkpt lat="44.24035" lon="3.52141">
        <ele>1154</ele>
        <time>2013-06-21T12:25:59Z</time>
      </trkpt>
      <trkpt lat="44.2403" lon="3.52141">
        <ele>1156</ele>
        <time>2013-06-21T12:26:12Z</time>
      </trkpt>
      <trkpt lat="44.24015" lon="3.52144">
        <ele>1157</ele>
        <time>2013-06-21T12:26:26Z</time>
      </trkpt>
      <trkpt lat="44.23997" lon="3.52149">
        <ele>1157</ele>
        <time>2013-06-21T12:26:41Z</time>
      </trkpt>
      <trkpt lat="44.23976" lon="3.52153">
        <ele>1159</ele>
        <time>2013-06-21T12:26:58Z</time>
      </trkpt>
      <trkpt lat="44.23962" lon="3.52152">
        <ele>1160</ele>
        <time>2013-06-21T12:27:10Z</time>
      </trkpt>
      <trkpt lat="44.23948" lon="3.52152">
        <ele>1157</ele>
        <time>2013-06-21T12:27:23Z</time>
      </trkpt>
      <trkpt lat="44.23931" lon="3.52142">
        <ele>1153</ele>
        <time>2013-06-21T12:27:39Z</time>
      </trkpt>
      <trkpt lat="44.23926" lon="3.52138">
        <ele>1153</ele>
        <time>2013-06-21T12:27:43Z</time>
      </trkpt>
      <trkpt lat="44.23914" lon="3.52127">
        <ele>1150</ele>
        <time>2013-06-21T12:27:57Z</time>
      </trkpt>
      <trkpt lat="44.239" lon="3.52104">
        <ele>1150</ele>
        <time>2013-06-21T12:28:15Z</time>
      </trkpt>
      <trkpt lat="44.23882" lon="3.52082">
        <ele>1149</ele>
        <time>2013-06-21T12:28:34Z</time>
      </trkpt>
      <trkpt lat="44.23869" lon="3.5207">
        <ele>1150</ele>
        <time>2013-06-21T12:28:49Z</time>
      </trkpt>
      <trkpt lat="44.23854" lon="3.52061">
        <ele>1149</ele>
        <time>2013-06-21T12:29:06Z</time>
      </trkpt>
      <trkpt lat="44.23835" lon="3.52056">
        <ele>1149</ele>
        <time>2013-06-21T12:29:22Z</time>
      </trkpt>
      <trkpt lat="44.23813" lon="3.52046">
        <ele>1148</ele>
        <time>2013-06-21T12:29:38Z</time>
      </trkpt>
      <trkpt lat="44.23792" lon="3.52039">
        <ele>1149</ele>
        <time>2013-06-21T12:29:55Z</time>
      </trkpt>
      <trkpt lat="44.23775" lon="3.5203">
        <ele>1150</ele>
        <time>2013-06-21T12:30:11Z</time>
      </trkpt>
      <trkpt lat="44.23757" lon="3.52018">
        <ele>1149</ele>
        <time>2013-06-21T12:30:28Z</time>
      </trkpt>
      <trkpt lat="44.23736" lon="3.52005">
        <ele>1151</ele>
        <time>2013-06-21T12:30:45Z</time>
      </trkpt>
      <trkpt lat="44.23714" lon="3.51998">
        <ele>1150</ele>
        <time>2013-06-21T12:31:03Z</time>
      </trkpt>
      <trkpt lat="44.23698" lon="3.52008">
        <ele>1150</ele>
        <time>2013-06-21T12:31:17Z</time>
      </trkpt>
      <trkpt lat="44.23678" lon="3.52026">
        <ele>1153</ele>
        <time>2013-06-21T12:31:36Z</time>
      </trkpt>
      <trkpt lat="44.23669" lon="3.52031">
        <ele>1154</ele>
        <time>2013-06-21T12:31:44Z</time>
      </trkpt>
      <trkpt lat="44.23651" lon="3.52048">
        <ele>1151</ele>
        <time>2013-06-21T12:32:01Z</time>
      </trkpt>
      <trkpt lat="44.23635" lon="3.52065">
        <ele>1150</ele>
        <time>2013-06-21T12:32:18Z</time>
      </trkpt>
      <trkpt lat="44.23619" lon="3.52078">
        <ele>1149</ele>
        <time>2013-06-21T12:32:34Z</time>
      </trkpt>
      <trkpt lat="44.23602" lon="3.52087">
        <ele>1146</ele>
        <time>2013-06-21T12:32:49Z</time>
      </trkpt>
      <trkpt lat="44.23581" lon="3.52096">
        <ele>1145</ele>
        <time>2013-06-21T12:33:06Z</time>
      </trkpt>
      <trkpt lat="44.23558" lon="3.52095">
        <ele>1147</ele>
        <time>2013-06-21T12:33:23Z</time>
      </trkpt>
      <trkpt lat="44.23544" lon="3.52091">
        <ele>1146</ele>
        <time>2013-06-21T12:33:37Z</time>
      </trkpt>
      <trkpt lat="44.23523" lon="3.52088">
        <ele>1145</ele>
        <time>2013-06-21T12:33:53Z</time>
      </trkpt>
      <trkpt lat="44.23508" lon="3.52087">
        <ele>1144</ele>
        <time>2013-06-21T12:34:08Z</time>
      </trkpt>
      <trkpt lat="44.23494" lon="3.52087">
        <ele>1142</ele>
        <time>2013-06-21T12:34:28Z</time>
      </trkpt>
      <trkpt lat="44.23481" lon="3.52083">
        <ele>1141</ele>
        <time>2013-06-21T12:34:39Z</time>
      </trkpt>
      <trkpt lat="44.2347" lon="3.52074">
        <ele>1142</ele>
        <time>2013-06-21T12:34:53Z</time>
      </trkpt>
      <trkpt lat="44.23461" lon="3.52067">
        <ele>1141</ele>
        <time>2013-06-21T12:35:08Z</time>
      </trkpt>
      <trkpt lat="44.23454" lon="3.52073">
        <ele>1140</ele>
        <time>2013-06-21T12:35:16Z</time>
      </trkpt>
      <trkpt lat="44.23455" lon="3.5208">
        <ele>1140</ele>
        <time>2013-06-21T12:35:22Z</time>
      </trkpt>
      <trkpt lat="44.23454" lon="3.52085">
        <ele>1139</ele>
        <time>2013-06-21T12:35:25Z</time>
      </trkpt>
      <trkpt lat="44.23462" lon="3.52108">
        <ele>1134</ele>
        <time>2013-06-21T12:35:40Z</time>
      </trkpt>
      <trkpt lat="44.23468" lon="3.52125">
        <ele>1130</ele>
        <time>2013-06-21T12:35:55Z</time>
      </trkpt>
      <trkpt lat="44.23469" lon="3.52125">
        <ele>1130</ele>
        <time>2013-06-21T12:35:56Z</time>
      </trkpt>
      <trkpt lat="44.23475" lon="3.52139">
        <ele>1128</ele>
        <time>2013-06-21T12:36:06Z</time>
      </trkpt>
      <trkpt lat="44.23477" lon="3.52146">
        <ele>1126</ele>
        <time>2013-06-21T12:36:10Z</time>
      </trkpt>
      <trkpt lat="44.23478" lon="3.52151">
        <ele>1127</ele>
        <time>2013-06-21T12:36:14Z</time>
      </trkpt>
      <trkpt lat="44.23481" lon="3.52168">
        <ele>1127</ele>
        <time>2013-06-21T12:36:25Z</time>
      </trkpt>
      <trkpt lat="44.23483" lon="3.52192">
        <ele>1127</ele>
        <time>2013-06-21T12:36:40Z</time>
      </trkpt>
      <trkpt lat="44.23485" lon="3.52203">
        <ele>1129</ele>
        <time>2013-06-21T12:36:47Z</time>
      </trkpt>
      <trkpt lat="44.23483" lon="3.52209">
        <ele>1129</ele>
        <time>2013-06-21T12:36:52Z</time>
      </trkpt>
      <trkpt lat="44.23476" lon="3.52234">
        <ele>1136</ele>
        <time>2013-06-21T12:37:07Z</time>
      </trkpt>
      <trkpt lat="44.23479" lon="3.52237">
        <ele>1136</ele>
        <time>2013-06-21T12:37:17Z</time>
      </trkpt>
      <trkpt lat="44.23471" lon="3.52243">
        <ele>1138</ele>
        <time>2013-06-21T12:37:33Z</time>
      </trkpt>
      <trkpt lat="44.23455" lon="3.52262">
        <ele>1138</ele>
        <time>2013-06-21T12:37:47Z</time>
      </trkpt>
      <trkpt lat="44.23437" lon="3.52275">
        <ele>1137</ele>
        <time>2013-06-21T12:38:01Z</time>
      </trkpt>
      <trkpt lat="44.23433" lon="3.52284">
        <ele>1136</ele>
        <time>2013-06-21T12:38:14Z</time>
      </trkpt>
      <trkpt lat="44.2343" lon="3.52284">
        <ele>1135</ele>
        <time>2013-06-21T12:38:45Z</time>
      </trkpt>
      <trkpt lat="44.23418" lon="3.5229">
        <ele>1136</ele>
        <time>2013-06-21T12:38:58Z</time>
      </trkpt>
      <trkpt lat="44.23416" lon="3.52291">
        <ele>1137</ele>
        <time>2013-06-21T12:39:00Z</time>
      </trkpt>
      <trkpt lat="44.23413" lon="3.52292">
        <ele>1137</ele>
        <time>2013-06-21T12:39:02Z</time>
      </trkpt>
      <trkpt lat="44.23406" lon="3.52296">
        <ele>1137</ele>
        <time>2013-06-21T12:39:09Z</time>
      </trkpt>
      <trkpt lat="44.23386" lon="3.52306">
        <ele>1136</ele>
        <time>2013-06-21T12:39:27Z</time>
      </trkpt>
      <trkpt lat="44.23365" lon="3.52313">
        <ele>1134</ele>
        <time>2013-06-21T12:39:44Z</time>
      </trkpt>
      <trkpt lat="44.23354" lon="3.52318">
        <ele>1132</ele>
        <time>2013-06-21T12:39:55Z</time>
      </trkpt>
      <trkpt lat="44.23335" lon="3.52332">
        <ele>1131</ele>
        <time>2013-06-21T12:40:14Z</time>
      </trkpt>
      <trkpt lat="44.23316" lon="3.52347">
        <ele>1132</ele>
        <time>2013-06-21T12:40:31Z</time>
      </trkpt>
      <trkpt lat="44.23296" lon="3.52361">
        <ele>1130</ele>
        <time>2013-06-21T12:40:48Z</time>
      </trkpt>
      <trkpt lat="44.23288" lon="3.52368">
        <ele>1131</ele>
        <time>2013-06-21T12:41:06Z</time>
      </trkpt>
      <trkpt lat="44.23279" lon="3.52371">
        <ele>1130</ele>
        <time>2013-06-21T12:41:13Z</time>
      </trkpt>
      <trkpt lat="44.23262" lon="3.52379">
        <ele>1128</ele>
        <time>2013-06-21T12:41:27Z</time>
      </trkpt>
      <trkpt lat="44.23241" lon="3.52389">
        <ele>1125</ele>
        <time>2013-06-21T12:41:45Z</time>
      </trkpt>
      <trkpt lat="44.23228" lon="3.52393">
        <ele>1124</ele>
        <time>2013-06-21T12:42:00Z</time>
      </trkpt>
      <trkpt lat="44.23202" lon="3.52398">
        <ele>1123</ele>
        <time>2013-06-21T12:42:18Z</time>
      </trkpt>
      <trkpt lat="44.23181" lon="3.52406">
        <ele>1121</ele>
        <time>2013-06-21T12:42:36Z</time>
      </trkpt>
      <trkpt lat="44.23158" lon="3.52421">
        <ele>1121</ele>
        <time>2013-06-21T12:42:55Z</time>
      </trkpt>
      <trkpt lat="44.23139" lon="3.52431">
        <ele>1123</ele>
        <time>2013-06-21T12:43:10Z</time>
      </trkpt>
      <trkpt lat="44.23131" lon="3.52436">
        <ele>1124</ele>
        <time>2013-06-21T12:43:23Z</time>
      </trkpt>
      <trkpt lat="44.23111" lon="3.5245">
        <ele>1126</ele>
        <time>2013-06-21T12:43:40Z</time>
      </trkpt>
      <trkpt lat="44.231" lon="3.52456">
        <ele>1123</ele>
        <time>2013-06-21T12:43:56Z</time>
      </trkpt>
      <trkpt lat="44.23099" lon="3.52457">
        <ele>1123</ele>
        <time>2013-06-21T12:43:59Z</time>
      </trkpt>
      <trkpt lat="44.23085" lon="3.52469">
        <ele>1122</ele>
        <time>2013-06-21T12:44:15Z</time>
      </trkpt>
      <trkpt lat="44.23083" lon="3.52469">
        <ele>1121</ele>
        <time>2013-06-21T12:44:19Z</time>
      </trkpt>
      <trkpt lat="44.23066" lon="3.52479">
        <ele>1120</ele>
        <time>2013-06-21T12:44:35Z</time>
      </trkpt>
      <trkpt lat="44.23064" lon="3.5248">
        <ele>1120</ele>
        <time>2013-06-21T12:44:37Z</time>
      </trkpt>
      <trkpt lat="44.23051" lon="3.52489">
        <ele>1120</ele>
        <time>2013-06-21T12:44:54Z</time>
      </trkpt>
      <trkpt lat="44.23042" lon="3.52493">
        <ele>1120</ele>
        <time>2013-06-21T12:46:16Z</time>
      </trkpt>
      <trkpt lat="44.23039" lon="3.52495">
        <ele>1120</ele>
        <time>2013-06-21T12:46:24Z</time>
      </trkpt>
      <trkpt lat="44.23025" lon="3.52504">
        <ele>1118</ele>
        <time>2013-06-21T12:46:40Z</time>
      </trkpt>
      <trkpt lat="44.23016" lon="3.52517">
        <ele>1117</ele>
        <time>2013-06-21T12:47:53Z</time>
      </trkpt>
      <trkpt lat="44.2301" lon="3.52521">
        <ele>1116</ele>
        <time>2013-06-21T12:47:57Z</time>
      </trkpt>
      <trkpt lat="44.22997" lon="3.5253">
        <ele>1116</ele>
        <time>2013-06-21T12:48:07Z</time>
      </trkpt>
      <trkpt lat="44.22983" lon="3.52543">
        <ele>1115</ele>
        <time>2013-06-21T12:48:20Z</time>
      </trkpt>
      <trkpt lat="44.22982" lon="3.52543">
        <ele>1115</ele>
        <time>2013-06-21T12:48:21Z</time>
      </trkpt>
      <trkpt lat="44.22966" lon="3.52555">
        <ele>1112</ele>
        <time>2013-06-21T12:48:36Z</time>
      </trkpt>
      <trkpt lat="44.22958" lon="3.52564">
        <ele>1110</ele>
        <time>2013-06-21T12:48:43Z</time>
      </trkpt>
      <trkpt lat="44.22947" lon="3.52564">
        <ele>1110</ele>
        <time>2013-06-21T12:48:51Z</time>
      </trkpt>
      <trkpt lat="44.22943" lon="3.52563">
        <ele>1109</ele>
        <time>2013-06-21T12:49:07Z</time>
      </trkpt>
      <trkpt lat="44.22943" lon="3.52551">
        <ele>1110</ele>
        <time>2013-06-21T12:49:26Z</time>
      </trkpt>
      <trkpt lat="44.22946" lon="3.52535">
        <ele>1111</ele>
        <time>2013-06-21T12:49:39Z</time>
      </trkpt>
      <trkpt lat="44.22948" lon="3.52526">
        <ele>1113</ele>
        <time>2013-06-21T12:49:46Z</time>
      </trkpt>
      <trkpt lat="44.22942" lon="3.52525">
        <ele>1114</ele>
        <time>2013-06-21T12:49:58Z</time>
      </trkpt>
      <trkpt lat="44.2293" lon="3.52525">
        <ele>1118</ele>
        <time>2013-06-21T12:50:14Z</time>
      </trkpt>
      <trkpt lat="44.22935" lon="3.52521">
        <ele>1113</ele>
        <time>2013-06-21T12:50:35Z</time>
      </trkpt>
      <trkpt lat="44.22935" lon="3.52519">
        <ele>1111</ele>
        <time>2013-06-21T12:50:50Z</time>
      </trkpt>
      <trkpt lat="44.22944" lon="3.5251">
        <ele>1109</ele>
        <time>2013-06-21T12:50:59Z</time>
      </trkpt>
      <trkpt lat="44.22951" lon="3.52496">
        <ele>1108</ele>
        <time>2013-06-21T12:51:12Z</time>
      </trkpt>
      <trkpt lat="44.22953" lon="3.52491">
        <ele>1106</ele>
        <time>2013-06-21T12:51:16Z</time>
      </trkpt>
      <trkpt lat="44.2295" lon="3.52481">
        <ele>1105</ele>
        <time>2013-06-21T12:51:25Z</time>
      </trkpt>
      <trkpt lat="44.22936" lon="3.52469">
        <ele>1105</ele>
        <time>2013-06-21T12:51:37Z</time>
      </trkpt>
      <trkpt lat="44.22929" lon="3.52468">
        <ele>1105</ele>
        <time>2013-06-21T12:51:52Z</time>
      </trkpt>
      <trkpt lat="44.22927" lon="3.52467">
        <ele>1107</ele>
        <time>2013-06-21T12:52:11Z</time>
      </trkpt>
      <trkpt lat="44.22924" lon="3.52466">
        <ele>1106</ele>
        <time>2013-06-21T12:52:33Z</time>
      </trkpt>
      <trkpt lat="44.22912" lon="3.52466">
        <ele>1104</ele>
        <time>2013-06-21T12:53:02Z</time>
      </trkpt>
      <trkpt lat="44.22899" lon="3.52465">
        <ele>1100</ele>
        <time>2013-06-21T12:53:13Z</time>
      </trkpt>
      <trkpt lat="44.2289" lon="3.52463">
        <ele>1097</ele>
        <time>2013-06-21T12:53:21Z</time>
      </trkpt>
      <trkpt lat="44.22887" lon="3.52456">
        <ele>1092</ele>
        <time>2013-06-21T12:53:27Z</time>
      </trkpt>
      <trkpt lat="44.22882" lon="3.52455">
        <ele>1091</ele>
        <time>2013-06-21T12:53:30Z</time>
      </trkpt>
      <trkpt lat="44.22877" lon="3.52453">
        <ele>1090</ele>
        <time>2013-06-21T12:53:34Z</time>
      </trkpt>
      <trkpt lat="44.22876" lon="3.5245">
        <ele>1088</ele>
        <time>2013-06-21T12:53:36Z</time>
      </trkpt>
      <trkpt lat="44.22878" lon="3.52448">
        <ele>1089</ele>
        <time>2013-06-21T12:53:38Z</time>
      </trkpt>
      <trkpt lat="44.22889" lon="3.52432">
        <ele>1085</ele>
        <time>2013-06-21T12:53:49Z</time>
      </trkpt>
      <trkpt lat="44.22893" lon="3.52426">
        <ele>1085</ele>
        <time>2013-06-21T12:54:01Z</time>
      </trkpt>
      <trkpt lat="44.22892" lon="3.52426">
        <ele>1086</ele>
        <time>2013-06-21T12:54:11Z</time>
      </trkpt>
      <trkpt lat="44.22901" lon="3.52406">
        <ele>1087</ele>
        <time>2013-06-21T12:54:27Z</time>
      </trkpt>
      <trkpt lat="44.22899" lon="3.52405">
        <ele>1089</ele>
        <time>2013-06-21T12:54:55Z</time>
      </trkpt>
      <trkpt lat="44.22898" lon="3.52413">
        <ele>1087</ele>
        <time>2013-06-21T12:55:08Z</time>
      </trkpt>
      <trkpt lat="44.22903" lon="3.52406">
        <ele>1083</ele>
        <time>2013-06-21T12:55:25Z</time>
      </trkpt>
      <trkpt lat="44.22905" lon="3.52405">
        <ele>1083</ele>
        <time>2013-06-21T12:56:14Z</time>
      </trkpt>
      <trkpt lat="44.22911" lon="3.52397">
        <ele>1083</ele>
        <time>2013-06-21T12:56:21Z</time>
      </trkpt>
      <trkpt lat="44.22914" lon="3.52392">
        <ele>1081</ele>
        <time>2013-06-21T12:56:37Z</time>
      </trkpt>
      <trkpt lat="44.22905" lon="3.52397">
        <ele>1081</ele>
        <time>2013-06-21T12:56:55Z</time>
      </trkpt>
      <trkpt lat="44.22897" lon="3.52391">
        <ele>1081</ele>
        <time>2013-06-21T12:57:14Z</time>
      </trkpt>
      <trkpt lat="44.2289" lon="3.52372">
        <ele>1081</ele>
        <time>2013-06-21T12:57:35Z</time>
      </trkpt>
      <trkpt lat="44.22877" lon="3.52368">
        <ele>1080</ele>
        <time>2013-06-21T12:57:48Z</time>
      </trkpt>
      <trkpt lat="44.22873" lon="3.52366">
        <ele>1080</ele>
        <time>2013-06-21T12:57:50Z</time>
      </trkpt>
      <trkpt lat="44.22866" lon="3.52377">
        <ele>1080</ele>
        <time>2013-06-21T12:58:01Z</time>
      </trkpt>
      <trkpt lat="44.2287" lon="3.52374">
        <ele>1082</ele>
        <time>2013-06-21T12:58:19Z</time>
      </trkpt>
      <trkpt lat="44.22872" lon="3.52375">
        <ele>1094</ele>
        <time>2013-06-21T13:15:13Z</time>
      </trkpt>
      <trkpt lat="44.22873" lon="3.52357">
        <ele>1083</ele>
        <time>2013-06-21T13:21:38Z</time>
      </trkpt>
      <trkpt lat="44.22873" lon="3.5234">
        <ele>1077</ele>
        <time>2013-06-21T13:21:53Z</time>
      </trkpt>
      <trkpt lat="44.22872" lon="3.52339">
        <ele>1077</ele>
        <time>2013-06-21T13:21:54Z</time>
      </trkpt>
      <trkpt lat="44.22871" lon="3.52326">
        <ele>1074</ele>
        <time>2013-06-21T13:22:00Z</time>
      </trkpt>
      <trkpt lat="44.22871" lon="3.52314">
        <ele>1072</ele>
        <time>2013-06-21T13:22:07Z</time>
      </trkpt>
      <trkpt lat="44.22868" lon="3.52295">
        <ele>1069</ele>
        <time>2013-06-21T13:22:19Z</time>
      </trkpt>
      <trkpt lat="44.22865" lon="3.5227">
        <ele>1067</ele>
        <time>2013-06-21T13:22:34Z</time>
      </trkpt>
      <trkpt lat="44.22863" lon="3.52245">
        <ele>1064</ele>
        <time>2013-06-21T13:22:48Z</time>
      </trkpt>
      <trkpt lat="44.2286" lon="3.52229">
        <ele>1063</ele>
        <time>2013-06-21T13:22:57Z</time>
      </trkpt>
      <trkpt lat="44.2286" lon="3.52202">
        <ele>1063</ele>
        <time>2013-06-21T13:23:12Z</time>
      </trkpt>
      <trkpt lat="44.22856" lon="3.52174">
        <ele>1062</ele>
        <time>2013-06-21T13:23:27Z</time>
      </trkpt>
      <trkpt lat="44.22854" lon="3.5215">
        <ele>1061</ele>
        <time>2013-06-21T13:23:41Z</time>
      </trkpt>
      <trkpt lat="44.22853" lon="3.52121">
        <ele>1059</ele>
        <time>2013-06-21T13:23:57Z</time>
      </trkpt>
      <trkpt lat="44.22851" lon="3.52095">
        <ele>1058</ele>
        <time>2013-06-21T13:24:11Z</time>
      </trkpt>
      <trkpt lat="44.22852" lon="3.52084">
        <ele>1059</ele>
        <time>2013-06-21T13:24:22Z</time>
      </trkpt>
      <trkpt lat="44.22842" lon="3.5206">
        <ele>1057</ele>
        <time>2013-06-21T13:24:36Z</time>
      </trkpt>
      <trkpt lat="44.22833" lon="3.52041">
        <ele>1057</ele>
        <time>2013-06-21T13:24:49Z</time>
      </trkpt>
      <trkpt lat="44.2282" lon="3.52022">
        <ele>1053</ele>
        <time>2013-06-21T13:25:04Z</time>
      </trkpt>
      <trkpt lat="44.22811" lon="3.52009">
        <ele>1054</ele>
        <time>2013-06-21T13:25:16Z</time>
      </trkpt>
      <trkpt lat="44.22803" lon="3.51995">
        <ele>1053</ele>
        <time>2013-06-21T13:25:33Z</time>
      </trkpt>
      <trkpt lat="44.228" lon="3.51991">
        <ele>1054</ele>
        <time>2013-06-21T13:25:53Z</time>
      </trkpt>
      <trkpt lat="44.22798" lon="3.51988">
        <ele>1054</ele>
        <time>2013-06-21T13:25:58Z</time>
      </trkpt>
      <trkpt lat="44.22796" lon="3.51982">
        <ele>1053</ele>
        <time>2013-06-21T13:26:10Z</time>
      </trkpt>
      <trkpt lat="44.22795" lon="3.51981">
        <ele>1053</ele>
        <time>2013-06-21T13:26:11Z</time>
      </trkpt>
      <trkpt lat="44.2279" lon="3.51963">
        <ele>1052</ele>
        <time>2013-06-21T13:26:24Z</time>
      </trkpt>
      <trkpt lat="44.22784" lon="3.51942">
        <ele>1052</ele>
        <time>2013-06-21T13:26:36Z</time>
      </trkpt>
      <trkpt lat="44.2278" lon="3.51936">
        <ele>1051</ele>
        <time>2013-06-21T13:26:42Z</time>
      </trkpt>
      <trkpt lat="44.22771" lon="3.51924">
        <ele>1050</ele>
        <time>2013-06-21T13:26:57Z</time>
      </trkpt>
      <trkpt lat="44.2276" lon="3.51909">
        <ele>1048</ele>
        <time>2013-06-21T13:27:12Z</time>
      </trkpt>
      <trkpt lat="44.22743" lon="3.51898">
        <ele>1047</ele>
        <time>2013-06-21T13:27:27Z</time>
      </trkpt>
      <trkpt lat="44.22731" lon="3.5188">
        <ele>1049</ele>
        <time>2013-06-21T13:27:41Z</time>
      </trkpt>
      <trkpt lat="44.22722" lon="3.51864">
        <ele>1048</ele>
        <time>2013-06-21T13:27:55Z</time>
      </trkpt>
      <trkpt lat="44.22716" lon="3.51852">
        <ele>1049</ele>
        <time>2013-06-21T13:28:05Z</time>
      </trkpt>
      <trkpt lat="44.22707" lon="3.51826">
        <ele>1048</ele>
        <time>2013-06-21T13:28:21Z</time>
      </trkpt>
      <trkpt lat="44.22705" lon="3.51806">
        <ele>1048</ele>
        <time>2013-06-21T13:28:35Z</time>
      </trkpt>
      <trkpt lat="44.22703" lon="3.51795">
        <ele>1048</ele>
        <time>2013-06-21T13:28:44Z</time>
      </trkpt>
      <trkpt lat="44.227" lon="3.5179">
        <ele>1047</ele>
        <time>2013-06-21T13:28:48Z</time>
      </trkpt>
      <trkpt lat="44.22698" lon="3.51781">
        <ele>1047</ele>
        <time>2013-06-21T13:28:54Z</time>
      </trkpt>
      <trkpt lat="44.22692" lon="3.51759">
        <ele>1047</ele>
        <time>2013-06-21T13:29:08Z</time>
      </trkpt>
      <trkpt lat="44.22691" lon="3.51754">
        <ele>1047</ele>
        <time>2013-06-21T13:29:11Z</time>
      </trkpt>
      <trkpt lat="44.22687" lon="3.51731">
        <ele>1047</ele>
        <time>2013-06-21T13:29:26Z</time>
      </trkpt>
      <trkpt lat="44.22686" lon="3.51727">
        <ele>1046</ele>
        <time>2013-06-21T13:29:29Z</time>
      </trkpt>
      <trkpt lat="44.2268" lon="3.51704">
        <ele>1045</ele>
        <time>2013-06-21T13:29:44Z</time>
      </trkpt>
      <trkpt lat="44.22673" lon="3.51686">
        <ele>1047</ele>
        <time>2013-06-21T13:29:58Z</time>
      </trkpt>
      <trkpt lat="44.22668" lon="3.51671">
        <ele>1045</ele>
        <time>2013-06-21T13:30:11Z</time>
      </trkpt>
      <trkpt lat="44.22663" lon="3.51652">
        <ele>1047</ele>
        <time>2013-06-21T13:30:22Z</time>
      </trkpt>
      <trkpt lat="44.22662" lon="3.5165">
        <ele>1047</ele>
        <time>2013-06-21T13:30:24Z</time>
      </trkpt>
      <trkpt lat="44.2266" lon="3.5164">
        <ele>1048</ele>
        <time>2013-06-21T13:30:29Z</time>
      </trkpt>
      <trkpt lat="44.2265" lon="3.51623">
        <ele>1050</ele>
        <time>2013-06-21T13:30:42Z</time>
      </trkpt>
      <trkpt lat="44.22647" lon="3.51613">
        <ele>1049</ele>
        <time>2013-06-21T13:30:54Z</time>
      </trkpt>
      <trkpt lat="44.22646" lon="3.51612">
        <ele>1053</ele>
        <time>2013-06-21T13:31:23Z</time>
      </trkpt>
      <trkpt lat="44.22644" lon="3.51613">
        <ele>1054</ele>
        <time>2013-06-21T13:31:32Z</time>
      </trkpt>
      <trkpt lat="44.22641" lon="3.51611">
        <ele>1054</ele>
        <time>2013-06-21T13:31:35Z</time>
      </trkpt>
      <trkpt lat="44.22638" lon="3.51606">
        <ele>1052</ele>
        <time>2013-06-21T13:31:39Z</time>
      </trkpt>
      <trkpt lat="44.22633" lon="3.51594">
        <ele>1049</ele>
        <time>2013-06-21T13:31:46Z</time>
      </trkpt>
      <trkpt lat="44.22634" lon="3.51584">
        <ele>1047</ele>
        <time>2013-06-21T13:31:52Z</time>
      </trkpt>
      <trkpt lat="44.22637" lon="3.5156">
        <ele>1042</ele>
        <time>2013-06-21T13:32:07Z</time>
      </trkpt>
      <trkpt lat="44.22637" lon="3.51559">
        <ele>1042</ele>
        <time>2013-06-21T13:32:08Z</time>
      </trkpt>
      <trkpt lat="44.22636" lon="3.51555">
        <ele>1042</ele>
        <time>2013-06-21T13:32:11Z</time>
      </trkpt>
      <trkpt lat="44.22633" lon="3.51549">
        <ele>1042</ele>
        <time>2013-06-21T13:32:16Z</time>
      </trkpt>
      <trkpt lat="44.22622" lon="3.51533">
        <ele>1045</ele>
        <time>2013-06-21T13:32:30Z</time>
      </trkpt>
      <trkpt lat="44.22613" lon="3.51526">
        <ele>1046</ele>
        <time>2013-06-21T13:32:44Z</time>
      </trkpt>
      <trkpt lat="44.22603" lon="3.51513">
        <ele>1047</ele>
        <time>2013-06-21T13:33:09Z</time>
      </trkpt>
      <trkpt lat="44.22595" lon="3.51497">
        <ele>1048</ele>
        <time>2013-06-21T13:33:28Z</time>
      </trkpt>
      <trkpt lat="44.22592" lon="3.51484">
        <ele>1048</ele>
        <time>2013-06-21T13:33:41Z</time>
      </trkpt>
      <trkpt lat="44.22589" lon="3.51466">
        <ele>1051</ele>
        <time>2013-06-21T13:33:57Z</time>
      </trkpt>
      <trkpt lat="44.22588" lon="3.51458">
        <ele>1054</ele>
        <time>2013-06-21T13:34:14Z</time>
      </trkpt>
      <trkpt lat="44.22579" lon="3.51441">
        <ele>1053</ele>
        <time>2013-06-21T13:34:27Z</time>
      </trkpt>
      <trkpt lat="44.22574" lon="3.51422">
        <ele>1054</ele>
        <time>2013-06-21T13:34:40Z</time>
      </trkpt>
      <trkpt lat="44.22573" lon="3.51414">
        <ele>1054</ele>
        <time>2013-06-21T13:34:46Z</time>
      </trkpt>
      <trkpt lat="44.22572" lon="3.51412">
        <ele>1055</ele>
        <time>2013-06-21T13:34:48Z</time>
      </trkpt>
      <trkpt lat="44.22561" lon="3.51394">
        <ele>1057</ele>
        <time>2013-06-21T13:35:00Z</time>
      </trkpt>
      <trkpt lat="44.22555" lon="3.51386">
        <ele>1058</ele>
        <time>2013-06-21T13:35:08Z</time>
      </trkpt>
      <trkpt lat="44.22541" lon="3.51373">
        <ele>1060</ele>
        <time>2013-06-21T13:35:22Z</time>
      </trkpt>
      <trkpt lat="44.22535" lon="3.51364">
        <ele>1063</ele>
        <time>2013-06-21T13:35:33Z</time>
      </trkpt>
      <trkpt lat="44.22535" lon="3.51364">
        <ele>1065</ele>
        <time>2013-06-21T13:36:38Z</time>
      </trkpt>
      <trkpt lat="44.22535" lon="3.5136">
        <ele>1066</ele>
        <time>2013-06-21T13:36:45Z</time>
      </trkpt>
      <trkpt lat="44.22534" lon="3.51356">
        <ele>1066</ele>
        <time>2013-06-21T13:36:48Z</time>
      </trkpt>
      <trkpt lat="44.22535" lon="3.51351">
        <ele>1065</ele>
        <time>2013-06-21T13:36:51Z</time>
      </trkpt>
      <trkpt lat="44.22538" lon="3.51342">
        <ele>1065</ele>
        <time>2013-06-21T13:36:59Z</time>
      </trkpt>
      <trkpt lat="44.22541" lon="3.51335">
        <ele>1066</ele>
        <time>2013-06-21T13:37:05Z</time>
      </trkpt>
      <trkpt lat="44.22552" lon="3.51316">
        <ele>1069</ele>
        <time>2013-06-21T13:37:20Z</time>
      </trkpt>
      <trkpt lat="44.22559" lon="3.51311">
        <ele>1073</ele>
        <time>2013-06-21T13:37:34Z</time>
      </trkpt>
      <trkpt lat="44.22559" lon="3.51309">
        <ele>1075</ele>
        <time>2013-06-21T13:37:44Z</time>
      </trkpt>
      <trkpt lat="44.22567" lon="3.51293">
        <ele>1076</ele>
        <time>2013-06-21T13:37:57Z</time>
      </trkpt>
      <trkpt lat="44.2256" lon="3.51275">
        <ele>1075</ele>
        <time>2013-06-21T13:38:12Z</time>
      </trkpt>
      <trkpt lat="44.22558" lon="3.51272">
        <ele>1074</ele>
        <time>2013-06-21T13:38:19Z</time>
      </trkpt>
      <trkpt lat="44.22544" lon="3.51258">
        <ele>1073</ele>
        <time>2013-06-21T13:38:33Z</time>
      </trkpt>
      <trkpt lat="44.22535" lon="3.51234">
        <ele>1074</ele>
        <time>2013-06-21T13:38:48Z</time>
      </trkpt>
      <trkpt lat="44.22533" lon="3.51225">
        <ele>1076</ele>
        <time>2013-06-21T13:38:56Z</time>
      </trkpt>
      <trkpt lat="44.22532" lon="3.51217">
        <ele>1077</ele>
        <time>2013-06-21T13:39:01Z</time>
      </trkpt>
      <trkpt lat="44.2253" lon="3.51192">
        <ele>1077</ele>
        <time>2013-06-21T13:39:16Z</time>
      </trkpt>
      <trkpt lat="44.22525" lon="3.51184">
        <ele>1075</ele>
        <time>2013-06-21T13:39:31Z</time>
      </trkpt>
      <trkpt lat="44.22525" lon="3.51183">
        <ele>1075</ele>
        <time>2013-06-21T13:39:51Z</time>
      </trkpt>
      <trkpt lat="44.22525" lon="3.51157">
        <ele>1076</ele>
        <time>2013-06-21T13:40:04Z</time>
      </trkpt>
      <trkpt lat="44.22524" lon="3.51147">
        <ele>1075</ele>
        <time>2013-06-21T13:40:10Z</time>
      </trkpt>
      <trkpt lat="44.22513" lon="3.51129">
        <ele>1074</ele>
        <time>2013-06-21T13:40:24Z</time>
      </trkpt>
      <trkpt lat="44.22512" lon="3.51129">
        <ele>1074</ele>
        <time>2013-06-21T13:40:25Z</time>
      </trkpt>
      <trkpt lat="44.22504" lon="3.51114">
        <ele>1075</ele>
        <time>2013-06-21T13:40:38Z</time>
      </trkpt>
      <trkpt lat="44.22491" lon="3.51097">
        <ele>1074</ele>
        <time>2013-06-21T13:40:52Z</time>
      </trkpt>
      <trkpt lat="44.22476" lon="3.51083">
        <ele>1077</ele>
        <time>2013-06-21T13:41:06Z</time>
      </trkpt>
      <trkpt lat="44.22461" lon="3.51081">
        <ele>1078</ele>
        <time>2013-06-21T13:41:23Z</time>
      </trkpt>
      <trkpt lat="44.22461" lon="3.51081">
        <ele>1078</ele>
        <time>2013-06-21T13:41:30Z</time>
      </trkpt>
      <trkpt lat="44.22476" lon="3.51084">
        <ele>1080</ele>
        <time>2013-06-21T13:41:42Z</time>
      </trkpt>
      <trkpt lat="44.2248" lon="3.51082">
        <ele>1080</ele>
        <time>2013-06-21T13:41:46Z</time>
      </trkpt>
      <trkpt lat="44.22481" lon="3.51078">
        <ele>1080</ele>
        <time>2013-06-21T13:41:49Z</time>
      </trkpt>
      <trkpt lat="44.22475" lon="3.51061">
        <ele>1078</ele>
        <time>2013-06-21T13:42:02Z</time>
      </trkpt>
      <trkpt lat="44.22473" lon="3.51059">
        <ele>1078</ele>
        <time>2013-06-21T13:42:04Z</time>
      </trkpt>
      <trkpt lat="44.22459" lon="3.51049">
        <ele>1080</ele>
        <time>2013-06-21T13:42:19Z</time>
      </trkpt>
      <trkpt lat="44.22449" lon="3.51041">
        <ele>1083</ele>
        <time>2013-06-21T13:42:29Z</time>
      </trkpt>
      <trkpt lat="44.22441" lon="3.51027">
        <ele>1087</ele>
        <time>2013-06-21T13:42:45Z</time>
      </trkpt>
      <trkpt lat="44.22436" lon="3.51022">
        <ele>1087</ele>
        <time>2013-06-21T13:42:51Z</time>
      </trkpt>
      <trkpt lat="44.22428" lon="3.51005">
        <ele>1090</ele>
        <time>2013-06-21T13:43:04Z</time>
      </trkpt>
      <trkpt lat="44.2242" lon="3.50995">
        <ele>1092</ele>
        <time>2013-06-21T13:43:18Z</time>
      </trkpt>
      <trkpt lat="44.22417" lon="3.50995">
        <ele>1091</ele>
        <time>2013-06-21T13:43:20Z</time>
      </trkpt>
      <trkpt lat="44.224" lon="3.50986">
        <ele>1091</ele>
        <time>2013-06-21T13:43:37Z</time>
      </trkpt>
      <trkpt lat="44.22392" lon="3.50971">
        <ele>1094</ele>
        <time>2013-06-21T13:43:50Z</time>
      </trkpt>
      <trkpt lat="44.22385" lon="3.50976">
        <ele>1096</ele>
        <time>2013-06-21T13:44:04Z</time>
      </trkpt>
      <trkpt lat="44.22382" lon="3.50968">
        <ele>1096</ele>
        <time>2013-06-21T13:44:44Z</time>
      </trkpt>
      <trkpt lat="44.22382" lon="3.50952">
        <ele>1096</ele>
        <time>2013-06-21T13:44:55Z</time>
      </trkpt>
      <trkpt lat="44.22382" lon="3.50935">
        <ele>1097</ele>
        <time>2013-06-21T13:45:11Z</time>
      </trkpt>
      <trkpt lat="44.2238" lon="3.50919">
        <ele>1097</ele>
        <time>2013-06-21T13:45:31Z</time>
      </trkpt>
      <trkpt lat="44.22381" lon="3.50915">
        <ele>1097</ele>
        <time>2013-06-21T13:45:34Z</time>
      </trkpt>
      <trkpt lat="44.22384" lon="3.50899">
        <ele>1097</ele>
        <time>2013-06-21T13:45:50Z</time>
      </trkpt>
      <trkpt lat="44.22384" lon="3.50895">
        <ele>1097</ele>
        <time>2013-06-21T13:45:52Z</time>
      </trkpt>
      <trkpt lat="44.22382" lon="3.50874">
        <ele>1097</ele>
        <time>2013-06-21T13:46:09Z</time>
      </trkpt>
      <trkpt lat="44.2237" lon="3.50861">
        <ele>1097</ele>
        <time>2013-06-21T13:46:23Z</time>
      </trkpt>
      <trkpt lat="44.22362" lon="3.50845">
        <ele>1097</ele>
        <time>2013-06-21T13:46:39Z</time>
      </trkpt>
      <trkpt lat="44.22349" lon="3.50833">
        <ele>1098</ele>
        <time>2013-06-21T13:46:55Z</time>
      </trkpt>
      <trkpt lat="44.22348" lon="3.50832">
        <ele>1098</ele>
        <time>2013-06-21T13:46:56Z</time>
      </trkpt>
      <trkpt lat="44.22344" lon="3.5082">
        <ele>1098</ele>
        <time>2013-06-21T13:47:08Z</time>
      </trkpt>
      <trkpt lat="44.22353" lon="3.50807">
        <ele>1099</ele>
        <time>2013-06-21T13:47:23Z</time>
      </trkpt>
      <trkpt lat="44.22359" lon="3.50788">
        <ele>1100</ele>
        <time>2013-06-21T13:47:38Z</time>
      </trkpt>
      <trkpt lat="44.22359" lon="3.50769">
        <ele>1102</ele>
        <time>2013-06-21T13:47:48Z</time>
      </trkpt>
      <trkpt lat="44.2236" lon="3.50763">
        <ele>1103</ele>
        <time>2013-06-21T13:47:52Z</time>
      </trkpt>
      <trkpt lat="44.22365" lon="3.50742">
        <ele>1105</ele>
        <time>2013-06-21T13:48:07Z</time>
      </trkpt>
      <trkpt lat="44.22366" lon="3.50734">
        <ele>1105</ele>
        <time>2013-06-21T13:48:13Z</time>
      </trkpt>
      <trkpt lat="44.22366" lon="3.50714">
        <ele>1107</ele>
        <time>2013-06-21T13:48:30Z</time>
      </trkpt>
      <trkpt lat="44.22367" lon="3.50706">
        <ele>1107</ele>
        <time>2013-06-21T13:48:36Z</time>
      </trkpt>
      <trkpt lat="44.22361" lon="3.50697">
        <ele>1109</ele>
        <time>2013-06-21T13:48:48Z</time>
      </trkpt>
      <trkpt lat="44.22363" lon="3.50689">
        <ele>1109</ele>
        <time>2013-06-21T13:49:02Z</time>
      </trkpt>
      <trkpt lat="44.22363" lon="3.50682">
        <ele>1109</ele>
        <time>2013-06-21T13:49:05Z</time>
      </trkpt>
      <trkpt lat="44.22363" lon="3.50677">
        <ele>1110</ele>
        <time>2013-06-21T13:49:09Z</time>
      </trkpt>
      <trkpt lat="44.22366" lon="3.50659">
        <ele>1110</ele>
        <time>2013-06-21T13:49:22Z</time>
      </trkpt>
      <trkpt lat="44.22363" lon="3.50639">
        <ele>1108</ele>
        <time>2013-06-21T13:49:35Z</time>
      </trkpt>
      <trkpt lat="44.22359" lon="3.50631">
        <ele>1109</ele>
        <time>2013-06-21T13:49:41Z</time>
      </trkpt>
      <trkpt lat="44.22359" lon="3.50627">
        <ele>1109</ele>
        <time>2013-06-21T13:49:44Z</time>
      </trkpt>
      <trkpt lat="44.2236" lon="3.50625">
        <ele>1109</ele>
        <time>2013-06-21T13:49:46Z</time>
      </trkpt>
      <trkpt lat="44.22356" lon="3.50618">
        <ele>1114</ele>
        <time>2013-06-21T13:50:01Z</time>
      </trkpt>
      <trkpt lat="44.22354" lon="3.50615">
        <ele>1113</ele>
        <time>2013-06-21T13:50:03Z</time>
      </trkpt>
      <trkpt lat="44.22352" lon="3.50606">
        <ele>1115</ele>
        <time>2013-06-21T13:50:11Z</time>
      </trkpt>
      <trkpt lat="44.22349" lon="3.506">
        <ele>1116</ele>
        <time>2013-06-21T13:50:18Z</time>
      </trkpt>
      <trkpt lat="44.22337" lon="3.50591">
        <ele>1119</ele>
        <time>2013-06-21T13:50:32Z</time>
      </trkpt>
      <trkpt lat="44.22328" lon="3.50581">
        <ele>1122</ele>
        <time>2013-06-21T13:50:45Z</time>
      </trkpt>
      <trkpt lat="44.22316" lon="3.5058">
        <ele>1125</ele>
        <time>2013-06-21T13:51:02Z</time>
      </trkpt>
      <trkpt lat="44.2231" lon="3.50583">
        <ele>1127</ele>
        <time>2013-06-21T13:51:20Z</time>
      </trkpt>
      <trkpt lat="44.2231" lon="3.50582">
        <ele>1124</ele>
        <time>2013-06-21T13:51:41Z</time>
      </trkpt>
      <trkpt lat="44.2231" lon="3.50586">
        <ele>1124</ele>
        <time>2013-06-21T13:52:14Z</time>
      </trkpt>
      <trkpt lat="44.22304" lon="3.50588">
        <ele>1124</ele>
        <time>2013-06-21T13:52:20Z</time>
      </trkpt>
      <trkpt lat="44.223" lon="3.50589">
        <ele>1123</ele>
        <time>2013-06-21T13:52:23Z</time>
      </trkpt>
      <trkpt lat="44.22288" lon="3.5059">
        <ele>1121</ele>
        <time>2013-06-21T13:52:32Z</time>
      </trkpt>
      <trkpt lat="44.22282" lon="3.50589">
        <ele>1120</ele>
        <time>2013-06-21T13:52:37Z</time>
      </trkpt>
      <trkpt lat="44.22271" lon="3.50575">
        <ele>1119</ele>
        <time>2013-06-21T13:52:53Z</time>
      </trkpt>
      <trkpt lat="44.22267" lon="3.50577">
        <ele>1119</ele>
        <time>2013-06-21T13:53:18Z</time>
      </trkpt>
      <trkpt lat="44.22267" lon="3.50567">
        <ele>1116</ele>
        <time>2013-06-21T13:53:55Z</time>
      </trkpt>
      <trkpt lat="44.22267" lon="3.50558">
        <ele>1115</ele>
        <time>2013-06-21T13:54:03Z</time>
      </trkpt>
      <trkpt lat="44.22266" lon="3.50547">
        <ele>1114</ele>
        <time>2013-06-21T13:54:17Z</time>
      </trkpt>
      <trkpt lat="44.22265" lon="3.50543">
        <ele>1114</ele>
        <time>2013-06-21T13:54:25Z</time>
      </trkpt>
      <trkpt lat="44.2226" lon="3.50535">
        <ele>1115</ele>
        <time>2013-06-21T13:54:31Z</time>
      </trkpt>
      <trkpt lat="44.22249" lon="3.50527">
        <ele>1116</ele>
        <time>2013-06-21T13:54:40Z</time>
      </trkpt>
      <trkpt lat="44.22247" lon="3.50518">
        <ele>1113</ele>
        <time>2013-06-21T13:54:54Z</time>
      </trkpt>
      <trkpt lat="44.22248" lon="3.5051">
        <ele>1112</ele>
        <time>2013-06-21T13:55:03Z</time>
      </trkpt>
      <trkpt lat="44.22252" lon="3.5051">
        <ele>1113</ele>
        <time>2013-06-21T13:55:16Z</time>
      </trkpt>
      <trkpt lat="44.22253" lon="3.50509">
        <ele>1113</ele>
        <time>2013-06-21T13:55:29Z</time>
      </trkpt>
      <trkpt lat="44.22254" lon="3.50498">
        <ele>1113</ele>
        <time>2013-06-21T13:55:36Z</time>
      </trkpt>
      <trkpt lat="44.22259" lon="3.5048">
        <ele>1112</ele>
        <time>2013-06-21T13:55:50Z</time>
      </trkpt>
      <trkpt lat="44.22267" lon="3.50475">
        <ele>1115</ele>
        <time>2013-06-21T13:56:02Z</time>
      </trkpt>
      <trkpt lat="44.22274" lon="3.50474">
        <ele>1118</ele>
        <time>2013-06-21T13:56:09Z</time>
      </trkpt>
      <trkpt lat="44.22283" lon="3.50473">
        <ele>1123</ele>
        <time>2013-06-21T13:56:23Z</time>
      </trkpt>
      <trkpt lat="44.22288" lon="3.50473">
        <ele>1125</ele>
        <time>2013-06-21T13:56:46Z</time>
      </trkpt>
      <trkpt lat="44.22294" lon="3.50474">
        <ele>1127</ele>
        <time>2013-06-21T13:56:54Z</time>
      </trkpt>
      <trkpt lat="44.22301" lon="3.50471">
        <ele>1125</ele>
        <time>2013-06-21T13:57:09Z</time>
      </trkpt>
      <trkpt lat="44.22305" lon="3.50467">
        <ele>1124</ele>
        <time>2013-06-21T13:57:24Z</time>
      </trkpt>
      <trkpt lat="44.22308" lon="3.50452">
        <ele>1124</ele>
        <time>2013-06-21T13:57:41Z</time>
      </trkpt>
      <trkpt lat="44.2231" lon="3.50444">
        <ele>1125</ele>
        <time>2013-06-21T13:57:50Z</time>
      </trkpt>
      <trkpt lat="44.2231" lon="3.50441">
        <ele>1125</ele>
        <time>2013-06-21T13:57:52Z</time>
      </trkpt>
      <trkpt lat="44.2231" lon="3.50438">
        <ele>1125</ele>
        <time>2013-06-21T13:57:54Z</time>
      </trkpt>
      <trkpt lat="44.22312" lon="3.50436">
        <ele>1125</ele>
        <time>2013-06-21T13:57:57Z</time>
      </trkpt>
      <trkpt lat="44.22316" lon="3.50435">
        <ele>1125</ele>
        <time>2013-06-21T13:58:01Z</time>
      </trkpt>
      <trkpt lat="44.2232" lon="3.5043">
        <ele>1126</ele>
        <time>2013-06-21T13:58:17Z</time>
      </trkpt>
      <trkpt lat="44.2232" lon="3.50429">
        <ele>1127</ele>
        <time>2013-06-21T13:58:21Z</time>
      </trkpt>
      <trkpt lat="44.2232" lon="3.50419">
        <ele>1129</ele>
        <time>2013-06-21T13:58:29Z</time>
      </trkpt>
      <trkpt lat="44.22321" lon="3.50403">
        <ele>1128</ele>
        <time>2013-06-21T13:58:40Z</time>
      </trkpt>
      <trkpt lat="44.22315" lon="3.50397">
        <ele>1130</ele>
        <time>2013-06-21T13:58:54Z</time>
      </trkpt>
      <trkpt lat="44.22314" lon="3.50397">
        <ele>1130</ele>
        <time>2013-06-21T13:58:55Z</time>
      </trkpt>
      <trkpt lat="44.22307" lon="3.5039">
        <ele>1130</ele>
        <time>2013-06-21T13:59:06Z</time>
      </trkpt>
      <trkpt lat="44.22306" lon="3.50388">
        <ele>1130</ele>
        <time>2013-06-21T13:59:08Z</time>
      </trkpt>
      <trkpt lat="44.22303" lon="3.50384">
        <ele>1125</ele>
        <time>2013-06-21T13:59:21Z</time>
      </trkpt>
      <trkpt lat="44.22297" lon="3.5038">
        <ele>1125</ele>
        <time>2013-06-21T13:59:42Z</time>
      </trkpt>
      <trkpt lat="44.22287" lon="3.50376">
        <ele>1122</ele>
        <time>2013-06-21T14:00:21Z</time>
      </trkpt>
      <trkpt lat="44.22278" lon="3.50378">
        <ele>1122</ele>
        <time>2013-06-21T14:00:33Z</time>
      </trkpt>
      <trkpt lat="44.22268" lon="3.50368">
        <ele>1120</ele>
        <time>2013-06-21T14:00:45Z</time>
      </trkpt>
      <trkpt lat="44.22266" lon="3.50359">
        <ele>1119</ele>
        <time>2013-06-21T14:00:54Z</time>
      </trkpt>
      <trkpt lat="44.22262" lon="3.50346">
        <ele>1117</ele>
        <time>2013-06-21T14:01:09Z</time>
      </trkpt>
      <trkpt lat="44.22269" lon="3.50332">
        <ele>1116</ele>
        <time>2013-06-21T14:01:22Z</time>
      </trkpt>
      <trkpt lat="44.22276" lon="3.50319">
        <ele>1112</ele>
        <time>2013-06-21T14:01:38Z</time>
      </trkpt>
      <trkpt lat="44.22272" lon="3.50306">
        <ele>1109</ele>
        <time>2013-06-21T14:01:54Z</time>
      </trkpt>
      <trkpt lat="44.22269" lon="3.50306">
        <ele>1109</ele>
        <time>2013-06-21T14:01:57Z</time>
      </trkpt>
      <trkpt lat="44.22268" lon="3.50304">
        <ele>1109</ele>
        <time>2013-06-21T14:01:59Z</time>
      </trkpt>
      <trkpt lat="44.22264" lon="3.50295">
        <ele>1110</ele>
        <time>2013-06-21T14:02:11Z</time>
      </trkpt>
      <trkpt lat="44.2226" lon="3.50285">
        <ele>1109</ele>
        <time>2013-06-21T14:02:26Z</time>
      </trkpt>
      <trkpt lat="44.22256" lon="3.50271">
        <ele>1110</ele>
        <time>2013-06-21T14:02:37Z</time>
      </trkpt>
      <trkpt lat="44.22256" lon="3.50267">
        <ele>1111</ele>
        <time>2013-06-21T14:03:12Z</time>
      </trkpt>
      <trkpt lat="44.22258" lon="3.50255">
        <ele>1111</ele>
        <time>2013-06-21T14:03:37Z</time>
      </trkpt>
      <trkpt lat="44.22256" lon="3.50236">
        <ele>1107</ele>
        <time>2013-06-21T14:03:55Z</time>
      </trkpt>
      <trkpt lat="44.22255" lon="3.50218">
        <ele>1104</ele>
        <time>2013-06-21T14:04:08Z</time>
      </trkpt>
      <trkpt lat="44.22266" lon="3.50214">
        <ele>1100</ele>
        <time>2013-06-21T14:04:24Z</time>
      </trkpt>
      <trkpt lat="44.22274" lon="3.50202">
        <ele>1101</ele>
        <time>2013-06-21T14:04:54Z</time>
      </trkpt>
      <trkpt lat="44.22273" lon="3.50184">
        <ele>1101</ele>
        <time>2013-06-21T14:05:11Z</time>
      </trkpt>
      <trkpt lat="44.22274" lon="3.50175">
        <ele>1102</ele>
        <time>2013-06-21T14:05:26Z</time>
      </trkpt>
      <trkpt lat="44.22274" lon="3.50175">
        <ele>1103</ele>
        <time>2013-06-21T14:05:36Z</time>
      </trkpt>
      <trkpt lat="44.22282" lon="3.5016">
        <ele>1109</ele>
        <time>2013-06-21T14:05:54Z</time>
      </trkpt>
      <trkpt lat="44.22282" lon="3.50153">
        <ele>1112</ele>
        <time>2013-06-21T14:06:08Z</time>
      </trkpt>
      <trkpt lat="44.22281" lon="3.50148">
        <ele>1112</ele>
        <time>2013-06-21T14:06:13Z</time>
      </trkpt>
      <trkpt lat="44.22281" lon="3.50146">
        <ele>1113</ele>
        <time>2013-06-21T14:06:15Z</time>
      </trkpt>
      <trkpt lat="44.22281" lon="3.50128">
        <ele>1114</ele>
        <time>2013-06-21T14:06:28Z</time>
      </trkpt>
      <trkpt lat="44.22281" lon="3.50116">
        <ele>1116</ele>
        <time>2013-06-21T14:06:38Z</time>
      </trkpt>
      <trkpt lat="44.22283" lon="3.5011">
        <ele>1116</ele>
        <time>2013-06-21T14:06:44Z</time>
      </trkpt>
      <trkpt lat="44.22282" lon="3.50096">
        <ele>1118</ele>
        <time>2013-06-21T14:06:54Z</time>
      </trkpt>
      <trkpt lat="44.22283" lon="3.50083">
        <ele>1122</ele>
        <time>2013-06-21T14:07:06Z</time>
      </trkpt>
      <trkpt lat="44.22287" lon="3.50067">
        <ele>1126</ele>
        <time>2013-06-21T14:07:20Z</time>
      </trkpt>
      <trkpt lat="44.22288" lon="3.50062">
        <ele>1126</ele>
        <time>2013-06-21T14:07:23Z</time>
      </trkpt>
      <trkpt lat="44.22289" lon="3.50049">
        <ele>1126</ele>
        <time>2013-06-21T14:07:35Z</time>
      </trkpt>
      <trkpt lat="44.22296" lon="3.50029">
        <ele>1127</ele>
        <time>2013-06-21T14:07:49Z</time>
      </trkpt>
      <trkpt lat="44.22298" lon="3.50025">
        <ele>1127</ele>
        <time>2013-06-21T14:07:53Z</time>
      </trkpt>
      <trkpt lat="44.22295" lon="3.50023">
        <ele>1127</ele>
        <time>2013-06-21T14:07:58Z</time>
      </trkpt>
      <trkpt lat="44.22295" lon="3.50014">
        <ele>1129</ele>
        <time>2013-06-21T14:08:05Z</time>
      </trkpt>
      <trkpt lat="44.22296" lon="3.50001">
        <ele>1131</ele>
        <time>2013-06-21T14:08:15Z</time>
      </trkpt>
      <trkpt lat="44.223" lon="3.49991">
        <ele>1125</ele>
        <time>2013-06-21T14:08:29Z</time>
      </trkpt>
      <trkpt lat="44.22304" lon="3.49982">
        <ele>1126</ele>
        <time>2013-06-21T14:08:39Z</time>
      </trkpt>
      <trkpt lat="44.22304" lon="3.49976">
        <ele>1127</ele>
        <time>2013-06-21T14:08:44Z</time>
      </trkpt>
      <trkpt lat="44.22297" lon="3.49969">
        <ele>1129</ele>
        <time>2013-06-21T14:08:55Z</time>
      </trkpt>
      <trkpt lat="44.22294" lon="3.49962">
        <ele>1129</ele>
        <time>2013-06-21T14:09:00Z</time>
      </trkpt>
      <trkpt lat="44.22294" lon="3.49953">
        <ele>1128</ele>
        <time>2013-06-21T14:09:05Z</time>
      </trkpt>
      <trkpt lat="44.223" lon="3.49942">
        <ele>1128</ele>
        <time>2013-06-21T14:09:17Z</time>
      </trkpt>
      <trkpt lat="44.22301" lon="3.49935">
        <ele>1127</ele>
        <time>2013-06-21T14:09:19Z</time>
      </trkpt>
      <trkpt lat="44.22304" lon="3.49927">
        <ele>1129</ele>
        <time>2013-06-21T14:09:25Z</time>
      </trkpt>
      <trkpt lat="44.22305" lon="3.49923">
        <ele>1129</ele>
        <time>2013-06-21T14:09:28Z</time>
      </trkpt>
      <trkpt lat="44.22306" lon="3.49917">
        <ele>1129</ele>
        <time>2013-06-21T14:09:33Z</time>
      </trkpt>
      <trkpt lat="44.22301" lon="3.4991">
        <ele>1132</ele>
        <time>2013-06-21T14:09:46Z</time>
      </trkpt>
      <trkpt lat="44.22297" lon="3.49907">
        <ele>1134</ele>
        <time>2013-06-21T14:09:59Z</time>
      </trkpt>
      <trkpt lat="44.22296" lon="3.499">
        <ele>1133</ele>
        <time>2013-06-21T14:10:14Z</time>
      </trkpt>
      <trkpt lat="44.22291" lon="3.49895">
        <ele>1132</ele>
        <time>2013-06-21T14:10:28Z</time>
      </trkpt>
      <trkpt lat="44.22288" lon="3.49893">
        <ele>1130</ele>
        <time>2013-06-21T14:10:37Z</time>
      </trkpt>
      <trkpt lat="44.22282" lon="3.49876">
        <ele>1126</ele>
        <time>2013-06-21T14:10:50Z</time>
      </trkpt>
      <trkpt lat="44.22278" lon="3.49867">
        <ele>1123</ele>
        <time>2013-06-21T14:11:03Z</time>
      </trkpt>
      <trkpt lat="44.22279" lon="3.4985">
        <ele>1116</ele>
        <time>2013-06-21T14:11:19Z</time>
      </trkpt>
      <trkpt lat="44.22275" lon="3.49836">
        <ele>1113</ele>
        <time>2013-06-21T14:11:31Z</time>
      </trkpt>
      <trkpt lat="44.22272" lon="3.49816">
        <ele>1110</ele>
        <time>2013-06-21T14:11:46Z</time>
      </trkpt>
      <trkpt lat="44.22269" lon="3.49801">
        <ele>1110</ele>
        <time>2013-06-21T14:11:58Z</time>
      </trkpt>
      <trkpt lat="44.22265" lon="3.49786">
        <ele>1113</ele>
        <time>2013-06-21T14:12:14Z</time>
      </trkpt>
      <trkpt lat="44.22265" lon="3.49778">
        <ele>1114</ele>
        <time>2013-06-21T14:12:20Z</time>
      </trkpt>
      <trkpt lat="44.22267" lon="3.49773">
        <ele>1114</ele>
        <time>2013-06-21T14:12:24Z</time>
      </trkpt>
      <trkpt lat="44.22268" lon="3.49754">
        <ele>1114</ele>
        <time>2013-06-21T14:12:39Z</time>
      </trkpt>
      <trkpt lat="44.22271" lon="3.49738">
        <ele>1116</ele>
        <time>2013-06-21T14:12:50Z</time>
      </trkpt>
      <trkpt lat="44.22271" lon="3.49731">
        <ele>1117</ele>
        <time>2013-06-21T14:12:54Z</time>
      </trkpt>
      <trkpt lat="44.22276" lon="3.49722">
        <ele>1116</ele>
        <time>2013-06-21T14:13:07Z</time>
      </trkpt>
      <trkpt lat="44.22285" lon="3.49708">
        <ele>1118</ele>
        <time>2013-06-21T14:13:21Z</time>
      </trkpt>
      <trkpt lat="44.22284" lon="3.49705">
        <ele>1118</ele>
        <time>2013-06-21T14:13:36Z</time>
      </trkpt>
      <trkpt lat="44.22272" lon="3.49687">
        <ele>1118</ele>
        <time>2013-06-21T14:13:54Z</time>
      </trkpt>
      <trkpt lat="44.22257" lon="3.4967">
        <ele>1115</ele>
        <time>2013-06-21T14:14:11Z</time>
      </trkpt>
      <trkpt lat="44.22256" lon="3.4967">
        <ele>1115</ele>
        <time>2013-06-21T14:14:48Z</time>
      </trkpt>
      <trkpt lat="44.22246" lon="3.49658">
        <ele>1114</ele>
        <time>2013-06-21T14:18:10Z</time>
      </trkpt>
      <trkpt lat="44.22234" lon="3.49648">
        <ele>1113</ele>
        <time>2013-06-21T14:18:26Z</time>
      </trkpt>
      <trkpt lat="44.22228" lon="3.49632">
        <ele>1112</ele>
        <time>2013-06-21T14:18:39Z</time>
      </trkpt>
      <trkpt lat="44.22228" lon="3.49627">
        <ele>1114</ele>
        <time>2013-06-21T14:18:43Z</time>
      </trkpt>
      <trkpt lat="44.22229" lon="3.49617">
        <ele>1111</ele>
        <time>2013-06-21T14:18:58Z</time>
      </trkpt>
      <trkpt lat="44.22226" lon="3.49616">
        <ele>1111</ele>
        <time>2013-06-21T14:19:16Z</time>
      </trkpt>
      <trkpt lat="44.22225" lon="3.49614">
        <ele>1111</ele>
        <time>2013-06-21T14:19:18Z</time>
      </trkpt>
      <trkpt lat="44.22216" lon="3.49606">
        <ele>1109</ele>
        <time>2013-06-21T14:19:34Z</time>
      </trkpt>
      <trkpt lat="44.22205" lon="3.49605">
        <ele>1107</ele>
        <time>2013-06-21T14:19:50Z</time>
      </trkpt>
      <trkpt lat="44.22197" lon="3.49592">
        <ele>1104</ele>
        <time>2013-06-21T14:20:06Z</time>
      </trkpt>
      <trkpt lat="44.22192" lon="3.49589">
        <ele>1102</ele>
        <time>2013-06-21T14:20:12Z</time>
      </trkpt>
      <trkpt lat="44.22185" lon="3.49589">
        <ele>1100</ele>
        <time>2013-06-21T14:20:20Z</time>
      </trkpt>
      <trkpt lat="44.22171" lon="3.49587">
        <ele>1097</ele>
        <time>2013-06-21T14:20:39Z</time>
      </trkpt>
      <trkpt lat="44.22159" lon="3.49581">
        <ele>1095</ele>
        <time>2013-06-21T14:20:50Z</time>
      </trkpt>
      <trkpt lat="44.22146" lon="3.49573">
        <ele>1092</ele>
        <time>2013-06-21T14:21:01Z</time>
      </trkpt>
      <trkpt lat="44.22142" lon="3.49571">
        <ele>1092</ele>
        <time>2013-06-21T14:21:03Z</time>
      </trkpt>
      <trkpt lat="44.22139" lon="3.49566">
        <ele>1092</ele>
        <time>2013-06-21T14:21:08Z</time>
      </trkpt>
      <trkpt lat="44.22127" lon="3.49548">
        <ele>1094</ele>
        <time>2013-06-21T14:21:23Z</time>
      </trkpt>
      <trkpt lat="44.22115" lon="3.49537">
        <ele>1096</ele>
        <time>2013-06-21T14:21:37Z</time>
      </trkpt>
      <trkpt lat="44.22104" lon="3.49531">
        <ele>1097</ele>
        <time>2013-06-21T14:21:47Z</time>
      </trkpt>
      <trkpt lat="44.22093" lon="3.49524">
        <ele>1096</ele>
        <time>2013-06-21T14:21:55Z</time>
      </trkpt>
      <trkpt lat="44.22075" lon="3.49515">
        <ele>1101</ele>
        <time>2013-06-21T14:22:10Z</time>
      </trkpt>
      <trkpt lat="44.22069" lon="3.49511">
        <ele>1102</ele>
        <time>2013-06-21T14:22:15Z</time>
      </trkpt>
      <trkpt lat="44.22067" lon="3.49508">
        <ele>1102</ele>
        <time>2013-06-21T14:22:18Z</time>
      </trkpt>
      <trkpt lat="44.22045" lon="3.49496">
        <ele>1100</ele>
        <time>2013-06-21T14:22:35Z</time>
      </trkpt>
      <trkpt lat="44.22024" lon="3.49484">
        <ele>1097</ele>
        <time>2013-06-21T14:22:52Z</time>
      </trkpt>
      <trkpt lat="44.22009" lon="3.49479">
        <ele>1094</ele>
        <time>2013-06-21T14:23:04Z</time>
      </trkpt>
      <trkpt lat="44.21991" lon="3.49479">
        <ele>1094</ele>
        <time>2013-06-21T14:23:19Z</time>
      </trkpt>
      <trkpt lat="44.21974" lon="3.49475">
        <ele>1095</ele>
        <time>2013-06-21T14:23:33Z</time>
      </trkpt>
      <trkpt lat="44.21956" lon="3.4947">
        <ele>1097</ele>
        <time>2013-06-21T14:23:49Z</time>
      </trkpt>
      <trkpt lat="44.21934" lon="3.49462">
        <ele>1098</ele>
        <time>2013-06-21T14:24:05Z</time>
      </trkpt>
      <trkpt lat="44.21918" lon="3.49451">
        <ele>1097</ele>
        <time>2013-06-21T14:24:20Z</time>
      </trkpt>
      <trkpt lat="44.21899" lon="3.49436">
        <ele>1099</ele>
        <time>2013-06-21T14:24:38Z</time>
      </trkpt>
      <trkpt lat="44.21881" lon="3.49424">
        <ele>1101</ele>
        <time>2013-06-21T14:24:53Z</time>
      </trkpt>
      <trkpt lat="44.21866" lon="3.49406">
        <ele>1102</ele>
        <time>2013-06-21T14:25:10Z</time>
      </trkpt>
      <trkpt lat="44.21851" lon="3.49392">
        <ele>1104</ele>
        <time>2013-06-21T14:25:24Z</time>
      </trkpt>
      <trkpt lat="44.21836" lon="3.49377">
        <ele>1107</ele>
        <time>2013-06-21T14:25:39Z</time>
      </trkpt>
      <trkpt lat="44.21823" lon="3.49364">
        <ele>1107</ele>
        <time>2013-06-21T14:25:53Z</time>
      </trkpt>
      <trkpt lat="44.21813" lon="3.49352">
        <ele>1108</ele>
        <time>2013-06-21T14:26:04Z</time>
      </trkpt>
      <trkpt lat="44.218" lon="3.4934">
        <ele>1106</ele>
        <time>2013-06-21T14:26:19Z</time>
      </trkpt>
      <trkpt lat="44.21785" lon="3.49334">
        <ele>1103</ele>
        <time>2013-06-21T14:26:32Z</time>
      </trkpt>
      <trkpt lat="44.21769" lon="3.49329">
        <ele>1102</ele>
        <time>2013-06-21T14:26:45Z</time>
      </trkpt>
      <trkpt lat="44.21761" lon="3.49329">
        <ele>1103</ele>
        <time>2013-06-21T14:26:59Z</time>
      </trkpt>
      <trkpt lat="44.21761" lon="3.4933">
        <ele>1103</ele>
        <time>2013-06-21T14:27:00Z</time>
      </trkpt>
      <trkpt lat="44.21758" lon="3.49331">
        <ele>1102</ele>
        <time>2013-06-21T14:27:03Z</time>
      </trkpt>
      <trkpt lat="44.21751" lon="3.49339">
        <ele>1098</ele>
        <time>2013-06-21T14:27:16Z</time>
      </trkpt>
      <trkpt lat="44.21751" lon="3.49339">
        <ele>1098</ele>
        <time>2013-06-21T14:28:02Z</time>
      </trkpt>
      <trkpt lat="44.21754" lon="3.4933">
        <ele>1097</ele>
        <time>2013-06-21T14:28:07Z</time>
      </trkpt>
      <trkpt lat="44.21757" lon="3.49324">
        <ele>1097</ele>
        <time>2013-06-21T14:28:20Z</time>
      </trkpt>
      <trkpt lat="44.21758" lon="3.49319">
        <ele>1096</ele>
        <time>2013-06-21T14:28:27Z</time>
      </trkpt>
      <trkpt lat="44.21769" lon="3.49307">
        <ele>1093</ele>
        <time>2013-06-21T14:28:40Z</time>
      </trkpt>
      <trkpt lat="44.21771" lon="3.49305">
        <ele>1093</ele>
        <time>2013-06-21T14:28:50Z</time>
      </trkpt>
      <trkpt lat="44.21773" lon="3.49308">
        <ele>1094</ele>
        <time>2013-06-21T14:29:11Z</time>
      </trkpt>
      <trkpt lat="44.21774" lon="3.493">
        <ele>1095</ele>
        <time>2013-06-21T14:29:22Z</time>
      </trkpt>
      <trkpt lat="44.21786" lon="3.49279">
        <ele>1097</ele>
        <time>2013-06-21T14:29:38Z</time>
      </trkpt>
      <trkpt lat="44.21792" lon="3.49266">
        <ele>1097</ele>
        <time>2013-06-21T14:29:48Z</time>
      </trkpt>
      <trkpt lat="44.21792" lon="3.49259">
        <ele>1097</ele>
        <time>2013-06-21T14:29:52Z</time>
      </trkpt>
      <trkpt lat="44.21798" lon="3.49238">
        <ele>1099</ele>
        <time>2013-06-21T14:30:05Z</time>
      </trkpt>
      <trkpt lat="44.218" lon="3.49226">
        <ele>1100</ele>
        <time>2013-06-21T14:30:13Z</time>
      </trkpt>
      <trkpt lat="44.21802" lon="3.4922">
        <ele>1101</ele>
        <time>2013-06-21T14:30:17Z</time>
      </trkpt>
      <trkpt lat="44.21807" lon="3.49201">
        <ele>1106</ele>
        <time>2013-06-21T14:30:33Z</time>
      </trkpt>
      <trkpt lat="44.21809" lon="3.4918">
        <ele>1108</ele>
        <time>2013-06-21T14:30:47Z</time>
      </trkpt>
      <trkpt lat="44.21812" lon="3.49157">
        <ele>1109</ele>
        <time>2013-06-21T14:31:02Z</time>
      </trkpt>
      <trkpt lat="44.21817" lon="3.49142">
        <ele>1110</ele>
        <time>2013-06-21T14:31:12Z</time>
      </trkpt>
      <trkpt lat="44.21817" lon="3.49138">
        <ele>1109</ele>
        <time>2013-06-21T14:31:14Z</time>
      </trkpt>
      <trkpt lat="44.21819" lon="3.49118">
        <ele>1109</ele>
        <time>2013-06-21T14:31:28Z</time>
      </trkpt>
      <trkpt lat="44.21821" lon="3.49091">
        <ele>1106</ele>
        <time>2013-06-21T14:31:43Z</time>
      </trkpt>
      <trkpt lat="44.21827" lon="3.49069">
        <ele>1103</ele>
        <time>2013-06-21T14:31:57Z</time>
      </trkpt>
      <trkpt lat="44.21831" lon="3.49055">
        <ele>1103</ele>
        <time>2013-06-21T14:32:06Z</time>
      </trkpt>
      <trkpt lat="44.21833" lon="3.49032">
        <ele>1103</ele>
        <time>2013-06-21T14:32:19Z</time>
      </trkpt>
      <trkpt lat="44.21835" lon="3.49013">
        <ele>1103</ele>
        <time>2013-06-21T14:32:32Z</time>
      </trkpt>
      <trkpt lat="44.21835" lon="3.48999">
        <ele>1100</ele>
        <time>2013-06-21T14:32:40Z</time>
      </trkpt>
      <trkpt lat="44.21836" lon="3.48976">
        <ele>1097</ele>
        <time>2013-06-21T14:32:55Z</time>
      </trkpt>
      <trkpt lat="44.21838" lon="3.48949">
        <ele>1095</ele>
        <time>2013-06-21T14:33:10Z</time>
      </trkpt>
      <trkpt lat="44.21839" lon="3.48925">
        <ele>1092</ele>
        <time>2013-06-21T14:33:24Z</time>
      </trkpt>
      <trkpt lat="44.21838" lon="3.48904">
        <ele>1092</ele>
        <time>2013-06-21T14:33:36Z</time>
      </trkpt>
      <trkpt lat="44.21833" lon="3.48888">
        <ele>1091</ele>
        <time>2013-06-21T14:33:47Z</time>
      </trkpt>
      <trkpt lat="44.21831" lon="3.48867">
        <ele>1089</ele>
        <time>2013-06-21T14:34:04Z</time>
      </trkpt>
      <trkpt lat="44.21836" lon="3.48851">
        <ele>1087</ele>
        <time>2013-06-21T14:34:16Z</time>
      </trkpt>
      <trkpt lat="44.21848" lon="3.48828">
        <ele>1084</ele>
        <time>2013-06-21T14:34:32Z</time>
      </trkpt>
      <trkpt lat="44.2186" lon="3.4881">
        <ele>1080</ele>
        <time>2013-06-21T14:34:45Z</time>
      </trkpt>
      <trkpt lat="44.21872" lon="3.48799">
        <ele>1079</ele>
        <time>2013-06-21T14:34:59Z</time>
      </trkpt>
      <trkpt lat="44.21884" lon="3.48785">
        <ele>1079</ele>
        <time>2013-06-21T14:35:12Z</time>
      </trkpt>
      <trkpt lat="44.21896" lon="3.4877">
        <ele>1082</ele>
        <time>2013-06-21T14:35:26Z</time>
      </trkpt>
      <trkpt lat="44.21907" lon="3.48757">
        <ele>1084</ele>
        <time>2013-06-21T14:35:39Z</time>
      </trkpt>
      <trkpt lat="44.21915" lon="3.48746">
        <ele>1083</ele>
        <time>2013-06-21T14:35:50Z</time>
      </trkpt>
      <trkpt lat="44.21917" lon="3.48746">
        <ele>1083</ele>
        <time>2013-06-21T14:35:54Z</time>
      </trkpt>
      <trkpt lat="44.21936" lon="3.48744">
        <ele>1083</ele>
        <time>2013-06-21T14:36:10Z</time>
      </trkpt>
      <trkpt lat="44.21936" lon="3.48744">
        <ele>1083</ele>
        <time>2013-06-21T14:36:11Z</time>
      </trkpt>
      <trkpt lat="44.21953" lon="3.48744">
        <ele>1084</ele>
        <time>2013-06-21T14:36:26Z</time>
      </trkpt>
      <trkpt lat="44.21969" lon="3.48745">
        <ele>1085</ele>
        <time>2013-06-21T14:36:40Z</time>
      </trkpt>
      <trkpt lat="44.21988" lon="3.48743">
        <ele>1087</ele>
        <time>2013-06-21T14:36:55Z</time>
      </trkpt>
      <trkpt lat="44.21997" lon="3.48738">
        <ele>1089</ele>
        <time>2013-06-21T14:37:08Z</time>
      </trkpt>
      <trkpt lat="44.22004" lon="3.48732">
        <ele>1088</ele>
        <time>2013-06-21T14:37:17Z</time>
      </trkpt>
      <trkpt lat="44.22006" lon="3.4873">
        <ele>1087</ele>
        <time>2013-06-21T14:37:28Z</time>
      </trkpt>
      <trkpt lat="44.22006" lon="3.4873">
        <ele>1087</ele>
        <time>2013-06-21T14:37:55Z</time>
      </trkpt>
      <trkpt lat="44.22006" lon="3.48724">
        <ele>1087</ele>
        <time>2013-06-21T14:37:58Z</time>
      </trkpt>
      <trkpt lat="44.22007" lon="3.48715">
        <ele>1086</ele>
        <time>2013-06-21T14:38:03Z</time>
      </trkpt>
      <trkpt lat="44.2202" lon="3.48698">
        <ele>1086</ele>
        <time>2013-06-21T14:38:17Z</time>
      </trkpt>
      <trkpt lat="44.22032" lon="3.48689">
        <ele>1086</ele>
        <time>2013-06-21T14:38:39Z</time>
      </trkpt>
      <trkpt lat="44.22042" lon="3.4868">
        <ele>1088</ele>
        <time>2013-06-21T14:38:48Z</time>
      </trkpt>
      <trkpt lat="44.22043" lon="3.48673">
        <ele>1092</ele>
        <time>2013-06-21T14:39:01Z</time>
      </trkpt>
      <trkpt lat="44.22046" lon="3.48673">
        <ele>1093</ele>
        <time>2013-06-21T14:39:32Z</time>
      </trkpt>
      <trkpt lat="44.2205" lon="3.48651">
        <ele>1090</ele>
        <time>2013-06-21T14:39:46Z</time>
      </trkpt>
      <trkpt lat="44.22054" lon="3.48638">
        <ele>1087</ele>
        <time>2013-06-21T14:40:01Z</time>
      </trkpt>
      <trkpt lat="44.22054" lon="3.48639">
        <ele>1088</ele>
        <time>2013-06-21T14:40:05Z</time>
      </trkpt>
      <trkpt lat="44.22048" lon="3.48621">
        <ele>1086</ele>
        <time>2013-06-21T14:40:21Z</time>
      </trkpt>
      <trkpt lat="44.22041" lon="3.48605">
        <ele>1087</ele>
        <time>2013-06-21T14:40:34Z</time>
      </trkpt>
      <trkpt lat="44.22035" lon="3.48594">
        <ele>1086</ele>
        <time>2013-06-21T14:40:44Z</time>
      </trkpt>
      <trkpt lat="44.22023" lon="3.48579">
        <ele>1083</ele>
        <time>2013-06-21T14:41:01Z</time>
      </trkpt>
      <trkpt lat="44.22013" lon="3.48564">
        <ele>1079</ele>
        <time>2013-06-21T14:41:17Z</time>
      </trkpt>
      <trkpt lat="44.2201" lon="3.4856">
        <ele>1077</ele>
        <time>2013-06-21T14:41:21Z</time>
      </trkpt>
      <trkpt lat="44.22002" lon="3.48544">
        <ele>1071</ele>
        <time>2013-06-21T14:41:36Z</time>
      </trkpt>
      <trkpt lat="44.21998" lon="3.48537">
        <ele>1070</ele>
        <time>2013-06-21T14:41:44Z</time>
      </trkpt>
      <trkpt lat="44.21993" lon="3.48525">
        <ele>1072</ele>
        <time>2013-06-21T14:41:53Z</time>
      </trkpt>
      <trkpt lat="44.21985" lon="3.48504">
        <ele>1068</ele>
        <time>2013-06-21T14:42:08Z</time>
      </trkpt>
      <trkpt lat="44.21983" lon="3.48494">
        <ele>1069</ele>
        <time>2013-06-21T14:42:13Z</time>
      </trkpt>
      <trkpt lat="44.21978" lon="3.48471">
        <ele>1071</ele>
        <time>2013-06-21T14:42:29Z</time>
      </trkpt>
      <trkpt lat="44.21979" lon="3.48449">
        <ele>1071</ele>
        <time>2013-06-21T14:42:43Z</time>
      </trkpt>
      <trkpt lat="44.21981" lon="3.48428">
        <ele>1071</ele>
        <time>2013-06-21T14:42:57Z</time>
      </trkpt>
      <trkpt lat="44.21989" lon="3.48414">
        <ele>1071</ele>
        <time>2013-06-21T14:43:10Z</time>
      </trkpt>
      <trkpt lat="44.21994" lon="3.48398">
        <ele>1071</ele>
        <time>2013-06-21T14:43:22Z</time>
      </trkpt>
      <trkpt lat="44.21996" lon="3.4839">
        <ele>1072</ele>
        <time>2013-06-21T14:43:28Z</time>
      </trkpt>
      <trkpt lat="44.21996" lon="3.48388">
        <ele>1072</ele>
        <time>2013-06-21T14:43:30Z</time>
      </trkpt>
      <trkpt lat="44.22" lon="3.48371">
        <ele>1074</ele>
        <time>2013-06-21T14:43:45Z</time>
      </trkpt>
      <trkpt lat="44.22" lon="3.4836">
        <ele>1073</ele>
        <time>2013-06-21T14:43:55Z</time>
      </trkpt>
      <trkpt lat="44.22" lon="3.48347">
        <ele>1071</ele>
        <time>2013-06-21T14:44:08Z</time>
      </trkpt>
      <trkpt lat="44.22001" lon="3.48329">
        <ele>1072</ele>
        <time>2013-06-21T14:44:21Z</time>
      </trkpt>
      <trkpt lat="44.22005" lon="3.48306">
        <ele>1076</ele>
        <time>2013-06-21T14:44:36Z</time>
      </trkpt>
      <trkpt lat="44.22006" lon="3.48289">
        <ele>1079</ele>
        <time>2013-06-21T14:44:47Z</time>
      </trkpt>
      <trkpt lat="44.2201" lon="3.48268">
        <ele>1081</ele>
        <time>2013-06-21T14:45:00Z</time>
      </trkpt>
      <trkpt lat="44.22018" lon="3.48248">
        <ele>1081</ele>
        <time>2013-06-21T14:45:13Z</time>
      </trkpt>
      <trkpt lat="44.22023" lon="3.48232">
        <ele>1083</ele>
        <time>2013-06-21T14:45:26Z</time>
      </trkpt>
      <trkpt lat="44.22031" lon="3.48215">
        <ele>1084</ele>
        <time>2013-06-21T14:45:38Z</time>
      </trkpt>
      <trkpt lat="44.22033" lon="3.4821">
        <ele>1084</ele>
        <time>2013-06-21T14:45:42Z</time>
      </trkpt>
      <trkpt lat="44.22037" lon="3.48201">
        <ele>1084</ele>
        <time>2013-06-21T14:45:48Z</time>
      </trkpt>
      <trkpt lat="44.22044" lon="3.4819">
        <ele>1084</ele>
        <time>2013-06-21T14:46:00Z</time>
      </trkpt>
      <trkpt lat="44.22057" lon="3.48174">
        <ele>1085</ele>
        <time>2013-06-21T14:46:15Z</time>
      </trkpt>
      <trkpt lat="44.2207" lon="3.48161">
        <ele>1088</ele>
        <time>2013-06-21T14:46:30Z</time>
      </trkpt>
      <trkpt lat="44.22076" lon="3.48153">
        <ele>1089</ele>
        <time>2013-06-21T14:46:42Z</time>
      </trkpt>
      <trkpt lat="44.22084" lon="3.48142">
        <ele>1088</ele>
        <time>2013-06-21T14:46:55Z</time>
      </trkpt>
      <trkpt lat="44.22098" lon="3.48128">
        <ele>1086</ele>
        <time>2013-06-21T14:47:09Z</time>
      </trkpt>
      <trkpt lat="44.22112" lon="3.48116">
        <ele>1086</ele>
        <time>2013-06-21T14:47:24Z</time>
      </trkpt>
      <trkpt lat="44.22126" lon="3.48101">
        <ele>1085</ele>
        <time>2013-06-21T14:47:40Z</time>
      </trkpt>
      <trkpt lat="44.22135" lon="3.48088">
        <ele>1085</ele>
        <time>2013-06-21T14:47:53Z</time>
      </trkpt>
      <trkpt lat="44.22139" lon="3.48086">
        <ele>1085</ele>
        <time>2013-06-21T14:48:14Z</time>
      </trkpt>
      <trkpt lat="44.22137" lon="3.48081">
        <ele>1085</ele>
        <time>2013-06-21T14:48:31Z</time>
      </trkpt>
      <trkpt lat="44.22142" lon="3.48065">
        <ele>1085</ele>
        <time>2013-06-21T14:48:45Z</time>
      </trkpt>
      <trkpt lat="44.22144" lon="3.48064">
        <ele>1086</ele>
        <time>2013-06-21T14:48:48Z</time>
      </trkpt>
      <trkpt lat="44.22152" lon="3.48048">
        <ele>1086</ele>
        <time>2013-06-21T14:49:02Z</time>
      </trkpt>
      <trkpt lat="44.22158" lon="3.48032">
        <ele>1085</ele>
        <time>2013-06-21T14:49:15Z</time>
      </trkpt>
      <trkpt lat="44.22163" lon="3.48026">
        <ele>1084</ele>
        <time>2013-06-21T14:49:22Z</time>
      </trkpt>
      <trkpt lat="44.22176" lon="3.48015">
        <ele>1084</ele>
        <time>2013-06-21T14:49:38Z</time>
      </trkpt>
      <trkpt lat="44.22194" lon="3.48006">
        <ele>1084</ele>
        <time>2013-06-21T14:49:53Z</time>
      </trkpt>
      <trkpt lat="44.22208" lon="3.47998">
        <ele>1085</ele>
        <time>2013-06-21T14:50:07Z</time>
      </trkpt>
      <trkpt lat="44.22222" lon="3.47994">
        <ele>1083</ele>
        <time>2013-06-21T14:50:21Z</time>
      </trkpt>
      <trkpt lat="44.22232" lon="3.47989">
        <ele>1084</ele>
        <time>2013-06-21T14:50:34Z</time>
      </trkpt>
      <trkpt lat="44.22245" lon="3.47981">
        <ele>1083</ele>
        <time>2013-06-21T14:50:48Z</time>
      </trkpt>
      <trkpt lat="44.22253" lon="3.47975">
        <ele>1084</ele>
        <time>2013-06-21T14:50:57Z</time>
      </trkpt>
      <trkpt lat="44.22255" lon="3.47974">
        <ele>1084</ele>
        <time>2013-06-21T14:50:59Z</time>
      </trkpt>
      <trkpt lat="44.22268" lon="3.47969">
        <ele>1089</ele>
        <time>2013-06-21T14:51:14Z</time>
      </trkpt>
      <trkpt lat="44.22276" lon="3.47962">
        <ele>1090</ele>
        <time>2013-06-21T14:51:25Z</time>
      </trkpt>
      <trkpt lat="44.22285" lon="3.47956">
        <ele>1090</ele>
        <time>2013-06-21T14:51:35Z</time>
      </trkpt>
      <trkpt lat="44.22286" lon="3.47954">
        <ele>1090</ele>
        <time>2013-06-21T14:51:37Z</time>
      </trkpt>
      <trkpt lat="44.22293" lon="3.47949">
        <ele>1091</ele>
        <time>2013-06-21T14:51:55Z</time>
      </trkpt>
      <trkpt lat="44.22306" lon="3.47934">
        <ele>1089</ele>
        <time>2013-06-21T14:52:47Z</time>
      </trkpt>
      <trkpt lat="44.22317" lon="3.4792">
        <ele>1088</ele>
        <time>2013-06-21T14:53:01Z</time>
      </trkpt>
      <trkpt lat="44.22329" lon="3.47903">
        <ele>1090</ele>
        <time>2013-06-21T14:53:16Z</time>
      </trkpt>
      <trkpt lat="44.22342" lon="3.47892">
        <ele>1093</ele>
        <time>2013-06-21T14:53:31Z</time>
      </trkpt>
      <trkpt lat="44.22353" lon="3.4788">
        <ele>1100</ele>
        <time>2013-06-21T14:53:45Z</time>
      </trkpt>
      <trkpt lat="44.22364" lon="3.47879">
        <ele>1101</ele>
        <time>2013-06-21T14:53:56Z</time>
      </trkpt>
      <trkpt lat="44.22374" lon="3.47879">
        <ele>1099</ele>
        <time>2013-06-21T14:54:12Z</time>
      </trkpt>
      <trkpt lat="44.22385" lon="3.47878">
        <ele>1102</ele>
        <time>2013-06-21T14:54:25Z</time>
      </trkpt>
      <trkpt lat="44.22389" lon="3.47878">
        <ele>1102</ele>
        <time>2013-06-21T14:54:29Z</time>
      </trkpt>
      <trkpt lat="44.22394" lon="3.47879">
        <ele>1102</ele>
        <time>2013-06-21T14:54:33Z</time>
      </trkpt>
      <trkpt lat="44.22402" lon="3.47878">
        <ele>1101</ele>
        <time>2013-06-21T14:54:40Z</time>
      </trkpt>
      <trkpt lat="44.22405" lon="3.47878">
        <ele>1101</ele>
        <time>2013-06-21T14:54:42Z</time>
      </trkpt>
      <trkpt lat="44.22416" lon="3.47877">
        <ele>1100</ele>
        <time>2013-06-21T14:54:53Z</time>
      </trkpt>
      <trkpt lat="44.22428" lon="3.47877">
        <ele>1101</ele>
        <time>2013-06-21T14:55:05Z</time>
      </trkpt>
      <trkpt lat="44.22431" lon="3.47877">
        <ele>1101</ele>
        <time>2013-06-21T14:55:07Z</time>
      </trkpt>
      <trkpt lat="44.22445" lon="3.47877">
        <ele>1103</ele>
        <time>2013-06-21T14:55:21Z</time>
      </trkpt>
      <trkpt lat="44.22461" lon="3.47877">
        <ele>1103</ele>
        <time>2013-06-21T14:55:35Z</time>
      </trkpt>
      <trkpt lat="44.22465" lon="3.47877">
        <ele>1102</ele>
        <time>2013-06-21T14:55:38Z</time>
      </trkpt>
      <trkpt lat="44.22478" lon="3.47877">
        <ele>1103</ele>
        <time>2013-06-21T14:55:50Z</time>
      </trkpt>
      <trkpt lat="44.22484" lon="3.47875">
        <ele>1101</ele>
        <time>2013-06-21T14:55:56Z</time>
      </trkpt>
      <trkpt lat="44.22492" lon="3.47875">
        <ele>1099</ele>
        <time>2013-06-21T14:56:04Z</time>
      </trkpt>
      <trkpt lat="44.22496" lon="3.47875">
        <ele>1099</ele>
        <time>2013-06-21T14:56:07Z</time>
      </trkpt>
      <trkpt lat="44.22498" lon="3.47877">
        <ele>1101</ele>
        <time>2013-06-21T14:56:09Z</time>
      </trkpt>
      <trkpt lat="44.225" lon="3.47878">
        <ele>1101</ele>
        <time>2013-06-21T14:56:11Z</time>
      </trkpt>
      <trkpt lat="44.22505" lon="3.47879">
        <ele>1102</ele>
        <time>2013-06-21T14:56:17Z</time>
      </trkpt>
      <trkpt lat="44.22517" lon="3.4788">
        <ele>1101</ele>
        <time>2013-06-21T14:56:28Z</time>
      </trkpt>
      <trkpt lat="44.22528" lon="3.4788">
        <ele>1101</ele>
        <time>2013-06-21T14:56:40Z</time>
      </trkpt>
      <trkpt lat="44.22532" lon="3.47879">
        <ele>1101</ele>
        <time>2013-06-21T14:56:44Z</time>
      </trkpt>
      <trkpt lat="44.22534" lon="3.47879">
        <ele>1101</ele>
        <time>2013-06-21T14:56:46Z</time>
      </trkpt>
      <trkpt lat="44.22535" lon="3.47879">
        <ele>1102</ele>
        <time>2013-06-21T14:56:48Z</time>
      </trkpt>
      <trkpt lat="44.22543" lon="3.47878">
        <ele>1100</ele>
        <time>2013-06-21T14:56:55Z</time>
      </trkpt>
      <trkpt lat="44.22558" lon="3.47878">
        <ele>1099</ele>
        <time>2013-06-21T14:57:10Z</time>
      </trkpt>
      <trkpt lat="44.22564" lon="3.47875">
        <ele>1103</ele>
        <time>2013-06-21T14:57:22Z</time>
      </trkpt>
      <trkpt lat="44.22577" lon="3.4787">
        <ele>1105</ele>
        <time>2013-06-21T14:57:42Z</time>
      </trkpt>
      <trkpt lat="44.22593" lon="3.47863">
        <ele>1105</ele>
        <time>2013-06-21T14:57:57Z</time>
      </trkpt>
      <trkpt lat="44.22605" lon="3.47857">
        <ele>1104</ele>
        <time>2013-06-21T14:58:07Z</time>
      </trkpt>
      <trkpt lat="44.22606" lon="3.47856">
        <ele>1104</ele>
        <time>2013-06-21T14:58:09Z</time>
      </trkpt>
      <trkpt lat="44.22618" lon="3.47849">
        <ele>1105</ele>
        <time>2013-06-21T14:58:22Z</time>
      </trkpt>
      <trkpt lat="44.2262" lon="3.47847">
        <ele>1106</ele>
        <time>2013-06-21T14:58:37Z</time>
      </trkpt>
      <trkpt lat="44.22633" lon="3.47841">
        <ele>1105</ele>
        <time>2013-06-21T14:58:57Z</time>
      </trkpt>
      <trkpt lat="44.22649" lon="3.47838">
        <ele>1106</ele>
        <time>2013-06-21T14:59:12Z</time>
      </trkpt>
      <trkpt lat="44.22659" lon="3.47836">
        <ele>1104</ele>
        <time>2013-06-21T14:59:21Z</time>
      </trkpt>
      <trkpt lat="44.22663" lon="3.47836">
        <ele>1105</ele>
        <time>2013-06-21T14:59:25Z</time>
      </trkpt>
      <trkpt lat="44.22665" lon="3.47835">
        <ele>1105</ele>
        <time>2013-06-21T14:59:27Z</time>
      </trkpt>
      <trkpt lat="44.22673" lon="3.4783">
        <ele>1108</ele>
        <time>2013-06-21T14:59:43Z</time>
      </trkpt>
      <trkpt lat="44.22677" lon="3.47823">
        <ele>1109</ele>
        <time>2013-06-21T15:00:18Z</time>
      </trkpt>
      <trkpt lat="44.22679" lon="3.4782">
        <ele>1109</ele>
        <time>2013-06-21T15:00:21Z</time>
      </trkpt>
      <trkpt lat="44.22685" lon="3.47803">
        <ele>1110</ele>
        <time>2013-06-21T15:00:35Z</time>
      </trkpt>
      <trkpt lat="44.22686" lon="3.478">
        <ele>1108</ele>
        <time>2013-06-21T15:00:52Z</time>
      </trkpt>
      <trkpt lat="44.2269" lon="3.47795">
        <ele>1112</ele>
        <time>2013-06-21T15:02:01Z</time>
      </trkpt>
      <trkpt lat="44.22697" lon="3.47778">
        <ele>1121</ele>
        <time>2013-06-21T15:05:59Z</time>
      </trkpt>
      <trkpt lat="44.22709" lon="3.47763">
        <ele>1115</ele>
        <time>2013-06-21T15:06:11Z</time>
      </trkpt>
      <trkpt lat="44.22719" lon="3.47748">
        <ele>1111</ele>
        <time>2013-06-21T15:06:23Z</time>
      </trkpt>
      <trkpt lat="44.22731" lon="3.47736">
        <ele>1110</ele>
        <time>2013-06-21T15:06:36Z</time>
      </trkpt>
      <trkpt lat="44.22733" lon="3.47735">
        <ele>1111</ele>
        <time>2013-06-21T15:06:38Z</time>
      </trkpt>
      <trkpt lat="44.2274" lon="3.4773">
        <ele>1111</ele>
        <time>2013-06-21T15:06:45Z</time>
      </trkpt>
      <trkpt lat="44.22741" lon="3.47729">
        <ele>1111</ele>
        <time>2013-06-21T15:06:47Z</time>
      </trkpt>
      <trkpt lat="44.22753" lon="3.47722">
        <ele>1114</ele>
        <time>2013-06-21T15:07:00Z</time>
      </trkpt>
      <trkpt lat="44.22764" lon="3.47714">
        <ele>1116</ele>
        <time>2013-06-21T15:07:13Z</time>
      </trkpt>
      <trkpt lat="44.22776" lon="3.47706">
        <ele>1118</ele>
        <time>2013-06-21T15:07:26Z</time>
      </trkpt>
      <trkpt lat="44.2279" lon="3.477">
        <ele>1119</ele>
        <time>2013-06-21T15:07:40Z</time>
      </trkpt>
      <trkpt lat="44.22805" lon="3.47695">
        <ele>1120</ele>
        <time>2013-06-21T15:07:54Z</time>
      </trkpt>
      <trkpt lat="44.22811" lon="3.47693">
        <ele>1119</ele>
        <time>2013-06-21T15:08:03Z</time>
      </trkpt>
      <trkpt lat="44.22816" lon="3.47691">
        <ele>1120</ele>
        <time>2013-06-21T15:08:08Z</time>
      </trkpt>
      <trkpt lat="44.22821" lon="3.47691">
        <ele>1120</ele>
        <time>2013-06-21T15:08:13Z</time>
      </trkpt>
      <trkpt lat="44.22835" lon="3.4769">
        <ele>1119</ele>
        <time>2013-06-21T15:08:27Z</time>
      </trkpt>
      <trkpt lat="44.22841" lon="3.47688">
        <ele>1121</ele>
        <time>2013-06-21T15:08:32Z</time>
      </trkpt>
      <trkpt lat="44.22845" lon="3.47687">
        <ele>1122</ele>
        <time>2013-06-21T15:08:36Z</time>
      </trkpt>
      <trkpt lat="44.22854" lon="3.47686">
        <ele>1122</ele>
        <time>2013-06-21T15:08:44Z</time>
      </trkpt>
      <trkpt lat="44.22856" lon="3.47685">
        <ele>1122</ele>
        <time>2013-06-21T15:08:46Z</time>
      </trkpt>
      <trkpt lat="44.22861" lon="3.47684">
        <ele>1122</ele>
        <time>2013-06-21T15:08:52Z</time>
      </trkpt>
      <trkpt lat="44.22862" lon="3.47684">
        <ele>1123</ele>
        <time>2013-06-21T15:08:54Z</time>
      </trkpt>
      <trkpt lat="44.22871" lon="3.47685">
        <ele>1124</ele>
        <time>2013-06-21T15:09:02Z</time>
      </trkpt>
      <trkpt lat="44.22883" lon="3.47684">
        <ele>1123</ele>
        <time>2013-06-21T15:09:14Z</time>
      </trkpt>
      <trkpt lat="44.22893" lon="3.47688">
        <ele>1122</ele>
        <time>2013-06-21T15:09:25Z</time>
      </trkpt>
      <trkpt lat="44.22906" lon="3.47694">
        <ele>1123</ele>
        <time>2013-06-21T15:09:38Z</time>
      </trkpt>
      <trkpt lat="44.2292" lon="3.47697">
        <ele>1125</ele>
        <time>2013-06-21T15:09:52Z</time>
      </trkpt>
      <trkpt lat="44.22921" lon="3.47697">
        <ele>1127</ele>
        <time>2013-06-21T15:11:02Z</time>
      </trkpt>
      <trkpt lat="44.22928" lon="3.47704">
        <ele>1126</ele>
        <time>2013-06-21T15:11:16Z</time>
      </trkpt>
      <trkpt lat="44.22931" lon="3.47706">
        <ele>1127</ele>
        <time>2013-06-21T15:11:19Z</time>
      </trkpt>
      <trkpt lat="44.22935" lon="3.47709">
        <ele>1126</ele>
        <time>2013-06-21T15:11:23Z</time>
      </trkpt>
      <trkpt lat="44.22944" lon="3.47715">
        <ele>1126</ele>
        <time>2013-06-21T15:11:32Z</time>
      </trkpt>
      <trkpt lat="44.22954" lon="3.47718">
        <ele>1126</ele>
        <time>2013-06-21T15:11:45Z</time>
      </trkpt>
      <trkpt lat="44.22956" lon="3.47719">
        <ele>1126</ele>
        <time>2013-06-21T15:11:49Z</time>
      </trkpt>
      <trkpt lat="44.22961" lon="3.47722">
        <ele>1126</ele>
        <time>2013-06-21T15:11:55Z</time>
      </trkpt>
      <trkpt lat="44.22963" lon="3.47722">
        <ele>1125</ele>
        <time>2013-06-21T15:11:57Z</time>
      </trkpt>
      <trkpt lat="44.22967" lon="3.47724">
        <ele>1126</ele>
        <time>2013-06-21T15:12:01Z</time>
      </trkpt>
      <trkpt lat="44.22972" lon="3.47725">
        <ele>1125</ele>
        <time>2013-06-21T15:12:07Z</time>
      </trkpt>
      <trkpt lat="44.22984" lon="3.47725">
        <ele>1127</ele>
        <time>2013-06-21T15:12:18Z</time>
      </trkpt>
      <trkpt lat="44.22999" lon="3.47722">
        <ele>1128</ele>
        <time>2013-06-21T15:12:32Z</time>
      </trkpt>
      <trkpt lat="44.23016" lon="3.47717">
        <ele>1128</ele>
        <time>2013-06-21T15:12:48Z</time>
      </trkpt>
      <trkpt lat="44.23029" lon="3.47712">
        <ele>1128</ele>
        <time>2013-06-21T15:13:00Z</time>
      </trkpt>
      <trkpt lat="44.23031" lon="3.47711">
        <ele>1128</ele>
        <time>2013-06-21T15:13:02Z</time>
      </trkpt>
      <trkpt lat="44.23035" lon="3.4771">
        <ele>1128</ele>
        <time>2013-06-21T15:13:06Z</time>
      </trkpt>
      <trkpt lat="44.23046" lon="3.47706">
        <ele>1127</ele>
        <time>2013-06-21T15:13:17Z</time>
      </trkpt>
      <trkpt lat="44.23064" lon="3.47701">
        <ele>1125</ele>
        <time>2013-06-21T15:13:34Z</time>
      </trkpt>
      <trkpt lat="44.23073" lon="3.477">
        <ele>1128</ele>
        <time>2013-06-21T15:13:52Z</time>
      </trkpt>
      <trkpt lat="44.23083" lon="3.47695">
        <ele>1126</ele>
        <time>2013-06-21T15:14:04Z</time>
      </trkpt>
      <trkpt lat="44.23099" lon="3.4769">
        <ele>1125</ele>
        <time>2013-06-21T15:14:18Z</time>
      </trkpt>
      <trkpt lat="44.23108" lon="3.47689">
        <ele>1124</ele>
        <time>2013-06-21T15:14:26Z</time>
      </trkpt>
      <trkpt lat="44.23116" lon="3.47689">
        <ele>1126</ele>
        <time>2013-06-21T15:14:34Z</time>
      </trkpt>
      <trkpt lat="44.23118" lon="3.47689">
        <ele>1127</ele>
        <time>2013-06-21T15:14:36Z</time>
      </trkpt>
      <trkpt lat="44.23129" lon="3.47689">
        <ele>1130</ele>
        <time>2013-06-21T15:14:47Z</time>
      </trkpt>
      <trkpt lat="44.23141" lon="3.47689">
        <ele>1129</ele>
        <time>2013-06-21T15:15:00Z</time>
      </trkpt>
      <trkpt lat="44.23157" lon="3.47685">
        <ele>1128</ele>
        <time>2013-06-21T15:15:14Z</time>
      </trkpt>
      <trkpt lat="44.23171" lon="3.47682">
        <ele>1130</ele>
        <time>2013-06-21T15:15:28Z</time>
      </trkpt>
      <trkpt lat="44.23179" lon="3.47677">
        <ele>1132</ele>
        <time>2013-06-21T15:15:36Z</time>
      </trkpt>
      <trkpt lat="44.23189" lon="3.47671">
        <ele>1131</ele>
        <time>2013-06-21T15:15:46Z</time>
      </trkpt>
      <trkpt lat="44.23202" lon="3.47664">
        <ele>1133</ele>
        <time>2013-06-21T15:15:59Z</time>
      </trkpt>
      <trkpt lat="44.23216" lon="3.47657">
        <ele>1134</ele>
        <time>2013-06-21T15:16:14Z</time>
      </trkpt>
      <trkpt lat="44.23223" lon="3.47648">
        <ele>1135</ele>
        <time>2013-06-21T15:16:33Z</time>
      </trkpt>
      <trkpt lat="44.23237" lon="3.47634">
        <ele>1137</ele>
        <time>2013-06-21T15:16:49Z</time>
      </trkpt>
      <trkpt lat="44.23252" lon="3.4762">
        <ele>1139</ele>
        <time>2013-06-21T15:17:02Z</time>
      </trkpt>
      <trkpt lat="44.23257" lon="3.47617">
        <ele>1139</ele>
        <time>2013-06-21T15:17:06Z</time>
      </trkpt>
      <trkpt lat="44.23258" lon="3.47615">
        <ele>1141</ele>
        <time>2013-06-21T15:17:09Z</time>
      </trkpt>
      <trkpt lat="44.23267" lon="3.47604">
        <ele>1142</ele>
        <time>2013-06-21T15:17:22Z</time>
      </trkpt>
      <trkpt lat="44.23276" lon="3.47595">
        <ele>1140</ele>
        <time>2013-06-21T15:17:35Z</time>
      </trkpt>
      <trkpt lat="44.23287" lon="3.47578">
        <ele>1141</ele>
        <time>2013-06-21T15:17:49Z</time>
      </trkpt>
      <trkpt lat="44.23295" lon="3.47561">
        <ele>1138</ele>
        <time>2013-06-21T15:18:01Z</time>
      </trkpt>
      <trkpt lat="44.233" lon="3.47541">
        <ele>1138</ele>
        <time>2013-06-21T15:18:15Z</time>
      </trkpt>
      <trkpt lat="44.23306" lon="3.47524">
        <ele>1141</ele>
        <time>2013-06-21T15:18:28Z</time>
      </trkpt>
      <trkpt lat="44.23311" lon="3.47514">
        <ele>1141</ele>
        <time>2013-06-21T15:18:37Z</time>
      </trkpt>
      <trkpt lat="44.23314" lon="3.4751">
        <ele>1141</ele>
        <time>2013-06-21T15:18:41Z</time>
      </trkpt>
      <trkpt lat="44.23318" lon="3.47508">
        <ele>1138</ele>
        <time>2013-06-21T15:18:57Z</time>
      </trkpt>
      <trkpt lat="44.2332" lon="3.47507">
        <ele>1140</ele>
        <time>2013-06-21T15:19:56Z</time>
      </trkpt>
      <trkpt lat="44.23323" lon="3.47504">
        <ele>1140</ele>
        <time>2013-06-21T15:19:58Z</time>
      </trkpt>
      <trkpt lat="44.23327" lon="3.47499">
        <ele>1139</ele>
        <time>2013-06-21T15:20:02Z</time>
      </trkpt>
      <trkpt lat="44.23333" lon="3.47496">
        <ele>1139</ele>
        <time>2013-06-21T15:20:07Z</time>
      </trkpt>
      <trkpt lat="44.2335" lon="3.47482">
        <ele>1140</ele>
        <time>2013-06-21T15:20:23Z</time>
      </trkpt>
      <trkpt lat="44.23368" lon="3.47465">
        <ele>1140</ele>
        <time>2013-06-21T15:20:38Z</time>
      </trkpt>
      <trkpt lat="44.23382" lon="3.47452">
        <ele>1141</ele>
        <time>2013-06-21T15:20:51Z</time>
      </trkpt>
      <trkpt lat="44.23397" lon="3.47442">
        <ele>1140</ele>
        <time>2013-06-21T15:21:06Z</time>
      </trkpt>
      <trkpt lat="44.23403" lon="3.47435">
        <ele>1140</ele>
        <time>2013-06-21T15:21:12Z</time>
      </trkpt>
      <trkpt lat="44.23412" lon="3.47421">
        <ele>1138</ele>
        <time>2013-06-21T15:21:25Z</time>
      </trkpt>
      <trkpt lat="44.23432" lon="3.47411">
        <ele>1136</ele>
        <time>2013-06-21T15:21:44Z</time>
      </trkpt>
      <trkpt lat="44.2345" lon="3.47405">
        <ele>1133</ele>
        <time>2013-06-21T15:22:03Z</time>
      </trkpt>
      <trkpt lat="44.2347" lon="3.47398">
        <ele>1134</ele>
        <time>2013-06-21T15:22:23Z</time>
      </trkpt>
      <trkpt lat="44.23489" lon="3.4739">
        <ele>1133</ele>
        <time>2013-06-21T15:22:45Z</time>
      </trkpt>
      <trkpt lat="44.23507" lon="3.47381">
        <ele>1132</ele>
        <time>2013-06-21T15:23:07Z</time>
      </trkpt>
      <trkpt lat="44.23537" lon="3.47374">
        <ele>1132</ele>
        <time>2013-06-21T15:23:39Z</time>
      </trkpt>
      <trkpt lat="44.23555" lon="3.47365">
        <ele>1130</ele>
        <time>2013-06-21T15:24:01Z</time>
      </trkpt>
      <trkpt lat="44.23573" lon="3.47357">
        <ele>1130</ele>
        <time>2013-06-21T15:24:21Z</time>
      </trkpt>
      <trkpt lat="44.23595" lon="3.47351">
        <ele>1130</ele>
        <time>2013-06-21T15:24:42Z</time>
      </trkpt>
      <trkpt lat="44.2361" lon="3.47335">
        <ele>1128</ele>
        <time>2013-06-21T15:25:05Z</time>
      </trkpt>
      <trkpt lat="44.23626" lon="3.47323">
        <ele>1125</ele>
        <time>2013-06-21T15:25:29Z</time>
      </trkpt>
      <trkpt lat="44.23657" lon="3.47316">
        <ele>1125</ele>
        <time>2013-06-21T15:25:51Z</time>
      </trkpt>
      <trkpt lat="44.23661" lon="3.47316">
        <ele>1126</ele>
        <time>2013-06-21T15:25:52Z</time>
      </trkpt>
      <trkpt lat="44.2368" lon="3.47313">
        <ele>1128</ele>
        <time>2013-06-21T15:26:07Z</time>
      </trkpt>
      <trkpt lat="44.237" lon="3.47301">
        <ele>1127</ele>
        <time>2013-06-21T15:26:28Z</time>
      </trkpt>
      <trkpt lat="44.23702" lon="3.47298">
        <ele>1126</ele>
        <time>2013-06-21T15:26:30Z</time>
      </trkpt>
      <trkpt lat="44.23717" lon="3.47311">
        <ele>1122</ele>
        <time>2013-06-21T15:26:47Z</time>
      </trkpt>
      <trkpt lat="44.23733" lon="3.47307">
        <ele>1122</ele>
        <time>2013-06-21T15:27:09Z</time>
      </trkpt>
      <trkpt lat="44.23767" lon="3.47309">
        <ele>1118</ele>
        <time>2013-06-21T15:27:39Z</time>
      </trkpt>
      <trkpt lat="44.23796" lon="3.473">
        <ele>1111</ele>
        <time>2013-06-21T15:28:01Z</time>
      </trkpt>
      <trkpt lat="44.23813" lon="3.47286">
        <ele>1104</ele>
        <time>2013-06-21T15:28:14Z</time>
      </trkpt>
      <trkpt lat="44.23829" lon="3.47278">
        <ele>1096</ele>
        <time>2013-06-21T15:28:25Z</time>
      </trkpt>
      <trkpt lat="44.23832" lon="3.47296">
        <ele>1094</ele>
        <time>2013-06-21T15:28:31Z</time>
      </trkpt>
      <trkpt lat="44.23851" lon="3.4728">
        <ele>1081</ele>
        <time>2013-06-21T15:28:45Z</time>
      </trkpt>
      <trkpt lat="44.23865" lon="3.47272">
        <ele>1069</ele>
        <time>2013-06-21T15:29:00Z</time>
      </trkpt>
      <trkpt lat="44.23877" lon="3.4727">
        <ele>1057</ele>
        <time>2013-06-21T15:29:10Z</time>
      </trkpt>
      <trkpt lat="44.23887" lon="3.4728">
        <ele>1054</ele>
        <time>2013-06-21T15:29:23Z</time>
      </trkpt>
      <trkpt lat="44.23909" lon="3.47278">
        <ele>1054</ele>
        <time>2013-06-21T15:29:39Z</time>
      </trkpt>
      <trkpt lat="44.23928" lon="3.47279">
        <ele>1055</ele>
        <time>2013-06-21T15:29:48Z</time>
      </trkpt>
      <trkpt lat="44.23933" lon="3.47278">
        <ele>1054</ele>
        <time>2013-06-21T15:29:52Z</time>
      </trkpt>
      <trkpt lat="44.23941" lon="3.47266">
        <ele>1052</ele>
        <time>2013-06-21T15:29:58Z</time>
      </trkpt>
      <trkpt lat="44.23945" lon="3.4726">
        <ele>1050</ele>
        <time>2013-06-21T15:30:02Z</time>
      </trkpt>
      <trkpt lat="44.23942" lon="3.47251">
        <ele>1056</ele>
        <time>2013-06-21T15:30:19Z</time>
      </trkpt>
      <trkpt lat="44.23955" lon="3.47241">
        <ele>1058</ele>
        <time>2013-06-21T15:30:32Z</time>
      </trkpt>
      <trkpt lat="44.23966" lon="3.47239">
        <ele>1057</ele>
        <time>2013-06-21T15:30:44Z</time>
      </trkpt>
      <trkpt lat="44.23971" lon="3.47242">
        <ele>1054</ele>
        <time>2013-06-21T15:30:58Z</time>
      </trkpt>
      <trkpt lat="44.23978" lon="3.47254">
        <ele>1065</ele>
        <time>2013-06-21T15:31:08Z</time>
      </trkpt>
      <trkpt lat="44.23983" lon="3.47258">
        <ele>1064</ele>
        <time>2013-06-21T15:31:12Z</time>
      </trkpt>
      <trkpt lat="44.23999" lon="3.47259">
        <ele>1060</ele>
        <time>2013-06-21T15:31:26Z</time>
      </trkpt>
      <trkpt lat="44.23998" lon="3.47288">
        <ele>1059</ele>
        <time>2013-06-21T15:31:37Z</time>
      </trkpt>
      <trkpt lat="44.24018" lon="3.47285">
        <ele>1067</ele>
        <time>2013-06-21T15:32:01Z</time>
      </trkpt>
      <trkpt lat="44.2405" lon="3.47271">
        <ele>1065</ele>
        <time>2013-06-21T15:32:14Z</time>
      </trkpt>
      <trkpt lat="44.24062" lon="3.47253">
        <ele>1060</ele>
        <time>2013-06-21T15:32:27Z</time>
      </trkpt>
      <trkpt lat="44.24077" lon="3.47241">
        <ele>1051</ele>
        <time>2013-06-21T15:32:40Z</time>
      </trkpt>
      <trkpt lat="44.24094" lon="3.47242">
        <ele>1045</ele>
        <time>2013-06-21T15:32:51Z</time>
      </trkpt>
      <trkpt lat="44.24112" lon="3.47234">
        <ele>1035</ele>
        <time>2013-06-21T15:33:04Z</time>
      </trkpt>
      <trkpt lat="44.24126" lon="3.47227">
        <ele>1025</ele>
        <time>2013-06-21T15:33:15Z</time>
      </trkpt>
      <trkpt lat="44.24138" lon="3.47229">
        <ele>1014</ele>
        <time>2013-06-21T15:33:29Z</time>
      </trkpt>
      <trkpt lat="44.24149" lon="3.4722">
        <ele>1010</ele>
        <time>2013-06-21T15:33:44Z</time>
      </trkpt>
      <trkpt lat="44.24151" lon="3.47219">
        <ele>1010</ele>
        <time>2013-06-21T15:33:46Z</time>
      </trkpt>
      <trkpt lat="44.24158" lon="3.47213">
        <ele>1008</ele>
        <time>2013-06-21T15:33:52Z</time>
      </trkpt>
      <trkpt lat="44.24174" lon="3.47216">
        <ele>1003</ele>
        <time>2013-06-21T15:34:07Z</time>
      </trkpt>
      <trkpt lat="44.24188" lon="3.47203">
        <ele>1008</ele>
        <time>2013-06-21T15:34:24Z</time>
      </trkpt>
      <trkpt lat="44.24208" lon="3.47187">
        <ele>1005</ele>
        <time>2013-06-21T15:34:43Z</time>
      </trkpt>
      <trkpt lat="44.24225" lon="3.47187">
        <ele>1007</ele>
        <time>2013-06-21T15:34:56Z</time>
      </trkpt>
      <trkpt lat="44.24226" lon="3.47187">
        <ele>1008</ele>
        <time>2013-06-21T15:34:58Z</time>
      </trkpt>
      <trkpt lat="44.24237" lon="3.47182">
        <ele>1012</ele>
        <time>2013-06-21T15:35:14Z</time>
      </trkpt>
      <trkpt lat="44.24251" lon="3.47174">
        <ele>1009</ele>
        <time>2013-06-21T15:35:32Z</time>
      </trkpt>
      <trkpt lat="44.2426" lon="3.47165">
        <ele>1005</ele>
        <time>2013-06-21T15:35:52Z</time>
      </trkpt>
      <trkpt lat="44.24271" lon="3.47148">
        <ele>1001</ele>
        <time>2013-06-21T15:36:10Z</time>
      </trkpt>
      <trkpt lat="44.24286" lon="3.47155">
        <ele>1007</ele>
        <time>2013-06-21T15:36:22Z</time>
      </trkpt>
      <trkpt lat="44.243" lon="3.47163">
        <ele>1015</ele>
        <time>2013-06-21T15:36:35Z</time>
      </trkpt>
      <trkpt lat="44.24315" lon="3.4717">
        <ele>1022</ele>
        <time>2013-06-21T15:36:49Z</time>
      </trkpt>
      <trkpt lat="44.24316" lon="3.47169">
        <ele>1022</ele>
        <time>2013-06-21T15:36:50Z</time>
      </trkpt>
      <trkpt lat="44.24329" lon="3.47176">
        <ele>1030</ele>
        <time>2013-06-21T15:37:04Z</time>
      </trkpt>
      <trkpt lat="44.24326" lon="3.47169">
        <ele>1028</ele>
        <time>2013-06-21T15:37:11Z</time>
      </trkpt>
      <trkpt lat="44.2433" lon="3.47158">
        <ele>1026</ele>
        <time>2013-06-21T15:37:26Z</time>
      </trkpt>
      <trkpt lat="44.24335" lon="3.47159">
        <ele>1031</ele>
        <time>2013-06-21T15:37:40Z</time>
      </trkpt>
      <trkpt lat="44.24342" lon="3.47164">
        <ele>1038</ele>
        <time>2013-06-21T15:37:58Z</time>
      </trkpt>
      <trkpt lat="44.24348" lon="3.47189">
        <ele>1046</ele>
        <time>2013-06-21T15:38:13Z</time>
      </trkpt>
      <trkpt lat="44.24311" lon="3.47185">
        <ele>1055</ele>
        <time>2013-06-21T15:38:49Z</time>
      </trkpt>
      <trkpt lat="44.24307" lon="3.47176">
        <ele>1059</ele>
        <time>2013-06-21T15:39:11Z</time>
      </trkpt>
      <trkpt lat="44.24319" lon="3.47161">
        <ele>1058</ele>
        <time>2013-06-21T15:39:28Z</time>
      </trkpt>
      <trkpt lat="44.24341" lon="3.47145">
        <ele>1055</ele>
        <time>2013-06-21T15:39:50Z</time>
      </trkpt>
      <trkpt lat="44.24336" lon="3.47152">
        <ele>1055</ele>
        <time>2013-06-21T15:40:07Z</time>
      </trkpt>
      <trkpt lat="44.24356" lon="3.4714">
        <ele>1061</ele>
        <time>2013-06-21T15:41:09Z</time>
      </trkpt>
      <trkpt lat="44.24362" lon="3.47129">
        <ele>1060</ele>
        <time>2013-06-21T15:41:22Z</time>
      </trkpt>
      <trkpt lat="44.24375" lon="3.47121">
        <ele>1064</ele>
        <time>2013-06-21T15:41:40Z</time>
      </trkpt>
      <trkpt lat="44.24377" lon="3.47117">
        <ele>1063</ele>
        <time>2013-06-21T15:42:12Z</time>
      </trkpt>
      <trkpt lat="44.24392" lon="3.47105">
        <ele>1064</ele>
        <time>2013-06-21T15:42:34Z</time>
      </trkpt>
      <trkpt lat="44.24411" lon="3.4709">
        <ele>1060</ele>
        <time>2013-06-21T15:42:52Z</time>
      </trkpt>
      <trkpt lat="44.24429" lon="3.47082">
        <ele>1060</ele>
        <time>2013-06-21T15:43:18Z</time>
      </trkpt>
      <trkpt lat="44.24451" lon="3.4707">
        <ele>1065</ele>
        <time>2013-06-21T15:44:06Z</time>
      </trkpt>
      <trkpt lat="44.2447" lon="3.47057">
        <ele>1068</ele>
        <time>2013-06-21T15:44:25Z</time>
      </trkpt>
      <trkpt lat="44.24489" lon="3.47047">
        <ele>1072</ele>
        <time>2013-06-21T15:44:49Z</time>
      </trkpt>
      <trkpt lat="44.24505" lon="3.47032">
        <ele>1078</ele>
        <time>2013-06-21T15:45:12Z</time>
      </trkpt>
      <trkpt lat="44.24519" lon="3.47018">
        <ele>1083</ele>
        <time>2013-06-21T15:45:32Z</time>
      </trkpt>
      <trkpt lat="44.24534" lon="3.47005">
        <ele>1085</ele>
        <time>2013-06-21T15:45:48Z</time>
      </trkpt>
      <trkpt lat="44.24556" lon="3.46994">
        <ele>1085</ele>
        <time>2013-06-21T15:46:08Z</time>
      </trkpt>
      <trkpt lat="44.2457" lon="3.46986">
        <ele>1084</ele>
        <time>2013-06-21T15:46:20Z</time>
      </trkpt>
      <trkpt lat="44.24582" lon="3.46986">
        <ele>1083</ele>
        <time>2013-06-21T15:46:39Z</time>
      </trkpt>
      <trkpt lat="44.24589" lon="3.46982">
        <ele>1079</ele>
        <time>2013-06-21T15:47:05Z</time>
      </trkpt>
      <trkpt lat="44.24598" lon="3.46972">
        <ele>1077</ele>
        <time>2013-06-21T15:47:16Z</time>
      </trkpt>
      <trkpt lat="44.24598" lon="3.46981">
        <ele>1078</ele>
        <time>2013-06-21T15:47:43Z</time>
      </trkpt>
      <trkpt lat="44.24613" lon="3.46958">
        <ele>1079</ele>
        <time>2013-06-21T15:48:30Z</time>
      </trkpt>
      <trkpt lat="44.24617" lon="3.46951">
        <ele>1075</ele>
        <time>2013-06-21T15:48:45Z</time>
      </trkpt>
      <trkpt lat="44.24622" lon="3.46942">
        <ele>1069</ele>
        <time>2013-06-21T15:49:03Z</time>
      </trkpt>
      <trkpt lat="44.24634" lon="3.46926">
        <ele>1069</ele>
        <time>2013-06-21T15:49:16Z</time>
      </trkpt>
      <trkpt lat="44.24646" lon="3.46909">
        <ele>1067</ele>
        <time>2013-06-21T15:49:29Z</time>
      </trkpt>
      <trkpt lat="44.24648" lon="3.469">
        <ele>1061</ele>
        <time>2013-06-21T15:49:59Z</time>
      </trkpt>
      <trkpt lat="44.2465" lon="3.46893">
        <ele>1061</ele>
        <time>2013-06-21T15:50:06Z</time>
      </trkpt>
      <trkpt lat="44.24654" lon="3.46885">
        <ele>1060</ele>
        <time>2013-06-21T15:50:13Z</time>
      </trkpt>
      <trkpt lat="44.2466" lon="3.46868">
        <ele>1061</ele>
        <time>2013-06-21T15:50:28Z</time>
      </trkpt>
      <trkpt lat="44.24664" lon="3.46853">
        <ele>1058</ele>
        <time>2013-06-21T15:50:40Z</time>
      </trkpt>
      <trkpt lat="44.24656" lon="3.46837">
        <ele>1062</ele>
        <time>2013-06-21T15:50:59Z</time>
      </trkpt>
      <trkpt lat="44.24657" lon="3.4682">
        <ele>1060</ele>
        <time>2013-06-21T15:51:15Z</time>
      </trkpt>
      <trkpt lat="44.24665" lon="3.46801">
        <ele>1058</ele>
        <time>2013-06-21T15:51:30Z</time>
      </trkpt>
      <trkpt lat="44.24668" lon="3.46786">
        <ele>1057</ele>
        <time>2013-06-21T15:51:45Z</time>
      </trkpt>
      <trkpt lat="44.24677" lon="3.46776">
        <ele>1056</ele>
        <time>2013-06-21T15:51:55Z</time>
      </trkpt>
      <trkpt lat="44.24692" lon="3.46753">
        <ele>1055</ele>
        <time>2013-06-21T15:52:13Z</time>
      </trkpt>
      <trkpt lat="44.24688" lon="3.46741">
        <ele>1055</ele>
        <time>2013-06-21T15:52:24Z</time>
      </trkpt>
      <trkpt lat="44.2468" lon="3.46727">
        <ele>1057</ele>
        <time>2013-06-21T15:52:36Z</time>
      </trkpt>
      <trkpt lat="44.24692" lon="3.46703">
        <ele>1058</ele>
        <time>2013-06-21T15:52:54Z</time>
      </trkpt>
      <trkpt lat="44.24702" lon="3.4669">
        <ele>1060</ele>
        <time>2013-06-21T15:53:11Z</time>
      </trkpt>
      <trkpt lat="44.24713" lon="3.46675">
        <ele>1061</ele>
        <time>2013-06-21T15:53:26Z</time>
      </trkpt>
      <trkpt lat="44.24713" lon="3.46674">
        <ele>1061</ele>
        <time>2013-06-21T15:53:27Z</time>
      </trkpt>
      <trkpt lat="44.24718" lon="3.46658">
        <ele>1064</ele>
        <time>2013-06-21T15:53:42Z</time>
      </trkpt>
      <trkpt lat="44.24727" lon="3.46638">
        <ele>1064</ele>
        <time>2013-06-21T15:53:56Z</time>
      </trkpt>
      <trkpt lat="44.24732" lon="3.46618">
        <ele>1062</ele>
        <time>2013-06-21T15:54:10Z</time>
      </trkpt>
      <trkpt lat="44.24745" lon="3.46606">
        <ele>1064</ele>
        <time>2013-06-21T15:54:31Z</time>
      </trkpt>
      <trkpt lat="44.24763" lon="3.46581">
        <ele>1063</ele>
        <time>2013-06-21T15:54:53Z</time>
      </trkpt>
      <trkpt lat="44.24775" lon="3.4657">
        <ele>1061</ele>
        <time>2013-06-21T15:55:09Z</time>
      </trkpt>
      <trkpt lat="44.24781" lon="3.46564">
        <ele>1061</ele>
        <time>2013-06-21T15:55:16Z</time>
      </trkpt>
      <trkpt lat="44.24782" lon="3.46559">
        <ele>1058</ele>
        <time>2013-06-21T15:55:30Z</time>
      </trkpt>
      <trkpt lat="44.24792" lon="3.4655">
        <ele>1060</ele>
        <time>2013-06-21T15:55:50Z</time>
      </trkpt>
      <trkpt lat="44.24796" lon="3.46546">
        <ele>1061</ele>
        <time>2013-06-21T15:55:58Z</time>
      </trkpt>
      <trkpt lat="44.24796" lon="3.46542">
        <ele>1057</ele>
        <time>2013-06-21T15:56:14Z</time>
      </trkpt>
      <trkpt lat="44.24806" lon="3.46545">
        <ele>1053</ele>
        <time>2013-06-21T15:57:40Z</time>
      </trkpt>
      <trkpt lat="44.24817" lon="3.46541">
        <ele>1056</ele>
        <time>2013-06-21T15:58:01Z</time>
      </trkpt>
      <trkpt lat="44.24832" lon="3.46533">
        <ele>1053</ele>
        <time>2013-06-21T15:58:34Z</time>
      </trkpt>
      <trkpt lat="44.24844" lon="3.46524">
        <ele>1048</ele>
        <time>2013-06-21T15:58:47Z</time>
      </trkpt>
      <trkpt lat="44.24857" lon="3.46508">
        <ele>1042</ele>
        <time>2013-06-21T15:59:11Z</time>
      </trkpt>
      <trkpt lat="44.24867" lon="3.46496">
        <ele>1040</ele>
        <time>2013-06-21T15:59:29Z</time>
      </trkpt>
      <trkpt lat="44.24879" lon="3.46485">
        <ele>1041</ele>
        <time>2013-06-21T15:59:49Z</time>
      </trkpt>
      <trkpt lat="44.24888" lon="3.46478">
        <ele>1040</ele>
        <time>2013-06-21T16:00:04Z</time>
      </trkpt>
      <trkpt lat="44.2489" lon="3.46477">
        <ele>1040</ele>
        <time>2013-06-21T16:00:08Z</time>
      </trkpt>
      <trkpt lat="44.24897" lon="3.46471">
        <ele>1040</ele>
        <time>2013-06-21T16:00:27Z</time>
      </trkpt>
      <trkpt lat="44.249" lon="3.46463">
        <ele>1040</ele>
        <time>2013-06-21T16:00:46Z</time>
      </trkpt>
      <trkpt lat="44.24911" lon="3.4645">
        <ele>1037</ele>
        <time>2013-06-21T16:01:09Z</time>
      </trkpt>
      <trkpt lat="44.24926" lon="3.46439">
        <ele>1034</ele>
        <time>2013-06-21T16:01:26Z</time>
      </trkpt>
      <trkpt lat="44.24942" lon="3.46429">
        <ele>1030</ele>
        <time>2013-06-21T16:01:44Z</time>
      </trkpt>
      <trkpt lat="44.24947" lon="3.46427">
        <ele>1030</ele>
        <time>2013-06-21T16:01:51Z</time>
      </trkpt>
      <trkpt lat="44.24964" lon="3.4642">
        <ele>1027</ele>
        <time>2013-06-21T16:02:09Z</time>
      </trkpt>
      <trkpt lat="44.24973" lon="3.46411">
        <ele>1024</ele>
        <time>2013-06-21T16:02:24Z</time>
      </trkpt>
      <trkpt lat="44.24976" lon="3.46408">
        <ele>1023</ele>
        <time>2013-06-21T16:02:30Z</time>
      </trkpt>
      <trkpt lat="44.24979" lon="3.46408">
        <ele>1023</ele>
        <time>2013-06-21T16:02:33Z</time>
      </trkpt>
      <trkpt lat="44.24994" lon="3.46395">
        <ele>1022</ele>
        <time>2013-06-21T16:02:50Z</time>
      </trkpt>
      <trkpt lat="44.24999" lon="3.46388">
        <ele>1020</ele>
        <time>2013-06-21T16:02:59Z</time>
      </trkpt>
      <trkpt lat="44.25011" lon="3.4638">
        <ele>1016</ele>
        <time>2013-06-21T16:03:17Z</time>
      </trkpt>
      <trkpt lat="44.25024" lon="3.46372">
        <ele>1013</ele>
        <time>2013-06-21T16:03:34Z</time>
      </trkpt>
      <trkpt lat="44.25032" lon="3.46369">
        <ele>1011</ele>
        <time>2013-06-21T16:03:47Z</time>
      </trkpt>
      <trkpt lat="44.25044" lon="3.46365">
        <ele>1010</ele>
        <time>2013-06-21T16:04:05Z</time>
      </trkpt>
      <trkpt lat="44.25055" lon="3.46363">
        <ele>1008</ele>
        <time>2013-06-21T16:04:21Z</time>
      </trkpt>
      <trkpt lat="44.25062" lon="3.46362">
        <ele>1007</ele>
        <time>2013-06-21T16:04:29Z</time>
      </trkpt>
      <trkpt lat="44.25073" lon="3.46357">
        <ele>1004</ele>
        <time>2013-06-21T16:04:43Z</time>
      </trkpt>
      <trkpt lat="44.25084" lon="3.46351">
        <ele>1004</ele>
        <time>2013-06-21T16:04:59Z</time>
      </trkpt>
      <trkpt lat="44.251" lon="3.46345">
        <ele>1002</ele>
        <time>2013-06-21T16:05:14Z</time>
      </trkpt>
      <trkpt lat="44.25113" lon="3.46339">
        <ele>999</ele>
        <time>2013-06-21T16:05:29Z</time>
      </trkpt>
      <trkpt lat="44.25121" lon="3.46337">
        <ele>998</ele>
        <time>2013-06-21T16:05:37Z</time>
      </trkpt>
      <trkpt lat="44.25132" lon="3.46328">
        <ele>996</ele>
        <time>2013-06-21T16:05:50Z</time>
      </trkpt>
      <trkpt lat="44.2514" lon="3.46325">
        <ele>995</ele>
        <time>2013-06-21T16:06:00Z</time>
      </trkpt>
      <trkpt lat="44.25153" lon="3.46321">
        <ele>996</ele>
        <time>2013-06-21T16:06:12Z</time>
      </trkpt>
      <trkpt lat="44.25154" lon="3.46319">
        <ele>996</ele>
        <time>2013-06-21T16:06:14Z</time>
      </trkpt>
      <trkpt lat="44.25163" lon="3.46314">
        <ele>996</ele>
        <time>2013-06-21T16:06:25Z</time>
      </trkpt>
      <trkpt lat="44.25178" lon="3.4631">
        <ele>993</ele>
        <time>2013-06-21T16:06:38Z</time>
      </trkpt>
      <trkpt lat="44.2518" lon="3.46307">
        <ele>992</ele>
        <time>2013-06-21T16:06:41Z</time>
      </trkpt>
      <trkpt lat="44.25189" lon="3.46302">
        <ele>993</ele>
        <time>2013-06-21T16:06:54Z</time>
      </trkpt>
      <trkpt lat="44.25196" lon="3.46301">
        <ele>991</ele>
        <time>2013-06-21T16:07:59Z</time>
      </trkpt>
      <trkpt lat="44.25217" lon="3.46301">
        <ele>992</ele>
        <time>2013-06-21T16:08:59Z</time>
      </trkpt>
      <trkpt lat="44.25225" lon="3.46297">
        <ele>994</ele>
        <time>2013-06-21T16:09:19Z</time>
      </trkpt>
      <trkpt lat="44.25228" lon="3.46294">
        <ele>994</ele>
        <time>2013-06-21T16:09:27Z</time>
      </trkpt>
      <trkpt lat="44.25233" lon="3.46289">
        <ele>994</ele>
        <time>2013-06-21T16:09:32Z</time>
      </trkpt>
      <trkpt lat="44.25238" lon="3.46282">
        <ele>994</ele>
        <time>2013-06-21T16:09:39Z</time>
      </trkpt>
      <trkpt lat="44.25249" lon="3.46263">
        <ele>995</ele>
        <time>2013-06-21T16:09:52Z</time>
      </trkpt>
      <trkpt lat="44.2525" lon="3.46262">
        <ele>995</ele>
        <time>2013-06-21T16:09:53Z</time>
      </trkpt>
      <trkpt lat="44.25256" lon="3.46255">
        <ele>995</ele>
        <time>2013-06-21T16:09:59Z</time>
      </trkpt>
      <trkpt lat="44.25262" lon="3.46251">
        <ele>996</ele>
        <time>2013-06-21T16:10:05Z</time>
      </trkpt>
      <trkpt lat="44.25263" lon="3.46251">
        <ele>996</ele>
        <time>2013-06-21T16:10:07Z</time>
      </trkpt>
      <trkpt lat="44.25265" lon="3.46249">
        <ele>997</ele>
        <time>2013-06-21T16:10:10Z</time>
      </trkpt>
      <trkpt lat="44.25276" lon="3.46237">
        <ele>997</ele>
        <time>2013-06-21T16:10:21Z</time>
      </trkpt>
      <trkpt lat="44.25283" lon="3.46227">
        <ele>998</ele>
        <time>2013-06-21T16:10:30Z</time>
      </trkpt>
      <trkpt lat="44.25285" lon="3.46225">
        <ele>998</ele>
        <time>2013-06-21T16:10:32Z</time>
      </trkpt>
      <trkpt lat="44.2529" lon="3.46221">
        <ele>998</ele>
        <time>2013-06-21T16:10:37Z</time>
      </trkpt>
      <trkpt lat="44.25293" lon="3.46219">
        <ele>999</ele>
        <time>2013-06-21T16:10:40Z</time>
      </trkpt>
      <trkpt lat="44.25305" lon="3.46212">
        <ele>999</ele>
        <time>2013-06-21T16:10:51Z</time>
      </trkpt>
      <trkpt lat="44.25312" lon="3.46202">
        <ele>1000</ele>
        <time>2013-06-21T16:11:03Z</time>
      </trkpt>
      <trkpt lat="44.25323" lon="3.46197">
        <ele>999</ele>
        <time>2013-06-21T16:11:13Z</time>
      </trkpt>
      <trkpt lat="44.2533" lon="3.46189">
        <ele>998</ele>
        <time>2013-06-21T16:11:24Z</time>
      </trkpt>
      <trkpt lat="44.2534" lon="3.46182">
        <ele>998</ele>
        <time>2013-06-21T16:11:35Z</time>
      </trkpt>
      <trkpt lat="44.25348" lon="3.46177">
        <ele>998</ele>
        <time>2013-06-21T16:11:42Z</time>
      </trkpt>
      <trkpt lat="44.25358" lon="3.46168">
        <ele>999</ele>
        <time>2013-06-21T16:11:54Z</time>
      </trkpt>
      <trkpt lat="44.25359" lon="3.46166">
        <ele>1000</ele>
        <time>2013-06-21T16:11:56Z</time>
      </trkpt>
      <trkpt lat="44.25367" lon="3.46161">
        <ele>1001</ele>
        <time>2013-06-21T16:12:04Z</time>
      </trkpt>
      <trkpt lat="44.25377" lon="3.46153">
        <ele>1004</ele>
        <time>2013-06-21T16:12:15Z</time>
      </trkpt>
      <trkpt lat="44.2538" lon="3.46152">
        <ele>1005</ele>
        <time>2013-06-21T16:12:18Z</time>
      </trkpt>
      <trkpt lat="44.25383" lon="3.46149">
        <ele>1006</ele>
        <time>2013-06-21T16:12:22Z</time>
      </trkpt>
      <trkpt lat="44.25386" lon="3.46148">
        <ele>1006</ele>
        <time>2013-06-21T16:12:24Z</time>
      </trkpt>
      <trkpt lat="44.25394" lon="3.46142">
        <ele>1009</ele>
        <time>2013-06-21T16:12:35Z</time>
      </trkpt>
      <trkpt lat="44.25402" lon="3.46136">
        <ele>1010</ele>
        <time>2013-06-21T16:12:47Z</time>
      </trkpt>
      <trkpt lat="44.25413" lon="3.46131">
        <ele>1011</ele>
        <time>2013-06-21T16:12:58Z</time>
      </trkpt>
      <trkpt lat="44.25417" lon="3.46131">
        <ele>1011</ele>
        <time>2013-06-21T16:13:01Z</time>
      </trkpt>
      <trkpt lat="44.25425" lon="3.4613">
        <ele>1010</ele>
        <time>2013-06-21T16:13:11Z</time>
      </trkpt>
      <trkpt lat="44.25429" lon="3.46128">
        <ele>1010</ele>
        <time>2013-06-21T16:13:18Z</time>
      </trkpt>
      <trkpt lat="44.25444" lon="3.46132">
        <ele>1009</ele>
        <time>2013-06-21T16:13:35Z</time>
      </trkpt>
      <trkpt lat="44.25454" lon="3.46133">
        <ele>1007</ele>
        <time>2013-06-21T16:13:42Z</time>
      </trkpt>
      <trkpt lat="44.25466" lon="3.46135">
        <ele>1004</ele>
        <time>2013-06-21T16:13:53Z</time>
      </trkpt>
      <trkpt lat="44.25485" lon="3.46137">
        <ele>999</ele>
        <time>2013-06-21T16:14:08Z</time>
      </trkpt>
      <trkpt lat="44.255" lon="3.46142">
        <ele>997</ele>
        <time>2013-06-21T16:14:20Z</time>
      </trkpt>
      <trkpt lat="44.25514" lon="3.46146">
        <ele>994</ele>
        <time>2013-06-21T16:14:34Z</time>
      </trkpt>
      <trkpt lat="44.25527" lon="3.46152">
        <ele>992</ele>
        <time>2013-06-21T16:14:48Z</time>
      </trkpt>
      <trkpt lat="44.25539" lon="3.4616">
        <ele>992</ele>
        <time>2013-06-21T16:14:59Z</time>
      </trkpt>
      <trkpt lat="44.2555" lon="3.46167">
        <ele>994</ele>
        <time>2013-06-21T16:15:09Z</time>
      </trkpt>
      <trkpt lat="44.25563" lon="3.46172">
        <ele>995</ele>
        <time>2013-06-21T16:15:27Z</time>
      </trkpt>
      <trkpt lat="44.25581" lon="3.4618">
        <ele>997</ele>
        <time>2013-06-21T16:15:46Z</time>
      </trkpt>
      <trkpt lat="44.25592" lon="3.4618">
        <ele>996</ele>
        <time>2013-06-21T16:16:00Z</time>
      </trkpt>
      <trkpt lat="44.25619" lon="3.46189">
        <ele>993</ele>
        <time>2013-06-21T16:16:20Z</time>
      </trkpt>
      <trkpt lat="44.25636" lon="3.46189">
        <ele>990</ele>
        <time>2013-06-21T16:16:34Z</time>
      </trkpt>
      <trkpt lat="44.25647" lon="3.46192">
        <ele>988</ele>
        <time>2013-06-21T16:16:47Z</time>
      </trkpt>
      <trkpt lat="44.25661" lon="3.46195">
        <ele>990</ele>
        <time>2013-06-21T16:17:00Z</time>
      </trkpt>
      <trkpt lat="44.25676" lon="3.46193">
        <ele>986</ele>
        <time>2013-06-21T16:17:12Z</time>
      </trkpt>
      <trkpt lat="44.25691" lon="3.46192">
        <ele>985</ele>
        <time>2013-06-21T16:17:24Z</time>
      </trkpt>
      <trkpt lat="44.257" lon="3.4619">
        <ele>985</ele>
        <time>2013-06-21T16:17:33Z</time>
      </trkpt>
      <trkpt lat="44.25714" lon="3.46189">
        <ele>983</ele>
        <time>2013-06-21T16:17:45Z</time>
      </trkpt>
      <trkpt lat="44.25726" lon="3.46186">
        <ele>985</ele>
        <time>2013-06-21T16:17:55Z</time>
      </trkpt>
      <trkpt lat="44.25736" lon="3.46185">
        <ele>986</ele>
        <time>2013-06-21T16:18:07Z</time>
      </trkpt>
      <trkpt lat="44.25749" lon="3.46185">
        <ele>987</ele>
        <time>2013-06-21T16:18:18Z</time>
      </trkpt>
      <trkpt lat="44.2576" lon="3.46185">
        <ele>989</ele>
        <time>2013-06-21T16:18:28Z</time>
      </trkpt>
      <trkpt lat="44.25772" lon="3.46187">
        <ele>988</ele>
        <time>2013-06-21T16:18:38Z</time>
      </trkpt>
      <trkpt lat="44.25784" lon="3.46185">
        <ele>986</ele>
        <time>2013-06-21T16:18:49Z</time>
      </trkpt>
      <trkpt lat="44.25797" lon="3.46188">
        <ele>985</ele>
        <time>2013-06-21T16:19:03Z</time>
      </trkpt>
      <trkpt lat="44.25799" lon="3.46191">
        <ele>986</ele>
        <time>2013-06-21T16:19:38Z</time>
      </trkpt>
      <trkpt lat="44.25813" lon="3.46191">
        <ele>987</ele>
        <time>2013-06-21T16:20:00Z</time>
      </trkpt>
      <trkpt lat="44.25816" lon="3.46191">
        <ele>987</ele>
        <time>2013-06-21T16:20:03Z</time>
      </trkpt>
      <trkpt lat="44.2583" lon="3.46195">
        <ele>987</ele>
        <time>2013-06-21T16:20:16Z</time>
      </trkpt>
      <trkpt lat="44.25844" lon="3.46198">
        <ele>987</ele>
        <time>2013-06-21T16:20:28Z</time>
      </trkpt>
      <trkpt lat="44.25852" lon="3.462">
        <ele>989</ele>
        <time>2013-06-21T16:20:38Z</time>
      </trkpt>
      <trkpt lat="44.25861" lon="3.46201">
        <ele>990</ele>
        <time>2013-06-21T16:20:51Z</time>
      </trkpt>
      <trkpt lat="44.2588" lon="3.46201">
        <ele>992</ele>
        <time>2013-06-21T16:21:10Z</time>
      </trkpt>
      <trkpt lat="44.25902" lon="3.46209">
        <ele>982</ele>
        <time>2013-06-21T16:21:22Z</time>
      </trkpt>
      <trkpt lat="44.2592" lon="3.46212">
        <ele>981</ele>
        <time>2013-06-21T16:21:37Z</time>
      </trkpt>
      <trkpt lat="44.25932" lon="3.46214">
        <ele>982</ele>
        <time>2013-06-21T16:21:50Z</time>
      </trkpt>
      <trkpt lat="44.25942" lon="3.46218">
        <ele>982</ele>
        <time>2013-06-21T16:22:00Z</time>
      </trkpt>
      <trkpt lat="44.25948" lon="3.4622">
        <ele>982</ele>
        <time>2013-06-21T16:22:08Z</time>
      </trkpt>
      <trkpt lat="44.25959" lon="3.46222">
        <ele>985</ele>
        <time>2013-06-21T16:22:22Z</time>
      </trkpt>
      <trkpt lat="44.2597" lon="3.46221">
        <ele>987</ele>
        <time>2013-06-21T16:22:35Z</time>
      </trkpt>
      <trkpt lat="44.25982" lon="3.46212">
        <ele>985</ele>
        <time>2013-06-21T16:22:50Z</time>
      </trkpt>
      <trkpt lat="44.25989" lon="3.46206">
        <ele>984</ele>
        <time>2013-06-21T16:22:58Z</time>
      </trkpt>
      <trkpt lat="44.25991" lon="3.46205">
        <ele>984</ele>
        <time>2013-06-21T16:23:00Z</time>
      </trkpt>
      <trkpt lat="44.26" lon="3.46198">
        <ele>980</ele>
        <time>2013-06-21T16:23:13Z</time>
      </trkpt>
      <trkpt lat="44.26011" lon="3.4619">
        <ele>976</ele>
        <time>2013-06-21T16:23:30Z</time>
      </trkpt>
      <trkpt lat="44.26026" lon="3.46181">
        <ele>975</ele>
        <time>2013-06-21T16:23:50Z</time>
      </trkpt>
      <trkpt lat="44.26039" lon="3.46171">
        <ele>972</ele>
        <time>2013-06-21T16:24:08Z</time>
      </trkpt>
      <trkpt lat="44.26045" lon="3.46169">
        <ele>971</ele>
        <time>2013-06-21T16:24:14Z</time>
      </trkpt>
      <trkpt lat="44.2606" lon="3.46162">
        <ele>970</ele>
        <time>2013-06-21T16:24:31Z</time>
      </trkpt>
      <trkpt lat="44.2607" lon="3.46158">
        <ele>972</ele>
        <time>2013-06-21T16:24:46Z</time>
      </trkpt>
      <trkpt lat="44.26083" lon="3.46151">
        <ele>970</ele>
        <time>2013-06-21T16:25:03Z</time>
      </trkpt>
      <trkpt lat="44.26095" lon="3.46143">
        <ele>967</ele>
        <time>2013-06-21T16:25:17Z</time>
      </trkpt>
      <trkpt lat="44.26107" lon="3.46138">
        <ele>965</ele>
        <time>2013-06-21T16:25:30Z</time>
      </trkpt>
      <trkpt lat="44.26122" lon="3.46132">
        <ele>965</ele>
        <time>2013-06-21T16:25:43Z</time>
      </trkpt>
      <trkpt lat="44.26127" lon="3.46127">
        <ele>966</ele>
        <time>2013-06-21T16:25:50Z</time>
      </trkpt>
      <trkpt lat="44.26128" lon="3.46125">
        <ele>966</ele>
        <time>2013-06-21T16:25:52Z</time>
      </trkpt>
      <trkpt lat="44.26135" lon="3.46121">
        <ele>966</ele>
        <time>2013-06-21T16:25:58Z</time>
      </trkpt>
      <trkpt lat="44.26137" lon="3.46121">
        <ele>966</ele>
        <time>2013-06-21T16:26:00Z</time>
      </trkpt>
      <trkpt lat="44.26154" lon="3.4611">
        <ele>967</ele>
        <time>2013-06-21T16:26:15Z</time>
      </trkpt>
      <trkpt lat="44.26167" lon="3.46105">
        <ele>970</ele>
        <time>2013-06-21T16:26:30Z</time>
      </trkpt>
      <trkpt lat="44.26172" lon="3.46106">
        <ele>969</ele>
        <time>2013-06-21T16:26:44Z</time>
      </trkpt>
      <trkpt lat="44.26183" lon="3.4611">
        <ele>965</ele>
        <time>2013-06-21T16:26:54Z</time>
      </trkpt>
      <trkpt lat="44.26196" lon="3.46108">
        <ele>964</ele>
        <time>2013-06-21T16:27:06Z</time>
      </trkpt>
      <trkpt lat="44.26207" lon="3.46108">
        <ele>962</ele>
        <time>2013-06-21T16:27:17Z</time>
      </trkpt>
      <trkpt lat="44.2622" lon="3.46109">
        <ele>963</ele>
        <time>2013-06-21T16:27:30Z</time>
      </trkpt>
      <trkpt lat="44.26235" lon="3.46112">
        <ele>960</ele>
        <time>2013-06-21T16:27:43Z</time>
      </trkpt>
      <trkpt lat="44.26244" lon="3.4611">
        <ele>961</ele>
        <time>2013-06-21T16:27:55Z</time>
      </trkpt>
      <trkpt lat="44.26257" lon="3.46109">
        <ele>969</ele>
        <time>2013-06-21T16:28:22Z</time>
      </trkpt>
      <trkpt lat="44.26273" lon="3.4611">
        <ele>975</ele>
        <time>2013-06-21T16:28:43Z</time>
      </trkpt>
      <trkpt lat="44.26288" lon="3.46115">
        <ele>970</ele>
        <time>2013-06-21T16:29:00Z</time>
      </trkpt>
      <trkpt lat="44.2629" lon="3.46117">
        <ele>973</ele>
        <time>2013-06-21T16:29:21Z</time>
      </trkpt>
      <trkpt lat="44.26304" lon="3.4612">
        <ele>969</ele>
        <time>2013-06-21T16:29:38Z</time>
      </trkpt>
      <trkpt lat="44.26322" lon="3.46126">
        <ele>967</ele>
        <time>2013-06-21T16:29:54Z</time>
      </trkpt>
      <trkpt lat="44.26331" lon="3.46124">
        <ele>965</ele>
        <time>2013-06-21T16:30:03Z</time>
      </trkpt>
      <trkpt lat="44.26345" lon="3.46111">
        <ele>966</ele>
        <time>2013-06-21T16:30:18Z</time>
      </trkpt>
      <trkpt lat="44.26346" lon="3.46105">
        <ele>968</ele>
        <time>2013-06-21T16:30:31Z</time>
      </trkpt>
      <trkpt lat="44.2633" lon="3.46093">
        <ele>964</ele>
        <time>2013-06-21T16:30:48Z</time>
      </trkpt>
      <trkpt lat="44.26326" lon="3.46091">
        <ele>964</ele>
        <time>2013-06-21T16:30:51Z</time>
      </trkpt>
      <trkpt lat="44.26315" lon="3.46076">
        <ele>962</ele>
        <time>2013-06-21T16:31:08Z</time>
      </trkpt>
      <trkpt lat="44.26307" lon="3.46068">
        <ele>960</ele>
        <time>2013-06-21T16:31:22Z</time>
      </trkpt>
      <trkpt lat="44.26294" lon="3.46057">
        <ele>958</ele>
        <time>2013-06-21T16:31:38Z</time>
      </trkpt>
      <trkpt lat="44.2629" lon="3.46046">
        <ele>957</ele>
        <time>2013-06-21T16:31:50Z</time>
      </trkpt>
      <trkpt lat="44.26288" lon="3.46042">
        <ele>954</ele>
        <time>2013-06-21T16:33:00Z</time>
      </trkpt>
      <trkpt lat="44.26288" lon="3.46042">
        <ele>953</ele>
        <time>2013-06-21T16:33:05Z</time>
      </trkpt>
    </trkseg>
  </trk>
</gpx>